Darstellungsparameter: Aktuell verwendete Einstellungen:
Skalierung der Graphiken ... ?
xyx+y,   Skalierungsfaktor:      Skalierung: Modus: x, Faktor: 1
Darstellungszeitraum ... ?
Vom - - bis: - -   Zeitraum: 26.08.2010 - 15.09.2010
Min/Max/Avg-Anzeige ... ?
Zeige MMA aktuell
Zeige MMA Monat
Zeige MMA alles
Zeige --A aktuell
Zeige --A Monat
Zeige --A alles
Keine MMA-Anzeige
MMA:
Average (ber die Originaldaten)
MMA-Basis: 23.02.2003 - 30.09.2020
Quicknavigation für Darstellung... ?
Tage:      1T, 2T, 3T, 5T -1T -2T -3T -5T +1T +2T +3T +5T
Wochen: 1W, 2W, 3W -1W -2W -3W +1W +2W +3W
Monate: 1M, 3M, 6M -1M -3M -6M +1M +3M +6M
Jahre:    1J, 3J, 5J, 10J -1J -3J -5J -10J +1J +3J +5J +10J
Nutze für die Darstellung ... ?
Originaldaten oder Mittelwerte auf ...
Stundenbasis Tagesbasis Wochenbasis
Monatsbasis Jahresbasis      Datenbasis: Original-Daten
Darstellen als:
Statistik (Auto) Statistik J:M      Darstellung:
Zur Graphik,    zurück zur Übersicht aller Sensoren.
 
Tabellarische Datenbersicht: ?
 
Sensor: Nr:Datum:Temp:Abs-Feuchte:Windchill:Wind:
Aussen-T/F 1 26-08-2010 00:05:04 17.1 C 9.03 g/m*3 17.1 C 0 km/h
2 26-08-2010 00:17:04 17.2 C 9.08 g/m*3 17.2 C 0 km/h
3 26-08-2010 00:29:04 17.3 C 9.13 g/m*3 17.3 C 0 km/h
4 26-08-2010 00:41:04 17.4 C 9.04 g/m*3 17.4 C 0 km/h
5 26-08-2010 00:53:04 17.4 C 9.04 g/m*3 17.4 C 0 km/h
6 26-08-2010 01:05:05 17.5 C 9.24 g/m*3 17.5 C 0 km/h
7 26-08-2010 01:17:05 17.5 C 9.09 g/m*3 17.5 C 0 km/h
8 26-08-2010 01:29:05 17.5 C 9.09 g/m*3 17.5 C 0 km/h
9 26-08-2010 01:41:05 17.5 C 9.09 g/m*3 17.5 C 0 km/h
10 26-08-2010 01:53:05 17.4 C 9.04 g/m*3 17.4 C 0 km/h
11 26-08-2010 02:05:05 16.9 C 9.78 g/m*3 16.9 C 0 km/h
12 26-08-2010 02:17:05 17.1 C 10.19 g/m*3 17.1 C 0 km/h
13 26-08-2010 02:29:05 16.7 C 10.09 g/m*3 16.7 C 0 km/h
14 26-08-2010 02:41:05 17 C 9.84 g/m*3 17 C 0 km/h
15 26-08-2010 02:53:05 16.7 C 9.95 g/m*3 16.7 C 0 km/h
16 26-08-2010 03:05:05 16.8 C 10.29 g/m*3 16.8 C 0 km/h
17 26-08-2010 03:17:05 16.8 C 10.29 g/m*3 16.8 C 0 km/h
18 26-08-2010 03:29:05 16.9 C 9.92 g/m*3 16.9 C 0 km/h
19 26-08-2010 03:41:05 16.9 C 9.92 g/m*3 16.9 C 0 km/h
20 26-08-2010 03:53:05 16.9 C 9.78 g/m*3 16.9 C 0 km/h
21 26-08-2010 04:05:06 16.9 C 9.78 g/m*3 16.9 C 0 km/h
22 26-08-2010 04:17:06 17 C 9.69 g/m*3 17 C 0 km/h
23 26-08-2010 04:29:06 17 C 9.84 g/m*3 17 C 0 km/h
24 26-08-2010 04:41:06 16.9 C 9.92 g/m*3 16.9 C 0 km/h
25 26-08-2010 04:53:06 16.9 C 10.07 g/m*3 16.9 C 0 km/h
Sensor: Nr:Datum:Temp:Abs-Feuchte:Windchill:Wind:
Aussen-T/F 26 26-08-2010 05:05:06 17.3 C 10.31 g/m*3 17.3 C 0 km/h
27 26-08-2010 05:17:06 18.1 C 10.35 g/m*3 18.1 C 0 km/h
28 26-08-2010 05:29:06 18.5 C 10.28 g/m*3 18.5 C 0 km/h
29 26-08-2010 05:41:06 18.8 C 10.31 g/m*3 18.8 C 0 km/h
30 26-08-2010 05:53:06 18.7 C 10.25 g/m*3 18.7 C 0 km/h
31 26-08-2010 06:05:03 18.2 C 10.1 g/m*3 18.2 C 0 km/h
32 26-08-2010 06:17:03 18.1 C 10.35 g/m*3 18.1 C 0 km/h
33 26-08-2010 06:29:03 17.9 C 10.54 g/m*3 17.9 C 0 km/h
34 26-08-2010 06:41:03 18.1 C 10.82 g/m*3 18.1 C 0 km/h
35 26-08-2010 06:53:02 18.6 C 10.82 g/m*3 18.6 C 0 km/h
36 26-08-2010 07:05:02 18.9 C 10.69 g/m*3 18.9 C 0 km/h
37 26-08-2010 07:17:02 19 C 10.59 g/m*3 19 C 0 km/h
38 26-08-2010 07:29:02 19.2 C 10.55 g/m*3 19.2 C 0 km/h
39 26-08-2010 07:41:02 19.4 C 10.68 g/m*3 19.4 C 0 km/h
40 26-08-2010 07:53:02 19.8 C 10.93 g/m*3 19.8 C 0 km/h
41 26-08-2010 08:05:01 20 C 10.71 g/m*3 20 C 0 km/h
42 26-08-2010 08:17:02 20.1 C 10.95 g/m*3 20.1 C 0 km/h
43 26-08-2010 08:29:02 20.2 C 11.02 g/m*3 20.2 C 0 km/h
44 26-08-2010 08:41:01 20.1 C 11.3 g/m*3 20.1 C 0 km/h
45 26-08-2010 08:53:01 20.6 C 11.63 g/m*3 20.6 C 0 km/h
46 26-08-2010 09:05:02 20.8 C 11.41 g/m*3 20.8 C 0 km/h
47 26-08-2010 09:17:02 21.1 C 11.42 g/m*3 21.1 C 0 km/h
48 26-08-2010 09:29:02 21.5 C 11.31 g/m*3 21.5 C 0 km/h
49 26-08-2010 09:41:02 22 C 11.26 g/m*3 22 C 0 km/h
50 26-08-2010 09:53:01 22.2 C 11.19 g/m*3 22.2 C 0 km/h
Sensor: Nr:Datum:Temp:Abs-Feuchte:Windchill:Wind:
Aussen-T/F 51 26-08-2010 10:05:02 22.6 C 11.25 g/m*3 22.6 C 0 km/h
52 26-08-2010 10:17:02 22.6 C 11.25 g/m*3 22.6 C 0 km/h
53 26-08-2010 10:29:02 22.9 C 11.24 g/m*3 22.9 C 0 km/h
54 26-08-2010 10:41:01 22.7 C 11.11 g/m*3 22.7 C 0 km/h
55 26-08-2010 10:53:02 23 C 11.1 g/m*3 23 C 0 km/h
56 26-08-2010 11:05:01 23.2 C 11.23 g/m*3 23.2 C 0 km/h
57 26-08-2010 11:17:02 23.9 C 11.25 g/m*3 23.9 C 0 km/h
58 26-08-2010 11:29:03 23.5 C 11.21 g/m*3 23.5 C 0 km/h
59 26-08-2010 11:41:01 24.1 C 11.16 g/m*3 24.1 C 0 km/h
60 26-08-2010 11:53:02 24.1 C 10.94 g/m*3 24.1 C 0 km/h
61 26-08-2010 12:05:02 24.4 C 11.13 g/m*3 24.4 C 0 km/h
62 26-08-2010 12:17:02 23.8 C 10.97 g/m*3 23.8 C 0 km/h
63 26-08-2010 12:29:02 23.4 C 11.14 g/m*3 23.4 C 0 km/h
64 26-08-2010 12:41:03 23.2 C 11.23 g/m*3 23.2 C 0 km/h
65 26-08-2010 12:53:02 22.9 C 11.24 g/m*3 22.9 C 0 km/h
66 26-08-2010 13:05:02 22.7 C 11.31 g/m*3 22.7 C 0 km/h
67 26-08-2010 13:17:01 22.7 C 11.31 g/m*3 22.7 C 0 km/h
68 26-08-2010 13:29:01 22.9 C 11.24 g/m*3 22.9 C 0 km/h
69 26-08-2010 13:41:02 23.3 C 11.08 g/m*3 23.3 C 0 km/h
70 26-08-2010 13:53:02 23.2 C 11.02 g/m*3 23.2 C 0 km/h
71 26-08-2010 14:05:02 23.5 C 11.21 g/m*3 23.5 C 0 km/h
72 26-08-2010 14:17:02 23.9 C 11.25 g/m*3 23.9 C 0 km/h
73 26-08-2010 14:29:02 23.9 C 11.03 g/m*3 23.9 C 0 km/h
74 26-08-2010 14:41:02 23.8 C 11.19 g/m*3 23.8 C 0 km/h
75 26-08-2010 14:53:02 23.9 C 11.25 g/m*3 23.9 C 0 km/h
Sensor: Nr:Datum:Temp:Abs-Feuchte:Windchill:Wind:
Aussen-T/F 76 26-08-2010 15:05:02 23.9 C 11.47 g/m*3 23.9 C 0 km/h
77 26-08-2010 15:17:02 23.8 C 11.19 g/m*3 23.8 C 0 km/h
78 26-08-2010 15:29:02 23.7 C 11.34 g/m*3 23.7 C 0 km/h
79 26-08-2010 15:41:02 23.5 C 11.42 g/m*3 23.5 C 0 km/h
80 26-08-2010 15:53:02 23.5 C 11.21 g/m*3 23.5 C 0 km/h
81 26-08-2010 16:05:02 23.9 C 11.47 g/m*3 23.9 C 0 km/h
82 26-08-2010 16:17:02 23.8 C 11.4 g/m*3 23.8 C 0 km/h
83 26-08-2010 16:29:02 23.7 C 11.34 g/m*3 23.7 C 0 km/h
84 26-08-2010 16:41:02 24.2 C 11.22 g/m*3 24.2 C 0 km/h
85 26-08-2010 16:53:02 24.1 C 10.94 g/m*3 24.1 C 0 km/h
86 26-08-2010 17:05:02 23.9 C 11.25 g/m*3 23.9 C 0 km/h
87 26-08-2010 17:17:02 23.7 C 11.34 g/m*3 23.7 C 0 km/h
88 26-08-2010 17:29:02 23.6 C 11.27 g/m*3 23.6 C 0 km/h
89 26-08-2010 17:41:02 23.5 C 11.21 g/m*3 23.5 C 0 km/h
90 26-08-2010 17:53:02 23.4 C 11.35 g/m*3 23.4 C 0 km/h
91 26-08-2010 18:05:02 23.4 C 11.35 g/m*3 23.4 C 0 km/h
92 26-08-2010 18:17:02 23.3 C 11.5 g/m*3 23.3 C 0 km/h
93 26-08-2010 18:29:03 23.2 C 11.85 g/m*3 23.2 C 0 km/h
94 26-08-2010 18:41:01 23 C 11.72 g/m*3 23 C 0 km/h
95 26-08-2010 18:53:02 23 C 11.92 g/m*3 23 C 0 km/h
96 26-08-2010 19:05:01 22.6 C 12.25 g/m*3 22.6 C 0 km/h
97 26-08-2010 19:17:02 22.6 C 12.25 g/m*3 22.6 C 0 km/h
98 26-08-2010 19:29:02 21.6 C 13.28 g/m*3 21.6 C 0 km/h
99 26-08-2010 19:41:02 20.7 C 14.04 g/m*3 20.7 C 0 km/h
100 26-08-2010 19:53:02 20.8 C 14.67 g/m*3 20.8 C 0 km/h
Sensor: Nr:Datum:Temp:Abs-Feuchte:Windchill:Wind:
Aussen-T/F 101 26-08-2010 20:05:02 21 C 14.65 g/m*3 21 C 0 km/h
102 26-08-2010 20:17:02 20.9 C 14.57 g/m*3 20.9 C 0 km/h
103 26-08-2010 20:29:02 21 C 14.47 g/m*3 21 C 0 km/h
104 26-08-2010 20:41:02 20.9 C 14.39 g/m*3 20.9 C 0 km/h
105 26-08-2010 20:53:01 20.9 C 14.39 g/m*3 20.9 C 0 km/h
106 26-08-2010 21:05:02 20.7 C 14.04 g/m*3 20.7 C 0 km/h
107 26-08-2010 21:17:01 20.7 C 14.04 g/m*3 20.7 C 0 km/h
108 26-08-2010 21:29:01 20.4 C 13.98 g/m*3 20.4 C 0 km/h
109 26-08-2010 21:41:02 20.2 C 13.99 g/m*3 20.2 C 0 km/h
110 26-08-2010 21:53:02 20.1 C 14.08 g/m*3 20.1 C 0 km/h
111 26-08-2010 22:06:04 20 C 14.34 g/m*3 20 C 0 km/h
112 26-08-2010 22:18:04 19.8 C 14.52 g/m*3 19.8 C 0 km/h
113 26-08-2010 22:30:04 19.7 C 14.6 g/m*3 19.7 C 0 km/h
114 26-08-2010 22:42:04 19.7 C 14.77 g/m*3 19.7 C 0 km/h
115 26-08-2010 22:54:04 19.6 C 14.86 g/m*3 19.6 C 0 km/h
116 26-08-2010 23:06:04 19.5 C 14.77 g/m*3 19.5 C 0 km/h
117 26-08-2010 23:18:04 19.5 C 14.94 g/m*3 19.5 C 0 km/h
118 26-08-2010 23:30:04 19.5 C 14.94 g/m*3 19.5 C 0 km/h
119 26-08-2010 23:42:05 19.4 C 15.02 g/m*3 19.4 C 0 km/h
120 26-08-2010 23:54:05 19.3 C 15.09 g/m*3 19.3 C 0 km/h
121 27-08-2010 00:06:05 19.2 C 15.01 g/m*3 19.2 C 0 km/h
122 27-08-2010 00:18:05 19 C 14.83 g/m*3 19 C 0 km/h
123 27-08-2010 00:30:05 19 C 14.83 g/m*3 19 C 0 km/h
124 27-08-2010 00:42:05 18.9 C 14.9 g/m*3 18.9 C 0 km/h
125 27-08-2010 00:54:05 18.8 C 14.98 g/m*3 18.8 C 0 km/h
Sensor: Nr:Datum:Temp:Abs-Feuchte:Windchill:Wind:
Aussen-T/F 126 27-08-2010 01:06:05 18.7 C 14.89 g/m*3 18.7 C 0 km/h
127 27-08-2010 01:18:05 18.7 C 14.89 g/m*3 18.7 C 0 km/h
128 27-08-2010 01:30:05 18.8 C 14.98 g/m*3 18.8 C 0 km/h
129 27-08-2010 01:42:05 18.8 C 14.98 g/m*3 18.8 C 0 km/h
130 27-08-2010 01:54:05 18.8 C 15.14 g/m*3 18.8 C 0 km/h
131 27-08-2010 02:06:05 18.8 C 15.14 g/m*3 18.8 C 0 km/h
132 27-08-2010 02:18:05 18.7 C 15.05 g/m*3 18.7 C 0 km/h
133 27-08-2010 02:30:05 18.5 C 14.87 g/m*3 18.5 C 0 km/h
134 27-08-2010 02:42:05 18.6 C 14.96 g/m*3 18.6 C 0 km/h
135 27-08-2010 02:54:05 18.5 C 14.87 g/m*3 18.5 C 0 km/h
136 27-08-2010 03:06:05 18.4 C 14.78 g/m*3 18.4 C 0 km/h
137 27-08-2010 03:18:05 18.4 C 14.78 g/m*3 18.4 C 0 km/h
138 27-08-2010 03:30:05 18.4 C 14.78 g/m*3 18.4 C 0 km/h
139 27-08-2010 03:42:05 18.4 C 14.78 g/m*3 18.4 C 0 km/h
140 27-08-2010 03:54:05 18.3 C 14.7 g/m*3 18.3 C 0 km/h
141 27-08-2010 04:06:05 18.3 C 14.7 g/m*3 18.3 C 0 km/h
142 27-08-2010 04:18:06 18.3 C 14.7 g/m*3 18.3 C 0 km/h
143 27-08-2010 04:30:06 18.4 C 14.78 g/m*3 18.4 C 0 km/h
144 27-08-2010 04:42:06 18.4 C 14.78 g/m*3 18.4 C 0 km/h
145 27-08-2010 04:54:06 18.3 C 14.7 g/m*3 18.3 C 0 km/h
146 27-08-2010 05:06:06 18.3 C 14.85 g/m*3 18.3 C 0 km/h
147 27-08-2010 05:18:06 18.3 C 14.7 g/m*3 18.3 C 0 km/h
148 27-08-2010 05:30:06 18.4 C 14.78 g/m*3 18.4 C 0 km/h
149 27-08-2010 05:42:06 18.4 C 14.94 g/m*3 18.4 C 0 km/h
150 27-08-2010 05:54:06 18.6 C 15.12 g/m*3 18.6 C 0 km/h
Sensor: Nr:Datum:Temp:Abs-Feuchte:Windchill:Wind:
Aussen-T/F 151 27-08-2010 06:06:06 18.7 C 15.21 g/m*3 18.7 C 0 km/h
152 27-08-2010 06:18:06 18.8 C 15.3 g/m*3 18.8 C 0 km/h
153 27-08-2010 06:30:06 18.9 C 15.39 g/m*3 18.9 C 0 km/h
154 27-08-2010 06:42:06 18.9 C 15.39 g/m*3 18.9 C 0 km/h
155 27-08-2010 06:54:06 18.8 C 15.3 g/m*3 18.8 C 0 km/h
156 27-08-2010 07:06:06 18.8 C 15.14 g/m*3 18.8 C 0 km/h
157 27-08-2010 07:18:07 18.7 C 15.05 g/m*3 18.7 C 0 km/h
158 27-08-2010 07:30:07 18.7 C 15.05 g/m*3 18.7 C 0 km/h
159 27-08-2010 07:42:07 18.6 C 14.96 g/m*3 18.6 C 0 km/h
160 27-08-2010 07:54:01 18.6 C 14.96 g/m*3 18.6 C 0 km/h
161 27-08-2010 08:06:02 18.6 C 14.96 g/m*3 18.6 C 0 km/h
162 27-08-2010 08:18:01 18.6 C 14.96 g/m*3 18.6 C 0 km/h
163 27-08-2010 08:30:01 18.6 C 14.96 g/m*3 18.6 C 0 km/h
164 27-08-2010 08:42:01 18.5 C 14.87 g/m*3 18.5 C 0 km/h
165 27-08-2010 08:54:02 18.6 C 14.96 g/m*3 18.6 C 0 km/h
166 27-08-2010 09:06:01 18.6 C 14.96 g/m*3 18.6 C 0 km/h
167 27-08-2010 09:18:02 18.8 C 15.14 g/m*3 18.8 C 0 km/h
168 27-08-2010 09:30:02 19.5 C 15.27 g/m*3 19.5 C 0 km/h
169 27-08-2010 09:42:01 19.7 C 15.11 g/m*3 19.7 C 0 km/h
170 27-08-2010 09:54:02 19.7 C 14.77 g/m*3 19.7 C 0 km/h
171 27-08-2010 10:06:02 19.7 C 14.6 g/m*3 19.7 C 0 km/h
172 27-08-2010 10:18:02 19.8 C 14.52 g/m*3 19.8 C 0 km/h
173 27-08-2010 10:30:02 19.4 C 14.18 g/m*3 19.4 C 0 km/h
174 27-08-2010 10:42:03 19 C 14.18 g/m*3 19 C 0 km/h
175 27-08-2010 10:54:02 18.7 C 14.25 g/m*3 18.7 C 0 km/h
Sensor: Nr:Datum:Temp:Abs-Feuchte:Windchill:Wind:
Aussen-T/F 176 27-08-2010 11:06:02 18.5 C 14.4 g/m*3 18.5 C 0 km/h
177 27-08-2010 11:18:01 18.3 C 13.92 g/m*3 18.3 C 0 km/h
178 27-08-2010 11:30:01 18.1 C 13.44 g/m*3 18.1 C 0 km/h
179 27-08-2010 11:42:02 17.9 C 13.13 g/m*3 17.9 C 0 km/h
180 27-08-2010 11:54:02 18 C 13.06 g/m*3 18 C 0 km/h
181 27-08-2010 12:06:02 18.7 C 13.77 g/m*3 18.7 C 0 km/h
182 27-08-2010 12:18:02 19.5 C 13.93 g/m*3 19.5 C 0 km/h
183 27-08-2010 12:30:02 20.4 C 13.62 g/m*3 20.4 C 0 km/h
184 27-08-2010 12:42:02 20.5 C 12.99 g/m*3 20.5 C 0 km/h
185 27-08-2010 12:54:02 21.4 C 13.12 g/m*3 21.4 C 0 km/h
186 27-08-2010 13:06:02 21.9 C 12.93 g/m*3 21.9 C 0 km/h
187 27-08-2010 13:18:02 22.4 C 13.11 g/m*3 22.4 C 0 km/h
188 27-08-2010 13:30:02 22.8 C 12.6 g/m*3 22.8 C 0 km/h
189 27-08-2010 13:42:02 23.4 C 12.41 g/m*3 23.4 C 0 km/h
190 27-08-2010 13:54:02 24.1 C 11.82 g/m*3 24.1 C 0 km/h
191 27-08-2010 14:06:02 24.2 C 11.88 g/m*3 24.2 C 0 km/h
192 27-08-2010 14:18:03 23.6 C 11.7 g/m*3 23.6 C 0 km/h
193 27-08-2010 14:30:03 22.5 C 12.78 g/m*3 22.5 C 0 km/h
194 27-08-2010 14:42:02 17 C 11 g/m*3 17 C 0 km/h
195 27-08-2010 14:54:03 16.5 C 11.94 g/m*3 16.5 C 0 km/h
196 27-08-2010 15:06:02 16.7 C 12.65 g/m*3 16.7 C 0 km/h
197 27-08-2010 15:18:02 18.3 C 13.76 g/m*3 18.3 C 0 km/h
198 27-08-2010 15:30:02 19 C 13.85 g/m*3 19 C 0 km/h
199 27-08-2010 15:42:02 19.8 C 13.66 g/m*3 19.8 C 0 km/h
200 27-08-2010 15:54:02 20.8 C 13.4 g/m*3 20.8 C 0 km/h
Sensor: Nr:Datum:Temp:Abs-Feuchte:Windchill:Wind:
Aussen-T/F 201 27-08-2010 16:06:01 21.8 C 12.47 g/m*3 21.8 C 0 km/h
202 27-08-2010 16:18:02 21.7 C 12.59 g/m*3 21.7 C 0 km/h
203 27-08-2010 16:30:02 21.3 C 12.68 g/m*3 21.3 C 0 km/h
204 27-08-2010 16:42:02 21.7 C 13.35 g/m*3 21.7 C 0 km/h
205 27-08-2010 16:54:02 23 C 13.36 g/m*3 23 C 0 km/h
206 27-08-2010 17:06:01 22.8 C 11.99 g/m*3 22.8 C 0 km/h
207 27-08-2010 17:18:01 22.9 C 12.47 g/m*3 22.9 C 0 km/h
208 27-08-2010 17:30:01 21.5 C 11.5 g/m*3 21.5 C 0 km/h
209 27-08-2010 17:42:02 20.2 C 11.37 g/m*3 20.2 C 0 km/h
210 27-08-2010 17:54:02 19.1 C 11.15 g/m*3 19.1 C 0 km/h
211 27-08-2010 18:06:02 17.3 C 12.08 g/m*3 17.3 C 0 km/h
212 27-08-2010 18:18:02 16.6 C 12.15 g/m*3 16.6 C 0 km/h
213 27-08-2010 18:30:02 16.4 C 12.14 g/m*3 16.4 C 0 km/h
214 27-08-2010 18:42:02 17 C 12.3 g/m*3 17 C 0 km/h
215 27-08-2010 18:54:02 16.7 C 11.37 g/m*3 16.7 C 0 km/h
216 27-08-2010 19:06:02 16.3 C 11.38 g/m*3 16.3 C 0 km/h
217 27-08-2010 19:18:02 16 C 11.31 g/m*3 16 C 0 km/h
218 27-08-2010 19:30:02 15.5 C 10.84 g/m*3 15.5 C 0 km/h
219 27-08-2010 19:42:02 15.3 C 10.71 g/m*3 15.3 C 0 km/h
220 27-08-2010 19:54:02 15.1 C 10.45 g/m*3 15.1 C 0 km/h
221 27-08-2010 20:06:02 15.1 C 10.58 g/m*3 15.1 C 0 km/h
222 27-08-2010 20:18:02 15.3 C 10.71 g/m*3 15.3 C 0 km/h
223 27-08-2010 20:30:02 15.3 C 10.45 g/m*3 15.3 C 0 km/h
224 27-08-2010 20:42:02 15.2 C 10.25 g/m*3 15.2 C 0 km/h
225 27-08-2010 20:54:02 14.7 C 10.2 g/m*3 14.7 C 0 km/h
Sensor: Nr:Datum:Temp:Abs-Feuchte:Windchill:Wind:
Aussen-T/F 226 27-08-2010 21:06:02 14.5 C 10.32 g/m*3 14.5 C 0 km/h
227 27-08-2010 21:18:03 14.5 C 10.2 g/m*3 14.5 C 0 km/h
228 27-08-2010 21:30:03 14.6 C 10.14 g/m*3 14.6 C 0 km/h
229 27-08-2010 21:42:02 14.6 C 10.14 g/m*3 14.6 C 0 km/h
230 27-08-2010 21:54:03 14.7 C 10.07 g/m*3 14.7 C 0 km/h
231 27-08-2010 22:06:02 14.8 C 10.01 g/m*3 14.8 C 0 km/h
232 27-08-2010 22:18:02 14.8 C 10.01 g/m*3 14.8 C 0 km/h
233 27-08-2010 22:30:02 14.8 C 10.01 g/m*3 14.8 C 0 km/h
234 27-08-2010 22:43:28 14.8 C 10.01 g/m*3 14.8 C 0 km/h
235 27-08-2010 22:55:28 14.5 C 10.07 g/m*3 14.5 C 0 km/h
236 27-08-2010 23:07:28 13.8 C 9.65 g/m*3 13.8 C 0 km/h
237 27-08-2010 23:19:28 13.9 C 9.59 g/m*3 13.9 C 0 km/h
238 27-08-2010 23:31:28 13.8 C 9.29 g/m*3 13.8 C 0 km/h
239 27-08-2010 23:43:28 14.1 C 9.1 g/m*3 14.1 C 0 km/h
240 27-08-2010 23:55:28 14.2 C 9.04 g/m*3 14.2 C 0 km/h
241 28-08-2010 00:07:28 14.1 C 9.1 g/m*3 14.1 C 0 km/h
242 28-08-2010 00:19:28 13.9 C 9.11 g/m*3 13.9 C 0 km/h
243 28-08-2010 00:31:28 14 C 9.05 g/m*3 14 C 0 km/h
244 28-08-2010 00:43:28 13.7 C 9.35 g/m*3 13.7 C 0 km/h
245 28-08-2010 00:55:29 13.2 C 9.42 g/m*3 13.2 C 0 km/h
246 28-08-2010 01:07:29 13.2 C 9.64 g/m*3 13.2 C 0 km/h
247 28-08-2010 01:19:29 13.1 C 9.81 g/m*3 13.1 C 0 km/h
248 28-08-2010 01:31:29 13 C 9.87 g/m*3 13 C 0 km/h
249 28-08-2010 01:43:29 13.1 C 10.04 g/m*3 13.1 C 0 km/h
250 28-08-2010 01:55:29 13.1 C 10.04 g/m*3 13.1 C 0 km/h
Sensor: Nr:Datum:Temp:Abs-Feuchte:Windchill:Wind:
Aussen-T/F 251 28-08-2010 02:07:29 13.2 C 9.99 g/m*3 13.2 C 0 km/h
252 28-08-2010 02:19:29 13.2 C 9.99 g/m*3 13.2 C 0 km/h
253 28-08-2010 02:31:29 13.1 C 9.81 g/m*3 13.1 C 0 km/h
254 28-08-2010 02:43:29 13.1 C 9.7 g/m*3 13.1 C 0 km/h
255 28-08-2010 02:55:29 13.1 C 9.59 g/m*3 13.1 C 0 km/h
256 28-08-2010 03:07:29 13.1 C 9.59 g/m*3 13.1 C 0 km/h
257 28-08-2010 03:19:29 13.1 C 9.59 g/m*3 13.1 C 0 km/h
258 28-08-2010 03:31:29 13.1 C 9.47 g/m*3 13.1 C 0 km/h
259 28-08-2010 03:43:29 13.1 C 9.59 g/m*3 13.1 C 0 km/h
260 28-08-2010 03:55:29 13.1 C 9.59 g/m*3 13.1 C 0 km/h
261 28-08-2010 04:07:29 12.9 C 9.47 g/m*3 12.9 C 0 km/h
262 28-08-2010 04:19:30 12.9 C 9.47 g/m*3 12.9 C 0 km/h
263 28-08-2010 04:31:30 12.5 C 9.24 g/m*3 12.5 C 0 km/h
264 28-08-2010 04:43:30 12.3 C 9.23 g/m*3 12.3 C 0 km/h
265 28-08-2010 04:55:30 12.1 C 9.12 g/m*3 12.1 C 0 km/h
266 28-08-2010 05:07:30 12.2 C 9.28 g/m*3 12.2 C 0 km/h
267 28-08-2010 05:19:30 12.3 C 9.34 g/m*3 12.3 C 0 km/h
268 28-08-2010 05:31:30 12.1 C 9.01 g/m*3 12.1 C 0 km/h
269 28-08-2010 05:43:30 11.9 C 9 g/m*3 11.9 C 0 km/h
270 28-08-2010 05:55:30 12.1 C 9.12 g/m*3 12.1 C 0 km/h
271 28-08-2010 06:07:30 11.7 C 8.89 g/m*3 11.7 C 0 km/h
272 28-08-2010 06:19:30 11.6 C 8.83 g/m*3 11.6 C 0 km/h
273 28-08-2010 06:31:30 11.7 C 8.79 g/m*3 11.7 C 0 km/h
274 28-08-2010 06:43:30 11.5 C 8.68 g/m*3 11.5 C 0 km/h
275 28-08-2010 06:55:02 11.4 C 8.62 g/m*3 11.4 C 0 km/h
Sensor: Nr:Datum:Temp:Abs-Feuchte:Windchill:Wind:
Aussen-T/F 276 28-08-2010 07:07:02 11.3 C 8.67 g/m*3 11.3 C 0 km/h
277 28-08-2010 07:19:02 11.3 C 8.77 g/m*3 11.3 C 0 km/h
278 28-08-2010 07:31:01 11.6 C 8.94 g/m*3 11.6 C 0 km/h
279 28-08-2010 07:43:01 12 C 8.95 g/m*3 12 C 0 km/h
280 28-08-2010 07:55:02 12.4 C 9.07 g/m*3 12.4 C 0 km/h
281 28-08-2010 08:07:01 12.6 C 9.07 g/m*3 12.6 C 0 km/h
282 28-08-2010 08:19:02 12.8 C 8.96 g/m*3 12.8 C 0 km/h
283 28-08-2010 08:31:01 13 C 8.85 g/m*3 13 C 0 km/h
284 28-08-2010 08:43:01 13.4 C 8.95 g/m*3 13.4 C 0 km/h
285 28-08-2010 08:55:02 13.6 C 8.83 g/m*3 13.6 C 0 km/h
286 28-08-2010 09:07:02 14.3 C 8.97 g/m*3 14.3 C 0 km/h
287 28-08-2010 09:19:01 14.2 C 8.55 g/m*3 14.2 C 0 km/h
288 28-08-2010 09:31:02 14.1 C 8.62 g/m*3 14.1 C 0 km/h
289 28-08-2010 09:43:02 14.1 C 8.37 g/m*3 14.1 C 0 km/h
290 28-08-2010 09:55:02 14.4 C 8.41 g/m*3 14.4 C 0 km/h
291 28-08-2010 10:07:02 14.6 C 8.38 g/m*3 14.6 C 0 km/h
292 28-08-2010 10:19:02 14.6 C 8.38 g/m*3 14.6 C 0 km/h
293 28-08-2010 10:31:02 15.1 C 8.39 g/m*3 15.1 C 0 km/h
294 28-08-2010 10:43:02 15.6 C 8.51 g/m*3 15.6 C 0 km/h
295 28-08-2010 10:55:02 15.8 C 8.08 g/m*3 15.8 C 0 km/h
296 28-08-2010 11:07:03 15.8 C 8.21 g/m*3 15.8 C 0 km/h
297 28-08-2010 11:19:02 16.4 C 7.96 g/m*3 16.4 C 0 km/h
298 28-08-2010 11:31:03 16.9 C 7.77 g/m*3 16.9 C 0 km/h
299 28-08-2010 11:43:03 16.7 C 7.25 g/m*3 16.7 C 0 km/h
300 28-08-2010 11:55:02 16.4 C 7.82 g/m*3 16.4 C 0 km/h
Sensor: Nr:Datum:Temp:Abs-Feuchte:Windchill:Wind:
Aussen-T/F 301 28-08-2010 12:07:02 17 C 7.67 g/m*3 17 C 0 km/h
302 28-08-2010 12:19:02 18 C 7.22 g/m*3 18 C 0 km/h
303 28-08-2010 12:31:02 13.7 C 8.05 g/m*3 13.7 C 0 km/h
304 28-08-2010 12:43:02 13.7 C 9.35 g/m*3 13.7 C 0 km/h
305 28-08-2010 12:55:02 14.7 C 10.58 g/m*3 14.7 C 0 km/h
306 28-08-2010 13:07:02 15.7 C 10.84 g/m*3 15.7 C 0 km/h
307 28-08-2010 13:19:03 15.8 C 10.23 g/m*3 15.8 C 0 km/h
308 28-08-2010 13:31:02 15.5 C 10.31 g/m*3 15.5 C 0 km/h
309 28-08-2010 13:43:02 17.2 C 11.57 g/m*3 17.2 C 0 km/h
310 28-08-2010 13:55:03 17 C 10.13 g/m*3 17 C 0 km/h
311 28-08-2010 14:07:02 15.8 C 8.88 g/m*3 15.8 C 0 km/h
312 28-08-2010 14:19:03 16.8 C 8.01 g/m*3 16.8 C 0 km/h
313 28-08-2010 14:31:02 15.9 C 6.91 g/m*3 15.9 C 0 km/h
314 28-08-2010 14:43:02 14.9 C 7.01 g/m*3 14.9 C 0 km/h
315 28-08-2010 14:55:02 14.6 C 7.63 g/m*3 14.6 C 0 km/h
316 28-08-2010 15:07:02 14.7 C 7.68 g/m*3 14.7 C 0 km/h
317 28-08-2010 15:19:02 15.8 C 7.94 g/m*3 15.8 C 0 km/h
318 28-08-2010 15:31:03 17.6 C 7.65 g/m*3 17.6 C 0 km/h
319 28-08-2010 15:43:03 17.9 C 6.72 g/m*3 17.9 C 0 km/h
320 28-08-2010 15:55:02 17.6 C 7.05 g/m*3 17.6 C 0 km/h
321 28-08-2010 16:07:01 17 C 6.8 g/m*3 17 C 0 km/h
322 28-08-2010 16:19:02 14.9 C 7.65 g/m*3 14.9 C 0 km/h
323 28-08-2010 16:31:02 13.9 C 8.27 g/m*3 13.9 C 0 km/h
324 28-08-2010 16:43:02 14.5 C 8.95 g/m*3 14.5 C 0 km/h
325 28-08-2010 16:55:01 15.2 C 8.44 g/m*3 15.2 C 0 km/h
Sensor: Nr:Datum:Temp:Abs-Feuchte:Windchill:Wind:
Aussen-T/F 326 28-08-2010 17:07:02 15.9 C 9.21 g/m*3 15.9 C 0 km/h
327 28-08-2010 17:19:01 16 C 8.72 g/m*3 16 C 0 km/h
328 28-08-2010 17:31:02 15.7 C 8.3 g/m*3 15.7 C 0 km/h
329 28-08-2010 17:43:02 15.2 C 8.05 g/m*3 15.2 C 0 km/h
330 28-08-2010 17:55:01 15.2 C 9.09 g/m*3 15.2 C 0 km/h
331 28-08-2010 18:07:02 16.2 C 8.27 g/m*3 16.2 C 0 km/h
332 28-08-2010 18:19:01 17 C 6.95 g/m*3 17 C 0 km/h
333 28-08-2010 18:31:02 18.1 C 7.26 g/m*3 18.1 C 0 km/h
334 28-08-2010 18:43:02 18.3 C 7.04 g/m*3 18.3 C 0 km/h
335 28-08-2010 18:55:01 18.2 C 7.46 g/m*3 18.2 C 0 km/h
336 28-08-2010 19:07:02 16.8 C 7.86 g/m*3 16.8 C 0 km/h
337 28-08-2010 19:19:02 16.1 C 7.95 g/m*3 16.1 C 0 km/h
338 28-08-2010 19:31:02 15 C 8.59 g/m*3 15 C 0 km/h
339 28-08-2010 19:43:02 14.2 C 8.79 g/m*3 14.2 C 0 km/h
340 28-08-2010 19:55:01 14.2 C 8.3 g/m*3 14.2 C 0 km/h
341 28-08-2010 20:07:02 13.4 C 8.6 g/m*3 13.4 C 0 km/h
342 28-08-2010 20:19:02 13 C 8.85 g/m*3 13 C 0 km/h
343 28-08-2010 20:31:01 13.1 C 9.13 g/m*3 13.1 C 0 km/h
344 28-08-2010 20:43:01 13.1 C 9.24 g/m*3 13.1 C 0 km/h
345 28-08-2010 20:55:02 12.9 C 9.35 g/m*3 12.9 C 0 km/h
346 28-08-2010 21:07:01 12.8 C 9.3 g/m*3 12.8 C 0 km/h
347 28-08-2010 21:19:02 12.7 C 9.24 g/m*3 12.7 C 0 km/h
348 28-08-2010 21:31:01 12.4 C 9.07 g/m*3 12.4 C 0 km/h
349 28-08-2010 21:43:01 12.2 C 8.96 g/m*3 12.2 C 0 km/h
350 28-08-2010 21:55:02 12.2 C 9.06 g/m*3 12.2 C 0 km/h
Sensor: Nr:Datum:Temp:Abs-Feuchte:Windchill:Wind:
Aussen-T/F 351 28-08-2010 22:08:02 12.3 C 9.12 g/m*3 12.3 C 0 km/h
352 28-08-2010 22:20:02 12.3 C 9.01 g/m*3 12.3 C 0 km/h
353 28-08-2010 22:32:03 12.2 C 8.85 g/m*3 12.2 C 0 km/h
354 28-08-2010 22:44:03 12.1 C 8.79 g/m*3 12.1 C 0 km/h
355 28-08-2010 22:56:03 12.3 C 9.01 g/m*3 12.3 C 0 km/h
356 28-08-2010 23:08:03 12.6 C 8.96 g/m*3 12.6 C 0 km/h
357 28-08-2010 23:20:03 12.7 C 8.79 g/m*3 12.7 C 0 km/h
358 28-08-2010 23:32:03 12.4 C 8.74 g/m*3 12.4 C 0 km/h
359 28-08-2010 23:44:03 12.1 C 8.58 g/m*3 12.1 C 0 km/h
360 28-08-2010 23:56:03 12 C 8.53 g/m*3 12 C 0 km/h
361 29-08-2010 00:08:03 11.8 C 8.42 g/m*3 11.8 C 0 km/h
362 29-08-2010 00:20:03 11.8 C 8.42 g/m*3 11.8 C 0 km/h
363 29-08-2010 00:32:03 11.9 C 8.58 g/m*3 11.9 C 0 km/h
364 29-08-2010 00:44:03 12 C 8.53 g/m*3 12 C 0 km/h
365 29-08-2010 00:56:03 12 C 8.42 g/m*3 12 C 0 km/h
366 29-08-2010 01:08:03 11.7 C 8.47 g/m*3 11.7 C 0 km/h
367 29-08-2010 01:20:03 11.5 C 8.37 g/m*3 11.5 C 0 km/h
368 29-08-2010 01:32:03 11.5 C 8.47 g/m*3 11.5 C 0 km/h
369 29-08-2010 01:44:03 11.4 C 8.42 g/m*3 11.4 C 0 km/h
370 29-08-2010 01:56:03 11.4 C 8.52 g/m*3 11.4 C 0 km/h
371 29-08-2010 02:08:03 11.7 C 8.58 g/m*3 11.7 C 0 km/h
372 29-08-2010 02:20:03 11.7 C 8.47 g/m*3 11.7 C 0 km/h
373 29-08-2010 02:32:03 11.7 C 8.58 g/m*3 11.7 C 0 km/h
374 29-08-2010 02:44:04 11.8 C 8.53 g/m*3 11.8 C 0 km/h
375 29-08-2010 02:56:04 11.8 C 8.53 g/m*3 11.8 C 0 km/h
Sensor: Nr:Datum:Temp:Abs-Feuchte:Windchill:Wind:
Aussen-T/F 376 29-08-2010 03:08:04 11.8 C 8.42 g/m*3 11.8 C 0 km/h
377 29-08-2010 03:20:04 11.8 C 8.53 g/m*3 11.8 C 0 km/h
378 29-08-2010 03:32:04 11.8 C 8.53 g/m*3 11.8 C 0 km/h
379 29-08-2010 03:44:04 11.7 C 8.47 g/m*3 11.7 C 0 km/h
380 29-08-2010 03:56:04 11.7 C 8.47 g/m*3 11.7 C 0 km/h
381 29-08-2010 04:08:04 11.6 C 8.42 g/m*3 11.6 C 0 km/h
382 29-08-2010 04:20:04 11.4 C 8.31 g/m*3 11.4 C 0 km/h
383 29-08-2010 04:32:04 11.4 C 8.42 g/m*3 11.4 C 0 km/h
384 29-08-2010 04:44:04 11.4 C 8.42 g/m*3 11.4 C 0 km/h
385 29-08-2010 04:56:04 11.7 C 8.37 g/m*3 11.7 C 0 km/h
386 29-08-2010 05:08:04 11.8 C 8.31 g/m*3 11.8 C 0 km/h
387 29-08-2010 05:20:04 11.7 C 8.26 g/m*3 11.7 C 0 km/h
388 29-08-2010 05:32:04 11.7 C 8.26 g/m*3 11.7 C 0 km/h
389 29-08-2010 05:44:04 11.7 C 8.37 g/m*3 11.7 C 0 km/h
390 29-08-2010 05:56:04 11.8 C 8.42 g/m*3 11.8 C 0 km/h
391 29-08-2010 06:08:04 12.2 C 8.31 g/m*3 12.2 C 0 km/h
392 29-08-2010 06:20:04 12.1 C 8.26 g/m*3 12.1 C 0 km/h
393 29-08-2010 06:32:04 12.2 C 8.2 g/m*3 12.2 C 0 km/h
394 29-08-2010 06:44:04 12 C 8.31 g/m*3 12 C 0 km/h
395 29-08-2010 06:56:04 12 C 8.42 g/m*3 12 C 0 km/h
396 29-08-2010 07:08:02 12.1 C 8.36 g/m*3 12.1 C 0 km/h
397 29-08-2010 07:20:02 12.2 C 8.31 g/m*3 12.2 C 0 km/h
398 29-08-2010 07:32:02 12.2 C 8.31 g/m*3 12.2 C 0 km/h
399 29-08-2010 07:44:02 12.2 C 8.31 g/m*3 12.2 C 0 km/h
400 29-08-2010 07:56:02 12.3 C 8.36 g/m*3 12.3 C 0 km/h
Sensor: Nr:Datum:Temp:Abs-Feuchte:Windchill:Wind:
Aussen-T/F 401 29-08-2010 08:08:02 12.1 C 8.36 g/m*3 12.1 C 0 km/h
402 29-08-2010 08:20:01 12.2 C 8.42 g/m*3 12.2 C 0 km/h
403 29-08-2010 08:32:02 12.5 C 8.36 g/m*3 12.5 C 0 km/h
404 29-08-2010 08:44:02 12.6 C 8.3 g/m*3 12.6 C 0 km/h
405 29-08-2010 08:56:01 12.8 C 8.29 g/m*3 12.8 C 0 km/h
406 29-08-2010 09:08:02 13.5 C 8.3 g/m*3 13.5 C 0 km/h
407 29-08-2010 09:20:02 13.8 C 8.1 g/m*3 13.8 C 0 km/h
408 29-08-2010 09:32:01 14 C 8.08 g/m*3 14 C 0 km/h
409 29-08-2010 09:44:01 14.3 C 8.23 g/m*3 14.3 C 0 km/h
410 29-08-2010 09:56:03 14.4 C 8.16 g/m*3 14.4 C 0 km/h
411 29-08-2010 10:08:03 14.9 C 8.28 g/m*3 14.9 C 0 km/h
412 29-08-2010 10:20:03 15.3 C 7.97 g/m*3 15.3 C 0 km/h
413 29-08-2010 10:32:02 15.3 C 7.97 g/m*3 15.3 C 0 km/h
414 29-08-2010 10:44:02 15.7 C 8.03 g/m*3 15.7 C 0 km/h
415 29-08-2010 10:56:01 15.8 C 7.94 g/m*3 15.8 C 0 km/h
416 29-08-2010 11:08:02 16.3 C 8.05 g/m*3 16.3 C 0 km/h
417 29-08-2010 11:20:01 16.4 C 7.96 g/m*3 16.4 C 0 km/h
418 29-08-2010 11:32:01 16.6 C 7.91 g/m*3 16.6 C 0 km/h
419 29-08-2010 11:44:01 16 C 7.77 g/m*3 16 C 0 km/h
420 29-08-2010 11:56:01 16 C 7.9 g/m*3 16 C 0 km/h
421 29-08-2010 12:08:01 15.9 C 7.85 g/m*3 15.9 C 0 km/h
422 29-08-2010 12:20:02 14 C 9.17 g/m*3 14 C 0 km/h
423 29-08-2010 12:32:01 14.6 C 9.76 g/m*3 14.6 C 0 km/h
424 29-08-2010 12:44:01 15.1 C 9.16 g/m*3 15.1 C 0 km/h
425 29-08-2010 12:56:03 16 C 9.13 g/m*3 16 C 0 km/h
Sensor: Nr:Datum:Temp:Abs-Feuchte:Windchill:Wind:
Aussen-T/F 426 29-08-2010 13:08:02 16.9 C 8.92 g/m*3 16.9 C 0 km/h
427 29-08-2010 13:20:02 16.9 C 8.63 g/m*3 16.9 C 0 km/h
428 29-08-2010 13:32:02 16.4 C 8.37 g/m*3 16.4 C 0 km/h
429 29-08-2010 13:44:02 15.3 C 8.62 g/m*3 15.3 C 0 km/h
430 29-08-2010 13:56:02 14.7 C 8.94 g/m*3 14.7 C 0 km/h
431 29-08-2010 14:08:01 15.2 C 8.83 g/m*3 15.2 C 0 km/h
432 29-08-2010 14:20:02 16.4 C 8.51 g/m*3 16.4 C 0 km/h
433 29-08-2010 14:32:02 17 C 7.96 g/m*3 17 C 0 km/h
434 29-08-2010 14:44:02 17.1 C 8.3 g/m*3 17.1 C 0 km/h
435 29-08-2010 14:56:01 16.6 C 8.33 g/m*3 16.6 C 0 km/h
436 29-08-2010 15:08:01 15.7 C 8.3 g/m*3 15.7 C 0 km/h
437 29-08-2010 15:20:01 15.5 C 8.2 g/m*3 15.5 C 0 km/h
438 29-08-2010 15:32:02 14.2 C 8.91 g/m*3 14.2 C 0 km/h
439 29-08-2010 15:44:02 14.7 C 9.69 g/m*3 14.7 C 0 km/h
440 29-08-2010 15:56:02 15.3 C 9.4 g/m*3 15.3 C 0 km/h
441 29-08-2010 16:08:02 15.1 C 9.03 g/m*3 15.1 C 0 km/h
442 29-08-2010 16:20:02 15.5 C 8.99 g/m*3 15.5 C 0 km/h
443 29-08-2010 16:32:02 15.9 C 8.53 g/m*3 15.9 C 0 km/h
444 29-08-2010 16:44:03 16.2 C 8.14 g/m*3 16.2 C 0 km/h
445 29-08-2010 16:56:02 16.1 C 7.81 g/m*3 16.1 C 0 km/h
446 29-08-2010 17:08:02 15.9 C 7.85 g/m*3 15.9 C 0 km/h
447 29-08-2010 17:20:02 15.6 C 7.98 g/m*3 15.6 C 0 km/h
448 29-08-2010 17:32:02 15.2 C 8.18 g/m*3 15.2 C 0 km/h
449 29-08-2010 17:44:02 14.1 C 8.74 g/m*3 14.1 C 0 km/h
450 29-08-2010 17:56:02 14 C 8.68 g/m*3 14 C 0 km/h
Sensor: Nr:Datum:Temp:Abs-Feuchte:Windchill:Wind:
Aussen-T/F 451 29-08-2010 18:08:02 13.8 C 8.94 g/m*3 13.8 C 0 km/h
452 29-08-2010 18:20:01 13.4 C 9.3 g/m*3 13.4 C 0 km/h
453 29-08-2010 18:32:01 13.1 C 9.59 g/m*3 13.1 C 0 km/h
454 29-08-2010 18:44:01 12.7 C 9.46 g/m*3 12.7 C 0 km/h
455 29-08-2010 18:56:02 12.3 C 9.23 g/m*3 12.3 C 0 km/h
456 29-08-2010 19:08:02 12.2 C 9.28 g/m*3 12.2 C 0 km/h
457 29-08-2010 19:20:01 12.2 C 9.39 g/m*3 12.2 C 0 km/h
458 29-08-2010 19:32:02 12 C 9.38 g/m*3 12 C 0 km/h
459 29-08-2010 19:44:02 11.8 C 9.26 g/m*3 11.8 C 0 km/h
460 29-08-2010 19:56:02 11.8 C 9.16 g/m*3 11.8 C 0 km/h
461 29-08-2010 20:08:02 11.8 C 8.95 g/m*3 11.8 C 0 km/h
462 29-08-2010 20:20:03 11.8 C 8.95 g/m*3 11.8 C 0 km/h
463 29-08-2010 20:32:02 11.7 C 8.89 g/m*3 11.7 C 0 km/h
464 29-08-2010 20:44:02 11.7 C 8.99 g/m*3 11.7 C 0 km/h
465 29-08-2010 20:56:01 11.9 C 9 g/m*3 11.9 C 0 km/h
466 29-08-2010 21:08:01 12 C 8.95 g/m*3 12 C 0 km/h
467 29-08-2010 21:20:02 12.2 C 8.96 g/m*3 12.2 C 0 km/h
468 29-08-2010 21:32:01 12.3 C 9.01 g/m*3 12.3 C 0 km/h
469 29-08-2010 21:44:01 12 C 8.95 g/m*3 12 C 0 km/h
470 29-08-2010 21:56:02 9.7 C 7.74 g/m*3 9.7 C 0 km/h
471 29-08-2010 22:09:03 9.3 C 7.82 g/m*3 9.3 C 0 km/h
472 29-08-2010 22:21:03 9.2 C 7.95 g/m*3 9.2 C 0 km/h
473 29-08-2010 22:33:03 9.2 C 8.04 g/m*3 9.2 C 0 km/h
474 29-08-2010 22:45:03 9.2 C 8.13 g/m*3 9.2 C 0 km/h
475 29-08-2010 22:57:03 9.1 C 8.16 g/m*3 9.1 C 0 km/h
Sensor: Nr:Datum:Temp:Abs-Feuchte:Windchill:Wind:
Aussen-T/F 476 29-08-2010 23:09:03 9 C 8.11 g/m*3 9 C 0 km/h
477 29-08-2010 23:21:03 9 C 8.11 g/m*3 9 C 0 km/h
478 29-08-2010 23:33:03 9 C 8.11 g/m*3 9 C 0 km/h
479 29-08-2010 23:45:03 9.3 C 8.27 g/m*3 9.3 C 0 km/h
480 29-08-2010 23:57:03 9.3 C 8.18 g/m*3 9.3 C 0 km/h
481 30-08-2010 00:09:03 9.1 C 7.99 g/m*3 9.1 C 0 km/h
482 30-08-2010 00:21:03 9.1 C 7.99 g/m*3 9.1 C 0 km/h
483 30-08-2010 00:33:03 9.1 C 7.99 g/m*3 9.1 C 0 km/h
484 30-08-2010 00:45:03 9.2 C 7.95 g/m*3 9.2 C 0 km/h
485 30-08-2010 00:57:03 9.5 C 8.01 g/m*3 9.5 C 0 km/h
486 30-08-2010 01:09:03 9.7 C 7.93 g/m*3 9.7 C 0 km/h
487 30-08-2010 01:21:03 9.8 C 7.89 g/m*3 9.8 C 0 km/h
488 30-08-2010 01:33:03 10 C 7.8 g/m*3 10 C 0 km/h
489 30-08-2010 01:45:04 10 C 7.8 g/m*3 10 C 0 km/h
490 30-08-2010 01:57:04 10.2 C 7.8 g/m*3 10.2 C 0 km/h
491 30-08-2010 02:09:04 10.1 C 7.75 g/m*3 10.1 C 0 km/h
492 30-08-2010 02:21:04 10.2 C 7.8 g/m*3 10.2 C 0 km/h
493 30-08-2010 02:33:04 10.5 C 7.86 g/m*3 10.5 C 0 km/h
494 30-08-2010 02:45:04 10.8 C 7.81 g/m*3 10.8 C 0 km/h
495 30-08-2010 02:57:04 11 C 7.61 g/m*3 11 C 0 km/h
496 30-08-2010 03:09:04 11.1 C 7.45 g/m*3 11.1 C 0 km/h
497 30-08-2010 03:21:04 11.2 C 7.5 g/m*3 11.2 C 0 km/h
498 30-08-2010 03:33:04 11 C 7.61 g/m*3 11 C 0 km/h
499 30-08-2010 03:45:04 10.5 C 7.76 g/m*3 10.5 C 0 km/h
500 30-08-2010 03:57:04 10.3 C 7.95 g/m*3 10.3 C 0 km/h
Sensor: Nr:Datum:Temp:Abs-Feuchte:Windchill:Wind:
Aussen-T/F 501 30-08-2010 04:09:04 10.3 C 8.04 g/m*3 10.3 C 0 km/h
502 30-08-2010 04:21:04 10.3 C 8.04 g/m*3 10.3 C 0 km/h
503 30-08-2010 04:33:04 10.3 C 8.04 g/m*3 10.3 C 0 km/h
504 30-08-2010 04:45:04 10.2 C 7.99 g/m*3 10.2 C 0 km/h
505 30-08-2010 04:57:04 10.2 C 7.8 g/m*3 10.2 C 0 km/h
506 30-08-2010 05:09:04 9.8 C 7.7 g/m*3 9.8 C 0 km/h
507 30-08-2010 05:21:04 9.6 C 7.79 g/m*3 9.6 C 0 km/h
508 30-08-2010 05:33:04 9.3 C 7.91 g/m*3 9.3 C 0 km/h
509 30-08-2010 05:45:05 9.6 C 8.24 g/m*3 9.6 C 0 km/h
510 30-08-2010 05:57:05 9.8 C 8.44 g/m*3 9.8 C 0 km/h
511 30-08-2010 06:09:05 9.9 C 8.5 g/m*3 9.9 C 0 km/h
512 30-08-2010 06:21:05 10 C 8.46 g/m*3 10 C 0 km/h
513 30-08-2010 06:33:05 10.1 C 8.51 g/m*3 10.1 C 0 km/h
514 30-08-2010 06:45:05 10.1 C 8.42 g/m*3 10.1 C 0 km/h
515 30-08-2010 06:57:05 10.2 C 8.47 g/m*3 10.2 C 0 km/h
516 30-08-2010 07:09:05 10.1 C 8.42 g/m*3 10.1 C 0 km/h
517 30-08-2010 07:21:05 9.9 C 8.4 g/m*3 9.9 C 0 km/h
518 30-08-2010 07:33:05 9.8 C 8.35 g/m*3 9.8 C 0 km/h
519 30-08-2010 07:45:05 9.9 C 8.4 g/m*3 9.9 C 0 km/h
520 30-08-2010 07:57:05 10.1 C 8.42 g/m*3 10.1 C 0 km/h
521 30-08-2010 08:09:05 10.1 C 8.42 g/m*3 10.1 C 0 km/h
522 30-08-2010 08:21:02 10.7 C 8.74 g/m*3 10.7 C 0 km/h
523 30-08-2010 08:33:02 11 C 8.71 g/m*3 11 C 0 km/h
524 30-08-2010 08:45:01 11.2 C 8.72 g/m*3 11.2 C 0 km/h
525 30-08-2010 08:57:01 11.1 C 8.56 g/m*3 11.1 C 0 km/h
Sensor: Nr:Datum:Temp:Abs-Feuchte:Windchill:Wind:
Aussen-T/F 526 30-08-2010 09:09:01 11.2 C 8.62 g/m*3 11.2 C 0 km/h
527 30-08-2010 09:21:01 10.8 C 8.4 g/m*3 10.8 C 0 km/h
528 30-08-2010 09:33:01 10.8 C 8.6 g/m*3 10.8 C 0 km/h
529 30-08-2010 09:45:01 11 C 8.71 g/m*3 11 C 0 km/h
530 30-08-2010 09:57:01 11.1 C 8.86 g/m*3 11.1 C 0 km/h
531 30-08-2010 10:09:01 11 C 8.61 g/m*3 11 C 0 km/h
532 30-08-2010 10:21:02 11.5 C 8.88 g/m*3 11.5 C 0 km/h
533 30-08-2010 10:33:01 11.9 C 8.9 g/m*3 11.9 C 0 km/h
534 30-08-2010 10:45:02 12.4 C 8.96 g/m*3 12.4 C 0 km/h
535 30-08-2010 10:57:02 12.5 C 8.8 g/m*3 12.5 C 0 km/h
536 30-08-2010 11:09:03 12.6 C 8.96 g/m*3 12.6 C 0 km/h
537 30-08-2010 11:21:02 12.7 C 8.13 g/m*3 12.7 C 0 km/h
538 30-08-2010 11:33:02 13.1 C 8.1 g/m*3 13.1 C 0 km/h
539 30-08-2010 11:45:02 13.1 C 8.1 g/m*3 13.1 C 0 km/h
540 30-08-2010 11:57:02 13.5 C 8.3 g/m*3 13.5 C 0 km/h
541 30-08-2010 12:09:01 13.8 C 8.22 g/m*3 13.8 C 0 km/h
542 30-08-2010 12:21:02 13.4 C 7.9 g/m*3 13.4 C 0 km/h
543 30-08-2010 12:33:01 13.8 C 8.22 g/m*3 13.8 C 0 km/h
544 30-08-2010 12:45:02 14.5 C 6.96 g/m*3 14.5 C 0 km/h
545 30-08-2010 12:57:02 14.6 C 6.76 g/m*3 14.6 C 0 km/h
546 30-08-2010 13:09:01 15.5 C 6.74 g/m*3 15.5 C 0 km/h
547 30-08-2010 13:21:01 16 C 6.81 g/m*3 16 C 0 km/h
548 30-08-2010 13:33:01 16.3 C 6.52 g/m*3 16.3 C 0 km/h
549 30-08-2010 13:45:02 16.2 C 6.76 g/m*3 16.2 C 0 km/h
550 30-08-2010 13:57:02 16.2 C 7.03 g/m*3 16.2 C 0 km/h
Sensor: Nr:Datum:Temp:Abs-Feuchte:Windchill:Wind:
Aussen-T/F 551 30-08-2010 14:09:01 15.7 C 7.36 g/m*3 15.7 C 0 km/h
552 30-08-2010 14:21:02 15.6 C 7.85 g/m*3 15.6 C 0 km/h
553 30-08-2010 14:33:02 16.6 C 7.91 g/m*3 16.6 C 0 km/h
554 30-08-2010 14:45:02 16.7 C 7.67 g/m*3 16.7 C 0 km/h
555 30-08-2010 14:57:02 16.8 C 7.86 g/m*3 16.8 C 0 km/h
556 30-08-2010 15:09:03 17.3 C 8.25 g/m*3 17.3 C 0 km/h
557 30-08-2010 15:21:02 17.7 C 7.85 g/m*3 17.7 C 0 km/h
558 30-08-2010 15:33:02 17.3 C 7.66 g/m*3 17.3 C 0 km/h
559 30-08-2010 15:45:01 17.7 C 7.54 g/m*3 17.7 C 0 km/h
560 30-08-2010 15:57:01 17.4 C 7.71 g/m*3 17.4 C 0 km/h
561 30-08-2010 16:09:02 16.9 C 7.77 g/m*3 16.9 C 0 km/h
562 30-08-2010 16:21:01 15.8 C 8.88 g/m*3 15.8 C 0 km/h
563 30-08-2010 16:33:02 14.8 C 9.37 g/m*3 14.8 C 0 km/h
564 30-08-2010 16:45:02 15.5 C 9.78 g/m*3 15.5 C 0 km/h
565 30-08-2010 16:57:02 16.3 C 9.85 g/m*3 16.3 C 0 km/h
566 30-08-2010 17:09:02 15.8 C 9.42 g/m*3 15.8 C 0 km/h
567 30-08-2010 17:21:01 15 C 9.49 g/m*3 15 C 0 km/h
568 30-08-2010 17:33:02 14.8 C 9.5 g/m*3 14.8 C 0 km/h
569 30-08-2010 17:45:01 14.7 C 8.81 g/m*3 14.7 C 0 km/h
570 30-08-2010 17:57:01 14.9 C 8.92 g/m*3 14.9 C 0 km/h
571 30-08-2010 18:09:02 14.7 C 8.69 g/m*3 14.7 C 0 km/h
572 30-08-2010 18:21:01 14.6 C 8.76 g/m*3 14.6 C 0 km/h
573 30-08-2010 18:33:02 14.3 C 8.6 g/m*3 14.3 C 0 km/h
574 30-08-2010 18:45:01 14.1 C 8.74 g/m*3 14.1 C 0 km/h
575 30-08-2010 18:57:01 13.9 C 8.99 g/m*3 13.9 C 0 km/h
Sensor: Nr:Datum:Temp:Abs-Feuchte:Windchill:Wind:
Aussen-T/F 576 30-08-2010 19:09:02 13.9 C 8.99 g/m*3 13.9 C 0 km/h
577 30-08-2010 19:21:02 13.9 C 9.23 g/m*3 13.9 C 0 km/h
578 30-08-2010 19:33:01 14.1 C 9.22 g/m*3 14.1 C 0 km/h
579 30-08-2010 19:45:02 14.2 C 8.91 g/m*3 14.2 C 0 km/h
580 30-08-2010 19:57:02 14.1 C 8.5 g/m*3 14.1 C 0 km/h
581 30-08-2010 20:09:01 13.9 C 8.51 g/m*3 13.9 C 0 km/h
582 30-08-2010 20:21:02 13.9 C 8.51 g/m*3 13.9 C 0 km/h
583 30-08-2010 20:33:01 14 C 8.56 g/m*3 14 C 0 km/h
584 30-08-2010 20:45:02 13.8 C 8.94 g/m*3 13.8 C 0 km/h
585 30-08-2010 20:57:02 13.2 C 9.07 g/m*3 13.2 C 0 km/h
586 30-08-2010 21:09:02 13.1 C 9.36 g/m*3 13.1 C 0 km/h
587 30-08-2010 21:21:01 12.9 C 9.58 g/m*3 12.9 C 0 km/h
588 30-08-2010 21:33:01 12.7 C 9.68 g/m*3 12.7 C 0 km/h
589 30-08-2010 21:45:02 12.4 C 9.51 g/m*3 12.4 C 0 km/h
590 30-08-2010 21:57:02 12.5 C 9.68 g/m*3 12.5 C 0 km/h
591 30-08-2010 22:09:02 12.8 C 9.97 g/m*3 12.8 C 0 km/h
592 30-08-2010 22:21:02 12.8 C 9.97 g/m*3 12.8 C 0 km/h
593 30-08-2010 22:33:02 12.7 C 9.91 g/m*3 12.7 C 0 km/h
594 30-08-2010 22:45:02 12.7 C 9.91 g/m*3 12.7 C 0 km/h
595 30-08-2010 22:57:02 12.6 C 9.85 g/m*3 12.6 C 0 km/h
596 30-08-2010 23:10:03 12.4 C 9.72 g/m*3 12.4 C 0 km/h
597 30-08-2010 23:22:03 12.4 C 9.72 g/m*3 12.4 C 0 km/h
598 30-08-2010 23:34:03 12.4 C 9.83 g/m*3 12.4 C 0 km/h
599 30-08-2010 23:46:03 12.2 C 9.6 g/m*3 12.2 C 0 km/h
600 30-08-2010 23:58:03 12.1 C 9.54 g/m*3 12.1 C 0 km/h
Sensor: Nr:Datum:Temp:Abs-Feuchte:Windchill:Wind:
Aussen-T/F 601 31-08-2010 00:10:03 12 C 9.48 g/m*3 12 C 0 km/h
602 31-08-2010 00:22:03 12.1 C 9.54 g/m*3 12.1 C 0 km/h
603 31-08-2010 00:34:03 12.2 C 9.6 g/m*3 12.2 C 0 km/h
604 31-08-2010 00:46:03 12.4 C 9.72 g/m*3 12.4 C 0 km/h
605 31-08-2010 00:58:03 12.4 C 9.72 g/m*3 12.4 C 0 km/h
606 31-08-2010 01:10:03 12.5 C 9.68 g/m*3 12.5 C 0 km/h
607 31-08-2010 01:22:03 12.6 C 9.62 g/m*3 12.6 C 0 km/h
608 31-08-2010 01:34:03 12.5 C 9.46 g/m*3 12.5 C 0 km/h
609 31-08-2010 01:46:03 12.4 C 9.4 g/m*3 12.4 C 0 km/h
610 31-08-2010 01:58:03 12.1 C 9.12 g/m*3 12.1 C 0 km/h
611 31-08-2010 02:10:03 12.2 C 9.28 g/m*3 12.2 C 0 km/h
612 31-08-2010 02:22:03 12.4 C 9.4 g/m*3 12.4 C 0 km/h
613 31-08-2010 02:34:03 12.4 C 9.29 g/m*3 12.4 C 0 km/h
614 31-08-2010 02:46:03 12.4 C 9.29 g/m*3 12.4 C 0 km/h
615 31-08-2010 02:58:04 12.4 C 9.29 g/m*3 12.4 C 0 km/h
616 31-08-2010 03:10:04 12.3 C 9.12 g/m*3 12.3 C 0 km/h
617 31-08-2010 03:22:04 12.3 C 9.12 g/m*3 12.3 C 0 km/h
618 31-08-2010 03:34:04 12 C 8.95 g/m*3 12 C 0 km/h
619 31-08-2010 03:46:04 11.9 C 9.11 g/m*3 11.9 C 0 km/h
620 31-08-2010 03:58:04 12 C 9.06 g/m*3 12 C 0 km/h
621 31-08-2010 04:10:04 11.5 C 8.88 g/m*3 11.5 C 0 km/h
622 31-08-2010 04:22:04 11.3 C 8.87 g/m*3 11.3 C 0 km/h
623 31-08-2010 04:34:04 11.4 C 9.03 g/m*3 11.4 C 0 km/h
624 31-08-2010 04:46:04 11.6 C 9.15 g/m*3 11.6 C 0 km/h
625 31-08-2010 04:58:04 11.8 C 9.37 g/m*3 11.8 C 0 km/h
Sensor: Nr:Datum:Temp:Abs-Feuchte:Windchill:Wind:
Aussen-T/F 626 31-08-2010 05:10:04 11.8 C 9.26 g/m*3 11.8 C 0 km/h
627 31-08-2010 05:22:04 11.5 C 9.09 g/m*3 11.5 C 0 km/h
628 31-08-2010 05:34:04 11.2 C 8.92 g/m*3 11.2 C 0 km/h
629 31-08-2010 05:46:04 11.1 C 8.86 g/m*3 11.1 C 0 km/h
630 31-08-2010 05:58:04 11.3 C 9.08 g/m*3 11.3 C 0 km/h
631 31-08-2010 06:10:04 11.4 C 9.14 g/m*3 11.4 C 0 km/h
632 31-08-2010 06:22:04 11.5 C 9.19 g/m*3 11.5 C 0 km/h
633 31-08-2010 06:34:04 11.7 C 9.31 g/m*3 11.7 C 0 km/h
634 31-08-2010 06:46:02 11.9 C 9.32 g/m*3 11.9 C 0 km/h
635 31-08-2010 06:58:02 12 C 9.17 g/m*3 12 C 0 km/h
636 31-08-2010 07:10:02 12.1 C 9.12 g/m*3 12.1 C 0 km/h
637 31-08-2010 07:22:03 12.1 C 9.12 g/m*3 12.1 C 0 km/h
638 31-08-2010 07:34:02 12.2 C 9.06 g/m*3 12.2 C 0 km/h
639 31-08-2010 07:46:02 12.2 C 9.06 g/m*3 12.2 C 0 km/h
640 31-08-2010 07:58:02 12.4 C 9.07 g/m*3 12.4 C 0 km/h
641 31-08-2010 08:10:02 12.5 C 9.02 g/m*3 12.5 C 0 km/h
642 31-08-2010 08:22:02 12.5 C 9.02 g/m*3 12.5 C 0 km/h
643 31-08-2010 08:34:02 12.6 C 9.07 g/m*3 12.6 C 0 km/h
644 31-08-2010 08:46:02 12.7 C 9.13 g/m*3 12.7 C 0 km/h
645 31-08-2010 08:58:02 12.9 C 9.13 g/m*3 12.9 C 0 km/h
646 31-08-2010 09:10:02 13.2 C 9.07 g/m*3 13.2 C 0 km/h
647 31-08-2010 09:22:02 13.4 C 8.95 g/m*3 13.4 C 0 km/h
648 31-08-2010 09:34:02 13.6 C 8.94 g/m*3 13.6 C 0 km/h
649 31-08-2010 09:46:02 13.7 C 8.76 g/m*3 13.7 C 0 km/h
650 31-08-2010 09:58:02 14 C 8.56 g/m*3 14 C 0 km/h
Sensor: Nr:Datum:Temp:Abs-Feuchte:Windchill:Wind:
Aussen-T/F 651 31-08-2010 10:10:02 14.1 C 8.5 g/m*3 14.1 C 0 km/h
652 31-08-2010 10:22:03 14 C 8.2 g/m*3 14 C 0 km/h
653 31-08-2010 10:34:02 14 C 8.32 g/m*3 14 C 0 km/h
654 31-08-2010 10:46:03 14.2 C 8.3 g/m*3 14.2 C 0 km/h
655 31-08-2010 10:58:03 14.4 C 8.41 g/m*3 14.4 C 0 km/h
656 31-08-2010 11:10:02 14.8 C 8.23 g/m*3 14.8 C 0 km/h
657 31-08-2010 11:22:02 15.1 C 8.13 g/m*3 15.1 C 0 km/h
658 31-08-2010 11:34:02 15.6 C 8.11 g/m*3 15.6 C 0 km/h
659 31-08-2010 11:46:02 16.1 C 8.09 g/m*3 16.1 C 0 km/h
660 31-08-2010 11:58:02 16.4 C 7.82 g/m*3 16.4 C 0 km/h
661 31-08-2010 12:10:02 16.8 C 7.86 g/m*3 16.8 C 0 km/h
662 31-08-2010 12:22:02 16.3 C 7.91 g/m*3 16.3 C 0 km/h
663 31-08-2010 12:34:01 16.9 C 8.2 g/m*3 16.9 C 0 km/h
664 31-08-2010 12:46:02 16.7 C 7.82 g/m*3 16.7 C 0 km/h
665 31-08-2010 12:58:03 17.7 C 7.85 g/m*3 17.7 C 0 km/h
666 31-08-2010 13:10:01 17.3 C 7.37 g/m*3 17.3 C 0 km/h
667 31-08-2010 13:22:01 17.5 C 6.86 g/m*3 17.5 C 0 km/h
668 31-08-2010 13:34:02 18.2 C 6.84 g/m*3 18.2 C 0 km/h
669 31-08-2010 13:46:02 18.3 C 7.04 g/m*3 18.3 C 0 km/h
670 31-08-2010 13:58:02 18.5 C 6.8 g/m*3 18.5 C 0 km/h
671 31-08-2010 14:10:02 19.2 C 6.76 g/m*3 19.2 C 0 km/h
672 31-08-2010 14:22:02 19.9 C 6.7 g/m*3 19.9 C 0 km/h
673 31-08-2010 14:34:02 20.3 C 6.51 g/m*3 20.3 C 0 km/h
674 31-08-2010 14:46:02 20.8 C 6.34 g/m*3 20.8 C 0 km/h
675 31-08-2010 14:58:02 20.6 C 5.91 g/m*3 20.6 C 0 km/h
Sensor: Nr:Datum:Temp:Abs-Feuchte:Windchill:Wind:
Aussen-T/F 676 31-08-2010 15:10:02 20.4 C 6.19 g/m*3 20.4 C 0 km/h
677 31-08-2010 15:22:02 20.1 C 6.26 g/m*3 20.1 C 0 km/h
678 31-08-2010 15:34:02 21.4 C 5.62 g/m*3 21.4 C 0 km/h
679 31-08-2010 15:46:02 22 C 5.43 g/m*3 22 C 0 km/h
680 31-08-2010 15:58:02 22.1 C 5.66 g/m*3 22.1 C 0 km/h
681 31-08-2010 16:10:02 21.4 C 5.81 g/m*3 21.4 C 0 km/h
682 31-08-2010 16:22:02 21.1 C 5.9 g/m*3 21.1 C 0 km/h
683 31-08-2010 16:34:02 22.6 C 5.42 g/m*3 22.6 C 0 km/h
684 31-08-2010 16:46:02 21.3 C 5.59 g/m*3 21.3 C 0 km/h
685 31-08-2010 16:58:02 20.9 C 5.46 g/m*3 20.9 C 0 km/h
686 31-08-2010 17:10:02 22.8 C 5.08 g/m*3 22.8 C 0 km/h
687 31-08-2010 17:22:03 20.9 C 5.83 g/m*3 20.9 C 0 km/h
688 31-08-2010 17:34:02 21.8 C 5.56 g/m*3 21.8 C 0 km/h
689 31-08-2010 17:46:02 21.6 C 5.69 g/m*3 21.6 C 0 km/h
690 31-08-2010 17:58:02 22 C 5.63 g/m*3 22 C 0 km/h
691 31-08-2010 18:10:02 22.7 C 5.66 g/m*3 22.7 C 0 km/h
692 31-08-2010 18:22:02 22.3 C 5.33 g/m*3 22.3 C 0 km/h
693 31-08-2010 18:34:02 22.1 C 5.47 g/m*3 22.1 C 0 km/h
694 31-08-2010 18:46:02 22.1 C 5.86 g/m*3 22.1 C 0 km/h
695 31-08-2010 18:58:02 22.1 C 6.05 g/m*3 22.1 C 0 km/h
696 31-08-2010 19:10:01 21.7 C 6.1 g/m*3 21.7 C 0 km/h
697 31-08-2010 19:22:02 20.5 C 5.69 g/m*3 20.5 C 0 km/h
698 31-08-2010 19:34:02 20.4 C 6.55 g/m*3 20.4 C 0 km/h
699 31-08-2010 19:46:02 20 C 6.91 g/m*3 20 C 0 km/h
700 31-08-2010 19:58:03 19 C 7.33 g/m*3 19 C 0 km/h
Sensor: Nr:Datum:Temp:Abs-Feuchte:Windchill:Wind:
Aussen-T/F 701 31-08-2010 20:10:01 17.9 C 7.18 g/m*3 17.9 C 0 km/h
702 31-08-2010 20:22:01 16.9 C 7.19 g/m*3 16.9 C 0 km/h
703 31-08-2010 20:34:02 16.2 C 7.17 g/m*3 16.2 C 0 km/h
704 31-08-2010 20:46:02 15.7 C 7.09 g/m*3 15.7 C 0 km/h
705 31-08-2010 20:58:02 15.2 C 7.14 g/m*3 15.2 C 0 km/h
706 31-08-2010 21:10:02 14.9 C 7.39 g/m*3 14.9 C 0 km/h
707 31-08-2010 21:22:02 14.7 C 7.43 g/m*3 14.7 C 0 km/h
708 31-08-2010 21:34:02 14.5 C 7.59 g/m*3 14.5 C 0 km/h
709 31-08-2010 21:47:09 14.2 C 7.69 g/m*3 14.2 C 0 km/h
710 31-08-2010 21:59:09 13.9 C 7.91 g/m*3 13.9 C 0 km/h
711 31-08-2010 22:11:09 13.8 C 8.22 g/m*3 13.8 C 0 km/h
712 31-08-2010 22:23:09 13.5 C 8.07 g/m*3 13.5 C 0 km/h
713 31-08-2010 22:35:09 13.2 C 8.04 g/m*3 13.2 C 0 km/h
714 31-08-2010 22:47:09 13 C 8.05 g/m*3 13 C 0 km/h
715 31-08-2010 22:59:09 12.7 C 8.13 g/m*3 12.7 C 0 km/h
716 31-08-2010 23:11:09 12.5 C 8.14 g/m*3 12.5 C 0 km/h
717 31-08-2010 23:23:09 12.4 C 8.19 g/m*3 12.4 C 0 km/h
718 31-08-2010 23:35:09 12.4 C 8.09 g/m*3 12.4 C 0 km/h
719 31-08-2010 23:47:09 12.2 C 7.99 g/m*3 12.2 C 0 km/h
720 31-08-2010 23:59:09 12.1 C 8.04 g/m*3 12.1 C 0 km/h
721 01-09-2010 00:11:09 12 C 8.1 g/m*3 12 C 0 km/h
722 01-09-2010 00:23:09 11.8 C 8.1 g/m*3 11.8 C 0 km/h
723 01-09-2010 00:35:09 11.6 C 8.11 g/m*3 11.6 C 0 km/h
724 01-09-2010 00:47:10 11.3 C 8.06 g/m*3 11.3 C 0 km/h
725 01-09-2010 00:59:10 11.2 C 8.01 g/m*3 11.2 C 0 km/h
Sensor: Nr:Datum:Temp:Abs-Feuchte:Windchill:Wind:
Aussen-T/F 726 01-09-2010 01:11:10 11.2 C 8.11 g/m*3 11.2 C 0 km/h
727 01-09-2010 01:23:10 11.1 C 8.06 g/m*3 11.1 C 0 km/h
728 01-09-2010 01:35:10 11 C 8.11 g/m*3 11 C 0 km/h
729 01-09-2010 01:47:10 10.9 C 8.16 g/m*3 10.9 C 0 km/h
730 01-09-2010 01:59:10 10.7 C 8.05 g/m*3 10.7 C 0 km/h
731 01-09-2010 02:11:10 10.6 C 8 g/m*3 10.6 C 0 km/h
732 01-09-2010 02:23:10 10.5 C 7.95 g/m*3 10.5 C 0 km/h
733 01-09-2010 02:35:10 10.4 C 8 g/m*3 10.4 C 0 km/h
734 01-09-2010 02:47:10 10.2 C 7.9 g/m*3 10.2 C 0 km/h
735 01-09-2010 02:59:10 10.1 C 7.94 g/m*3 10.1 C 0 km/h
736 01-09-2010 03:11:10 10 C 7.89 g/m*3 10 C 0 km/h
737 01-09-2010 03:23:10 9.9 C 8.03 g/m*3 9.9 C 0 km/h
738 01-09-2010 03:35:10 9.8 C 8.07 g/m*3 9.8 C 0 km/h
739 01-09-2010 03:47:10 9.6 C 7.97 g/m*3 9.6 C 0 km/h
740 01-09-2010 03:59:10 9.4 C 7.87 g/m*3 9.4 C 0 km/h
741 01-09-2010 04:11:10 9.3 C 7.91 g/m*3 9.3 C 0 km/h
742 01-09-2010 04:23:10 9.2 C 7.86 g/m*3 9.2 C 0 km/h
743 01-09-2010 04:35:10 9.1 C 7.81 g/m*3 9.1 C 0 km/h
744 01-09-2010 04:47:10 9.1 C 7.9 g/m*3 9.1 C 0 km/h
745 01-09-2010 04:59:11 9 C 7.85 g/m*3 9 C 0 km/h
746 01-09-2010 05:11:11 8.9 C 7.88 g/m*3 8.9 C 0 km/h
747 01-09-2010 05:23:11 8.9 C 7.97 g/m*3 8.9 C 0 km/h
748 01-09-2010 05:35:11 8.9 C 7.97 g/m*3 8.9 C 0 km/h
749 01-09-2010 05:47:11 8.9 C 7.97 g/m*3 8.9 C 0 km/h
750 01-09-2010 05:59:11 9 C 7.93 g/m*3 9 C 0 km/h
Sensor: Nr:Datum:Temp:Abs-Feuchte:Windchill:Wind:
Aussen-T/F 751 01-09-2010 06:11:11 9 C 8.02 g/m*3 9 C 0 km/h
752 01-09-2010 06:23:11 8.9 C 8.06 g/m*3 8.9 C 0 km/h
753 01-09-2010 06:35:11 8.9 C 8.06 g/m*3 8.9 C 0 km/h
754 01-09-2010 06:47:11 9 C 8.02 g/m*3 9 C 0 km/h
755 01-09-2010 06:59:11 8.9 C 8.06 g/m*3 8.9 C 0 km/h
756 01-09-2010 07:11:03 9.1 C 8.07 g/m*3 9.1 C 0 km/h
757 01-09-2010 07:23:03 9.1 C 7.99 g/m*3 9.1 C 0 km/h
758 01-09-2010 07:35:02 9 C 7.93 g/m*3 9 C 0 km/h
759 01-09-2010 07:47:01 8.9 C 7.97 g/m*3 8.9 C 0 km/h
760 01-09-2010 07:59:01 9 C 7.93 g/m*3 9 C 0 km/h
761 01-09-2010 08:11:02 9 C 7.93 g/m*3 9 C 0 km/h
762 01-09-2010 08:23:02 9.1 C 7.99 g/m*3 9.1 C 0 km/h
763 01-09-2010 08:35:01 9.2 C 8.04 g/m*3 9.2 C 0 km/h
764 01-09-2010 08:47:02 9.3 C 8.09 g/m*3 9.3 C 0 km/h
765 01-09-2010 08:59:02 9.7 C 8.2 g/m*3 9.7 C 0 km/h
766 01-09-2010 09:11:02 9.8 C 8.16 g/m*3 9.8 C 0 km/h
767 01-09-2010 09:23:02 10 C 8.08 g/m*3 10 C 0 km/h
768 01-09-2010 09:35:02 10.2 C 8.09 g/m*3 10.2 C 0 km/h
769 01-09-2010 09:47:02 10.5 C 8.15 g/m*3 10.5 C 0 km/h
770 01-09-2010 09:59:02 10.6 C 8.2 g/m*3 10.6 C 0 km/h
771 01-09-2010 10:11:02 11.2 C 8.41 g/m*3 11.2 C 0 km/h
772 01-09-2010 10:23:01 11.7 C 8.58 g/m*3 11.7 C 0 km/h
773 01-09-2010 10:35:02 12.2 C 8.52 g/m*3 12.2 C 0 km/h
774 01-09-2010 10:47:01 12.4 C 8.52 g/m*3 12.4 C 0 km/h
775 01-09-2010 10:59:01 13 C 8.73 g/m*3 13 C 0 km/h
Sensor: Nr:Datum:Temp:Abs-Feuchte:Windchill:Wind:
Aussen-T/F 776 01-09-2010 11:11:02 13.4 C 8.72 g/m*3 13.4 C 0 km/h
777 01-09-2010 11:23:02 13.7 C 8.64 g/m*3 13.7 C 0 km/h
778 01-09-2010 11:35:02 14.1 C 8.74 g/m*3 14.1 C 0 km/h
779 01-09-2010 11:47:02 14.7 C 8.94 g/m*3 14.7 C 0 km/h
780 01-09-2010 11:59:02 15.4 C 8.8 g/m*3 15.4 C 0 km/h
781 01-09-2010 12:11:02 16 C 8.72 g/m*3 16 C 0 km/h
782 01-09-2010 12:23:02 16.9 C 8.63 g/m*3 16.9 C 0 km/h
783 01-09-2010 12:35:01 17.2 C 8.2 g/m*3 17.2 C 0 km/h
784 01-09-2010 12:47:02 17.8 C 8.5 g/m*3 17.8 C 0 km/h
785 01-09-2010 12:59:02 18.3 C 8.6 g/m*3 18.3 C 0 km/h
786 01-09-2010 13:11:01 18.7 C 8.33 g/m*3 18.7 C 0 km/h
787 01-09-2010 13:23:01 19.2 C 8.08 g/m*3 19.2 C 0 km/h
788 01-09-2010 13:35:02 19.7 C 7.81 g/m*3 19.7 C 0 km/h
789 01-09-2010 13:47:02 19.9 C 7.9 g/m*3 19.9 C 0 km/h
790 01-09-2010 13:59:02 20.1 C 7.65 g/m*3 20.1 C 0 km/h
791 01-09-2010 14:11:02 20.9 C 7.47 g/m*3 20.9 C 0 km/h
792 01-09-2010 14:23:02 20.1 C 6.95 g/m*3 20.1 C 0 km/h
793 01-09-2010 14:35:02 21 C 7.33 g/m*3 21 C 0 km/h
794 01-09-2010 14:47:02 21.7 C 6.87 g/m*3 21.7 C 0 km/h
795 01-09-2010 14:59:02 22.2 C 6.48 g/m*3 22.2 C 0 km/h
796 01-09-2010 15:11:03 22.6 C 6.43 g/m*3 22.6 C 0 km/h
797 01-09-2010 15:23:02 23.2 C 6.03 g/m*3 23.2 C 0 km/h
798 01-09-2010 15:35:02 23.5 C 5.71 g/m*3 23.5 C 0 km/h
799 01-09-2010 15:47:01 24.1 C 5.91 g/m*3 24.1 C 0 km/h
800 01-09-2010 15:59:01 24.6 C 5.85 g/m*3 24.6 C 0 km/h
Sensor: Nr:Datum:Temp:Abs-Feuchte:Windchill:Wind:
Aussen-T/F 801 01-09-2010 16:11:02 23.5 C 5.5 g/m*3 23.5 C 0 km/h
802 01-09-2010 16:23:01 24 C 5.87 g/m*3 24 C 0 km/h
803 01-09-2010 16:35:01 23.8 C 6.02 g/m*3 23.8 C 0 km/h
804 01-09-2010 16:47:01 23.8 C 6.45 g/m*3 23.8 C 0 km/h
805 01-09-2010 16:59:01 23.9 C 6.27 g/m*3 23.9 C 0 km/h
806 01-09-2010 17:11:02 23.1 C 6.2 g/m*3 23.1 C 0 km/h
807 01-09-2010 17:23:01 22.7 C 6.47 g/m*3 22.7 C 0 km/h
808 01-09-2010 17:35:01 22.1 C 6.05 g/m*3 22.1 C 0 km/h
809 01-09-2010 17:47:01 21.3 C 6.52 g/m*3 21.3 C 0 km/h
810 01-09-2010 17:59:01 21 C 6.59 g/m*3 21 C 0 km/h
811 01-09-2010 18:11:01 20.7 C 7.02 g/m*3 20.7 C 0 km/h
812 01-09-2010 18:23:02 20.3 C 6.86 g/m*3 20.3 C 0 km/h
813 01-09-2010 18:35:01 21.6 C 7.02 g/m*3 21.6 C 0 km/h
814 01-09-2010 18:47:02 22.1 C 6.83 g/m*3 22.1 C 0 km/h
815 01-09-2010 18:59:02 20.8 C 7.06 g/m*3 20.8 C 0 km/h
816 01-09-2010 19:11:01 20.7 C 7.38 g/m*3 20.7 C 0 km/h
817 01-09-2010 19:23:02 20.3 C 7.56 g/m*3 20.3 C 0 km/h
818 01-09-2010 19:35:01 19.6 C 7.77 g/m*3 19.6 C 0 km/h
819 01-09-2010 19:47:02 19.1 C 8.03 g/m*3 19.1 C 0 km/h
820 01-09-2010 19:59:02 18.4 C 8.49 g/m*3 18.4 C 0 km/h
821 01-09-2010 20:11:02 18 C 8.45 g/m*3 18 C 0 km/h
822 01-09-2010 20:23:02 17.6 C 8.7 g/m*3 17.6 C 0 km/h
823 01-09-2010 20:35:03 17.3 C 8.84 g/m*3 17.3 C 0 km/h
824 01-09-2010 20:47:02 17.1 C 8.73 g/m*3 17.1 C 0 km/h
825 01-09-2010 20:59:02 16.8 C 8.86 g/m*3 16.8 C 0 km/h
Sensor: Nr:Datum:Temp:Abs-Feuchte:Windchill:Wind:
Aussen-T/F 826 01-09-2010 21:11:01 16.6 C 8.9 g/m*3 16.6 C 0 km/h
827 01-09-2010 21:23:02 16.5 C 8.85 g/m*3 16.5 C 0 km/h
828 01-09-2010 21:35:02 16.3 C 8.88 g/m*3 16.3 C 0 km/h
829 01-09-2010 21:47:02 16 C 8.72 g/m*3 16 C 0 km/h
830 01-09-2010 21:59:02 15.8 C 8.88 g/m*3 15.8 C 0 km/h
831 01-09-2010 22:12:03 15.8 C 8.88 g/m*3 15.8 C 0 km/h
832 01-09-2010 22:24:03 15.6 C 8.78 g/m*3 15.6 C 0 km/h
833 01-09-2010 22:36:03 15.5 C 8.86 g/m*3 15.5 C 0 km/h
834 01-09-2010 22:48:03 15.3 C 8.75 g/m*3 15.3 C 0 km/h
835 01-09-2010 23:00:03 15 C 8.59 g/m*3 15 C 0 km/h
836 01-09-2010 23:12:03 14.6 C 8.38 g/m*3 14.6 C 0 km/h
837 01-09-2010 23:24:03 14.1 C 8.13 g/m*3 14.1 C 0 km/h
838 01-09-2010 23:36:03 13.6 C 8.12 g/m*3 13.6 C 0 km/h
839 01-09-2010 23:48:03 13.5 C 8.19 g/m*3 13.5 C 0 km/h
840 02-09-2010 00:00:04 13.3 C 8.2 g/m*3 13.3 C 0 km/h
841 02-09-2010 00:12:04 13.1 C 8.1 g/m*3 13.1 C 0 km/h
842 02-09-2010 00:24:04 13 C 8.17 g/m*3 13 C 0 km/h
843 02-09-2010 00:36:04 12.9 C 8.34 g/m*3 12.9 C 0 km/h
844 02-09-2010 00:48:04 12.8 C 8.29 g/m*3 12.8 C 0 km/h
845 02-09-2010 01:00:04 12.6 C 8.3 g/m*3 12.6 C 0 km/h
846 02-09-2010 01:12:04 12.5 C 8.36 g/m*3 12.5 C 0 km/h
847 02-09-2010 01:24:04 12.3 C 8.36 g/m*3 12.3 C 0 km/h
848 02-09-2010 01:36:04 12.1 C 8.26 g/m*3 12.1 C 0 km/h
849 02-09-2010 01:48:04 12.1 C 8.58 g/m*3 12.1 C 0 km/h
850 02-09-2010 02:00:04 11.9 C 8.58 g/m*3 11.9 C 0 km/h
Sensor: Nr:Datum:Temp:Abs-Feuchte:Windchill:Wind:
Aussen-T/F 851 02-09-2010 02:12:04 11.7 C 8.58 g/m*3 11.7 C 0 km/h
852 02-09-2010 02:24:04 11.6 C 8.63 g/m*3 11.6 C 0 km/h
853 02-09-2010 02:36:04 11.5 C 8.57 g/m*3 11.5 C 0 km/h
854 02-09-2010 02:48:04 11.3 C 8.47 g/m*3 11.3 C 0 km/h
855 02-09-2010 03:00:04 11.2 C 8.41 g/m*3 11.2 C 0 km/h
856 02-09-2010 03:12:04 11.1 C 8.36 g/m*3 11.1 C 0 km/h
857 02-09-2010 03:24:04 11 C 8.31 g/m*3 11 C 0 km/h
858 02-09-2010 03:36:04 10.9 C 8.26 g/m*3 10.9 C 0 km/h
859 02-09-2010 03:48:04 10.8 C 8.2 g/m*3 10.8 C 0 km/h
860 02-09-2010 04:00:04 10.7 C 8.25 g/m*3 10.7 C 0 km/h
861 02-09-2010 04:12:05 10.5 C 8.24 g/m*3 10.5 C 0 km/h
862 02-09-2010 04:24:05 10.4 C 8.29 g/m*3 10.4 C 0 km/h
863 02-09-2010 04:36:05 10.3 C 8.33 g/m*3 10.3 C 0 km/h
864 02-09-2010 04:48:05 10.3 C 8.33 g/m*3 10.3 C 0 km/h
865 02-09-2010 05:00:05 10.3 C 8.43 g/m*3 10.3 C 0 km/h
866 02-09-2010 05:12:05 10.3 C 8.43 g/m*3 10.3 C 0 km/h
867 02-09-2010 05:24:05 10.3 C 8.52 g/m*3 10.3 C 0 km/h
868 02-09-2010 05:36:05 10.3 C 8.52 g/m*3 10.3 C 0 km/h
869 02-09-2010 05:48:05 10.4 C 8.58 g/m*3 10.4 C 0 km/h
870 02-09-2010 06:00:05 10.3 C 8.52 g/m*3 10.3 C 0 km/h
871 02-09-2010 06:12:05 10.3 C 8.52 g/m*3 10.3 C 0 km/h
872 02-09-2010 06:24:05 10.3 C 8.62 g/m*3 10.3 C 0 km/h
873 02-09-2010 06:36:03 10.4 C 8.67 g/m*3 10.4 C 0 km/h
874 02-09-2010 06:48:01 10.4 C 8.67 g/m*3 10.4 C 0 km/h
875 02-09-2010 07:00:01 10.4 C 8.67 g/m*3 10.4 C 0 km/h
Sensor: Nr:Datum:Temp:Abs-Feuchte:Windchill:Wind:
Aussen-T/F 876 02-09-2010 07:12:02 10.5 C 8.73 g/m*3 10.5 C 0 km/h
877 02-09-2010 07:24:01 10.7 C 8.84 g/m*3 10.7 C 0 km/h
878 02-09-2010 07:36:01 10.9 C 8.95 g/m*3 10.9 C 0 km/h
879 02-09-2010 07:48:01 10.9 C 8.85 g/m*3 10.9 C 0 km/h
880 02-09-2010 08:00:01 11 C 8.81 g/m*3 11 C 0 km/h
881 02-09-2010 08:12:02 11.3 C 8.98 g/m*3 11.3 C 0 km/h
882 02-09-2010 08:24:02 11.3 C 8.98 g/m*3 11.3 C 0 km/h
883 02-09-2010 08:36:01 11.4 C 8.93 g/m*3 11.4 C 0 km/h
884 02-09-2010 08:48:02 11.7 C 9.1 g/m*3 11.7 C 0 km/h
885 02-09-2010 09:00:03 11.7 C 8.99 g/m*3 11.7 C 0 km/h
886 02-09-2010 09:12:02 12 C 8.95 g/m*3 12 C 0 km/h
887 02-09-2010 09:24:02 12.5 C 9.13 g/m*3 12.5 C 0 km/h
888 02-09-2010 09:36:02 12.8 C 9.07 g/m*3 12.8 C 0 km/h
889 02-09-2010 09:48:01 13 C 8.73 g/m*3 13 C 0 km/h
890 02-09-2010 10:00:01 13.5 C 8.77 g/m*3 13.5 C 0 km/h
891 02-09-2010 10:12:02 13.9 C 8.75 g/m*3 13.9 C 0 km/h
892 02-09-2010 10:24:01 14.1 C 8.62 g/m*3 14.1 C 0 km/h
893 02-09-2010 10:36:01 14.3 C 8.6 g/m*3 14.3 C 0 km/h
894 02-09-2010 10:48:02 14.3 C 8.48 g/m*3 14.3 C 0 km/h
895 02-09-2010 11:00:02 14.4 C 8.65 g/m*3 14.4 C 0 km/h
896 02-09-2010 11:12:02 14.8 C 9.12 g/m*3 14.8 C 0 km/h
897 02-09-2010 11:24:01 15.3 C 9.14 g/m*3 15.3 C 0 km/h
898 02-09-2010 11:36:02 16 C 8.99 g/m*3 16 C 0 km/h
899 02-09-2010 11:48:01 16.8 C 9.15 g/m*3 16.8 C 0 km/h
900 02-09-2010 12:00:01 17.5 C 9.24 g/m*3 17.5 C 0 km/h
Sensor: Nr:Datum:Temp:Abs-Feuchte:Windchill:Wind:
Aussen-T/F 901 02-09-2010 12:12:02 18.1 C 9.12 g/m*3 18.1 C 0 km/h
902 02-09-2010 12:24:02 18.5 C 8.86 g/m*3 18.5 C 0 km/h
903 02-09-2010 12:36:01 19.2 C 8.41 g/m*3 19.2 C 0 km/h
904 02-09-2010 12:48:02 20 C 7.95 g/m*3 20 C 0 km/h
905 02-09-2010 13:00:02 20.2 C 7.34 g/m*3 20.2 C 0 km/h
906 02-09-2010 13:12:01 20.1 C 7.3 g/m*3 20.1 C 0 km/h
907 02-09-2010 13:24:01 21 C 7.51 g/m*3 21 C 0 km/h
908 02-09-2010 13:36:02 21.6 C 7.21 g/m*3 21.6 C 0 km/h
909 02-09-2010 13:48:02 21.3 C 7.46 g/m*3 21.3 C 0 km/h
910 02-09-2010 14:00:02 21.7 C 7.63 g/m*3 21.7 C 0 km/h
911 02-09-2010 14:12:01 22 C 7.38 g/m*3 22 C 0 km/h
912 02-09-2010 14:24:02 21.7 C 7.06 g/m*3 21.7 C 0 km/h
913 02-09-2010 14:36:02 22.9 C 6.95 g/m*3 22.9 C 0 km/h
914 02-09-2010 14:48:02 22.7 C 7.07 g/m*3 22.7 C 0 km/h
915 02-09-2010 15:00:02 22.6 C 7.03 g/m*3 22.6 C 0 km/h
916 02-09-2010 15:12:02 21.8 C 6.72 g/m*3 21.8 C 0 km/h
917 02-09-2010 15:24:02 20.3 C 6.68 g/m*3 20.3 C 0 km/h
918 02-09-2010 15:36:02 20.9 C 7.1 g/m*3 20.9 C 0 km/h
919 02-09-2010 15:48:02 21.5 C 6.98 g/m*3 21.5 C 0 km/h
920 02-09-2010 16:00:02 20.9 C 6.74 g/m*3 20.9 C 0 km/h
921 02-09-2010 16:12:02 20.2 C 6.82 g/m*3 20.2 C 0 km/h
922 02-09-2010 16:24:02 20.3 C 7.03 g/m*3 20.3 C 0 km/h
923 02-09-2010 16:36:02 20.8 C 7.24 g/m*3 20.8 C 0 km/h
924 02-09-2010 16:48:02 20.8 C 6.7 g/m*3 20.8 C 0 km/h
925 02-09-2010 17:00:02 20 C 6.91 g/m*3 20 C 0 km/h
Sensor: Nr:Datum:Temp:Abs-Feuchte:Windchill:Wind:
Aussen-T/F 926 02-09-2010 17:12:02 19.3 C 7.13 g/m*3 19.3 C 0 km/h
927 02-09-2010 17:24:02 19.6 C 7.26 g/m*3 19.6 C 0 km/h
928 02-09-2010 17:36:02 19.6 C 7.26 g/m*3 19.6 C 0 km/h
929 02-09-2010 17:48:02 19.2 C 7.09 g/m*3 19.2 C 0 km/h
930 02-09-2010 18:00:02 18.9 C 7.13 g/m*3 18.9 C 0 km/h
931 02-09-2010 18:12:01 18.7 C 7.36 g/m*3 18.7 C 0 km/h
932 02-09-2010 18:24:02 18.7 C 7.52 g/m*3 18.7 C 0 km/h
933 02-09-2010 18:36:02 18.6 C 7.48 g/m*3 18.6 C 0 km/h
934 02-09-2010 18:48:01 18.4 C 7.55 g/m*3 18.4 C 0 km/h
935 02-09-2010 19:00:01 18.5 C 8.07 g/m*3 18.5 C 0 km/h
936 02-09-2010 19:12:02 18.3 C 8.6 g/m*3 18.3 C 0 km/h
937 02-09-2010 19:24:01 17.8 C 8.95 g/m*3 17.8 C 0 km/h
938 02-09-2010 19:36:02 17.2 C 9.23 g/m*3 17.2 C 0 km/h
939 02-09-2010 19:48:02 16.4 C 9.63 g/m*3 16.4 C 0 km/h
940 02-09-2010 20:00:02 15.8 C 9.96 g/m*3 15.8 C 0 km/h
941 02-09-2010 20:12:02 15.5 C 9.91 g/m*3 15.5 C 0 km/h
942 02-09-2010 20:24:02 15 C 9.87 g/m*3 15 C 0 km/h
943 02-09-2010 20:36:02 14.7 C 10.07 g/m*3 14.7 C 0 km/h
944 02-09-2010 20:48:01 14.7 C 10.2 g/m*3 14.7 C 0 km/h
945 02-09-2010 21:00:01 14.5 C 10.07 g/m*3 14.5 C 0 km/h
946 02-09-2010 21:12:02 14.4 C 9.89 g/m*3 14.4 C 0 km/h
947 02-09-2010 21:24:01 14.5 C 9.95 g/m*3 14.5 C 0 km/h
948 02-09-2010 21:36:02 14.4 C 9.77 g/m*3 14.4 C 0 km/h
949 02-09-2010 21:49:02 14.3 C 9.58 g/m*3 14.3 C 0 km/h
950 02-09-2010 22:01:02 14.4 C 9.52 g/m*3 14.4 C 0 km/h
Sensor: Nr:Datum:Temp:Abs-Feuchte:Windchill:Wind:
Aussen-T/F 951 02-09-2010 22:13:02 14 C 9.29 g/m*3 14 C 0 km/h
952 02-09-2010 22:25:02 13.7 C 9.24 g/m*3 13.7 C 0 km/h
953 02-09-2010 22:37:02 13.6 C 9.3 g/m*3 13.6 C 0 km/h
954 02-09-2010 22:49:03 13.5 C 9.36 g/m*3 13.5 C 0 km/h
955 02-09-2010 23:01:03 13 C 9.07 g/m*3 13 C 0 km/h
956 02-09-2010 23:13:03 13.2 C 9.3 g/m*3 13.2 C 0 km/h
957 02-09-2010 23:25:03 13.1 C 9.24 g/m*3 13.1 C 0 km/h
958 02-09-2010 23:37:03 12.9 C 9.24 g/m*3 12.9 C 0 km/h
959 02-09-2010 23:49:03 12.7 C 9.13 g/m*3 12.7 C 0 km/h
960 03-09-2010 00:01:03 12.7 C 9.13 g/m*3 12.7 C 0 km/h
961 03-09-2010 00:13:03 12.5 C 9.13 g/m*3 12.5 C 0 km/h
962 03-09-2010 00:25:03 12.4 C 9.07 g/m*3 12.4 C 0 km/h
963 03-09-2010 00:37:03 12.3 C 9.12 g/m*3 12.3 C 0 km/h
964 03-09-2010 00:49:03 12.2 C 9.06 g/m*3 12.2 C 0 km/h
965 03-09-2010 01:01:03 12.1 C 9.01 g/m*3 12.1 C 0 km/h
966 03-09-2010 01:13:03 11.9 C 8.9 g/m*3 11.9 C 0 km/h
967 03-09-2010 01:25:03 11.9 C 9 g/m*3 11.9 C 0 km/h
968 03-09-2010 01:37:03 11.7 C 8.89 g/m*3 11.7 C 0 km/h
969 03-09-2010 01:49:03 11.5 C 8.78 g/m*3 11.5 C 0 km/h
970 03-09-2010 02:01:03 11.5 C 8.88 g/m*3 11.5 C 0 km/h
971 03-09-2010 02:13:03 11.4 C 8.83 g/m*3 11.4 C 0 km/h
972 03-09-2010 02:25:03 11.1 C 8.66 g/m*3 11.1 C 0 km/h
973 03-09-2010 02:37:03 11.1 C 8.66 g/m*3 11.1 C 0 km/h
974 03-09-2010 02:49:03 11.1 C 8.76 g/m*3 11.1 C 0 km/h
975 03-09-2010 03:01:04 11 C 8.71 g/m*3 11 C 0 km/h
Sensor: Nr:Datum:Temp:Abs-Feuchte:Windchill:Wind:
Aussen-T/F 976 03-09-2010 03:13:04 10.8 C 8.7 g/m*3 10.8 C 0 km/h
977 03-09-2010 03:25:04 10.7 C 8.64 g/m*3 10.7 C 0 km/h
978 03-09-2010 03:37:04 10.6 C 8.59 g/m*3 10.6 C 0 km/h
979 03-09-2010 03:49:04 10.5 C 8.53 g/m*3 10.5 C 0 km/h
980 03-09-2010 04:01:04 10.4 C 8.58 g/m*3 10.4 C 0 km/h
981 03-09-2010 04:13:04 10.4 C 8.58 g/m*3 10.4 C 0 km/h
982 03-09-2010 04:25:04 10.4 C 8.67 g/m*3 10.4 C 0 km/h
983 03-09-2010 04:37:04 10.3 C 8.62 g/m*3 10.3 C 0 km/h
984 03-09-2010 04:49:04 10.2 C 8.56 g/m*3 10.2 C 0 km/h
985 03-09-2010 05:01:04 10.2 C 8.56 g/m*3 10.2 C 0 km/h
986 03-09-2010 05:13:04 10.3 C 8.62 g/m*3 10.3 C 0 km/h
987 03-09-2010 05:25:04 10.4 C 8.77 g/m*3 10.4 C 0 km/h
988 03-09-2010 05:37:04 10.4 C 8.77 g/m*3 10.4 C 0 km/h
989 03-09-2010 05:49:04 10.7 C 9.04 g/m*3 10.7 C 0 km/h
990 03-09-2010 06:01:04 10.9 C 9.15 g/m*3 10.9 C 0 km/h
991 03-09-2010 06:13:04 11 C 9.21 g/m*3 11 C 0 km/h
992 03-09-2010 06:25:04 11.1 C 9.27 g/m*3 11.1 C 0 km/h
993 03-09-2010 06:37:04 11.1 C 9.27 g/m*3 11.1 C 0 km/h
994 03-09-2010 06:49:04 11.3 C 9.28 g/m*3 11.3 C 0 km/h
995 03-09-2010 07:01:02 11.4 C 9.34 g/m*3 11.4 C 0 km/h
996 03-09-2010 07:13:02 11.2 C 9.22 g/m*3 11.2 C 0 km/h
997 03-09-2010 07:25:02 11.2 C 9.22 g/m*3 11.2 C 0 km/h
998 03-09-2010 07:37:03 11.5 C 9.4 g/m*3 11.5 C 0 km/h
999 03-09-2010 07:49:02 11.5 C 9.4 g/m*3 11.5 C 0 km/h
1000 03-09-2010 08:01:03 11.6 C 9.46 g/m*3 11.6 C 0 km/h
Sensor: Nr:Datum:Temp:Abs-Feuchte:Windchill:Wind:
Aussen-T/F 1001 03-09-2010 08:13:03 11.7 C 9.41 g/m*3 11.7 C 0 km/h
1002 03-09-2010 08:25:02 11.7 C 9.41 g/m*3 11.7 C 0 km/h
1003 03-09-2010 08:37:03 11.6 C 9.25 g/m*3 11.6 C 0 km/h
1004 03-09-2010 08:49:02 11.6 C 9.15 g/m*3 11.6 C 0 km/h
1005 03-09-2010 09:01:02 12 C 9.27 g/m*3 12 C 0 km/h
1006 03-09-2010 09:13:02 12.1 C 9.22 g/m*3 12.1 C 0 km/h
1007 03-09-2010 09:25:02 12.3 C 9.23 g/m*3 12.3 C 0 km/h
1008 03-09-2010 09:37:02 12.7 C 9.35 g/m*3 12.7 C 0 km/h
1009 03-09-2010 09:49:02 13.1 C 9.36 g/m*3 13.1 C 0 km/h
1010 03-09-2010 10:01:02 12.9 C 9.13 g/m*3 12.9 C 0 km/h
1011 03-09-2010 10:13:02 12.8 C 9.18 g/m*3 12.8 C 0 km/h
1012 03-09-2010 10:25:02 13.5 C 9.36 g/m*3 13.5 C 0 km/h
1013 03-09-2010 10:37:03 14 C 9.05 g/m*3 14 C 0 km/h
1014 03-09-2010 10:49:02 14.7 C 9.32 g/m*3 14.7 C 0 km/h
1015 03-09-2010 11:01:02 15.3 C 9.14 g/m*3 15.3 C 0 km/h
1016 03-09-2010 11:13:02 15.4 C 8.93 g/m*3 15.4 C 0 km/h
1017 03-09-2010 11:25:02 15.8 C 9.02 g/m*3 15.8 C 0 km/h
1018 03-09-2010 11:37:02 16.4 C 8.93 g/m*3 16.4 C 0 km/h
1019 03-09-2010 11:49:02 16.6 C 8.62 g/m*3 16.6 C 0 km/h
1020 03-09-2010 12:01:02 17.4 C 8.45 g/m*3 17.4 C 0 km/h
1021 03-09-2010 12:13:02 17.7 C 8.6 g/m*3 17.7 C 0 km/h
1022 03-09-2010 12:25:02 17.8 C 8.35 g/m*3 17.8 C 0 km/h
1023 03-09-2010 12:37:02 18.1 C 8.34 g/m*3 18.1 C 0 km/h
1024 03-09-2010 12:49:01 18.3 C 8.6 g/m*3 18.3 C 0 km/h
1025 03-09-2010 13:01:01 18.8 C 8.37 g/m*3 18.8 C 0 km/h
Sensor: Nr:Datum:Temp:Abs-Feuchte:Windchill:Wind:
Aussen-T/F 1026 03-09-2010 13:13:01 19.4 C 8.18 g/m*3 19.4 C 0 km/h
1027 03-09-2010 13:25:01 20.1 C 8.17 g/m*3 20.1 C 0 km/h
1028 03-09-2010 13:37:01 19.9 C 7.9 g/m*3 19.9 C 0 km/h
1029 03-09-2010 13:49:01 20.2 C 8.22 g/m*3 20.2 C 0 km/h
1030 03-09-2010 14:01:01 20 C 7.6 g/m*3 20 C 0 km/h
1031 03-09-2010 14:13:01 20.5 C 7.65 g/m*3 20.5 C 0 km/h
1032 03-09-2010 14:25:01 19.7 C 7.64 g/m*3 19.7 C 0 km/h
1033 03-09-2010 14:37:01 20.4 C 7.96 g/m*3 20.4 C 0 km/h
1034 03-09-2010 14:49:01 21.4 C 7.31 g/m*3 21.4 C 0 km/h
1035 03-09-2010 15:01:02 21.8 C 7.1 g/m*3 21.8 C 0 km/h
1036 03-09-2010 15:13:02 22.7 C 7.27 g/m*3 22.7 C 0 km/h
1037 03-09-2010 15:25:01 23.3 C 6.9 g/m*3 23.3 C 0 km/h
1038 03-09-2010 15:37:01 22.7 C 6.87 g/m*3 22.7 C 0 km/h
1039 03-09-2010 15:49:01 23.4 C 6.94 g/m*3 23.4 C 0 km/h
1040 03-09-2010 16:01:01 24.8 C 6.83 g/m*3 24.8 C 0 km/h
1041 03-09-2010 16:13:01 25.5 C 6.63 g/m*3 25.5 C 0 km/h
1042 03-09-2010 16:25:02 25.7 C 6.46 g/m*3 25.7 C 0 km/h
1043 03-09-2010 16:37:01 25.7 C 6.46 g/m*3 25.7 C 0 km/h
1044 03-09-2010 16:49:02 23.9 C 6.49 g/m*3 23.9 C 0 km/h
1045 03-09-2010 17:01:01 25.3 C 6.32 g/m*3 25.3 C 0 km/h
1046 03-09-2010 17:13:01 24.8 C 6.6 g/m*3 24.8 C 0 km/h
1047 03-09-2010 17:25:01 23.9 C 6.49 g/m*3 23.9 C 0 km/h
1048 03-09-2010 17:37:01 23.4 C 6.52 g/m*3 23.4 C 0 km/h
1049 03-09-2010 17:49:02 23.2 C 6.65 g/m*3 23.2 C 0 km/h
1050 03-09-2010 18:01:02 23 C 7.6 g/m*3 23 C 0 km/h
Sensor: Nr:Datum:Temp:Abs-Feuchte:Windchill:Wind:
Aussen-T/F 1051 03-09-2010 18:13:02 23.1 C 8.06 g/m*3 23.1 C 0 km/h
1052 03-09-2010 18:25:02 23.2 C 8.11 g/m*3 23.2 C 0 km/h
1053 03-09-2010 18:37:02 22.5 C 7.99 g/m*3 22.5 C 0 km/h
1054 03-09-2010 18:49:01 21.7 C 8.77 g/m*3 21.7 C 0 km/h
1055 03-09-2010 19:01:02 21.2 C 8.9 g/m*3 21.2 C 0 km/h
1056 03-09-2010 19:13:02 20.6 C 8.95 g/m*3 20.6 C 0 km/h
1057 03-09-2010 19:25:01 20.6 C 8.77 g/m*3 20.6 C 0 km/h
1058 03-09-2010 19:37:02 20.7 C 8.82 g/m*3 20.7 C 0 km/h
1059 03-09-2010 19:49:02 20.4 C 8.85 g/m*3 20.4 C 0 km/h
1060 03-09-2010 20:01:02 19.7 C 8.66 g/m*3 19.7 C 0 km/h
1061 03-09-2010 20:13:02 19.2 C 8.08 g/m*3 19.2 C 0 km/h
1062 03-09-2010 20:25:01 18.3 C 8.6 g/m*3 18.3 C 0 km/h
1063 03-09-2010 20:37:02 18.1 C 7.88 g/m*3 18.1 C 0 km/h
1064 03-09-2010 20:49:02 17.8 C 8.04 g/m*3 17.8 C 0 km/h
1065 03-09-2010 21:01:02 17 C 8.39 g/m*3 17 C 0 km/h
1066 03-09-2010 21:13:02 16.5 C 8.57 g/m*3 16.5 C 0 km/h
1067 03-09-2010 21:25:02 16.2 C 8.55 g/m*3 16.2 C 0 km/h
1068 03-09-2010 21:37:02 16.1 C 8.64 g/m*3 16.1 C 0 km/h
1069 03-09-2010 21:49:01 15.8 C 8.62 g/m*3 15.8 C 0 km/h
1070 03-09-2010 22:01:01 15.6 C 8.78 g/m*3 15.6 C 0 km/h
1071 03-09-2010 22:13:01 15.3 C 8.75 g/m*3 15.3 C 0 km/h
1072 03-09-2010 22:25:02 15.2 C 8.7 g/m*3 15.2 C 0 km/h
1073 03-09-2010 22:37:01 15.2 C 8.96 g/m*3 15.2 C 0 km/h
1074 03-09-2010 22:50:03 15.5 C 9.12 g/m*3 15.5 C 0 km/h
1075 03-09-2010 23:02:03 15.5 C 9.25 g/m*3 15.5 C 0 km/h
Sensor: Nr:Datum:Temp:Abs-Feuchte:Windchill:Wind:
Aussen-T/F 1076 03-09-2010 23:14:03 15.4 C 9.2 g/m*3 15.4 C 0 km/h
1077 03-09-2010 23:26:03 15.4 C 9.2 g/m*3 15.4 C 0 km/h
1078 03-09-2010 23:38:03 15.2 C 9.22 g/m*3 15.2 C 0 km/h
1079 03-09-2010 23:50:03 15.2 C 9.22 g/m*3 15.2 C 0 km/h
1080 04-09-2010 00:02:03 15.2 C 9.22 g/m*3 15.2 C 0 km/h
1081 04-09-2010 00:14:03 15.1 C 9.29 g/m*3 15.1 C 0 km/h
1082 04-09-2010 00:26:03 15.1 C 9.29 g/m*3 15.1 C 0 km/h
1083 04-09-2010 00:38:03 15.1 C 9.29 g/m*3 15.1 C 0 km/h
1084 04-09-2010 00:50:03 15 C 9.36 g/m*3 15 C 0 km/h
1085 04-09-2010 01:02:03 15 C 9.36 g/m*3 15 C 0 km/h
1086 04-09-2010 01:14:03 15 C 9.36 g/m*3 15 C 0 km/h
1087 04-09-2010 01:26:04 14.7 C 9.44 g/m*3 14.7 C 0 km/h
1088 04-09-2010 01:38:04 14.7 C 9.44 g/m*3 14.7 C 0 km/h
1089 04-09-2010 01:50:04 14.7 C 9.44 g/m*3 14.7 C 0 km/h
1090 04-09-2010 02:02:04 14.5 C 9.45 g/m*3 14.5 C 0 km/h
1091 04-09-2010 02:14:04 14.4 C 9.39 g/m*3 14.4 C 0 km/h
1092 04-09-2010 02:26:04 14.2 C 9.4 g/m*3 14.2 C 0 km/h
1093 04-09-2010 02:38:04 14.2 C 9.4 g/m*3 14.2 C 0 km/h
1094 04-09-2010 02:50:04 14.1 C 9.34 g/m*3 14.1 C 0 km/h
1095 04-09-2010 03:02:04 14 C 9.29 g/m*3 14 C 0 km/h
1096 04-09-2010 03:14:04 13.7 C 9.35 g/m*3 13.7 C 0 km/h
1097 04-09-2010 03:26:04 13.7 C 9.35 g/m*3 13.7 C 0 km/h
1098 04-09-2010 03:38:04 13.6 C 9.53 g/m*3 13.6 C 0 km/h
1099 04-09-2010 03:50:04 13.6 C 9.53 g/m*3 13.6 C 0 km/h
1100 04-09-2010 04:02:04 13.4 C 9.42 g/m*3 13.4 C 0 km/h
Sensor: Nr:Datum:Temp:Abs-Feuchte:Windchill:Wind:
Aussen-T/F 1101 04-09-2010 04:14:04 13.3 C 9.47 g/m*3 13.3 C 0 km/h
1102 04-09-2010 04:26:04 13.1 C 9.36 g/m*3 13.1 C 0 km/h
1103 04-09-2010 04:38:04 13.2 C 9.64 g/m*3 13.2 C 0 km/h
1104 04-09-2010 04:50:04 13 C 9.53 g/m*3 13 C 0 km/h
1105 04-09-2010 05:02:04 13.1 C 9.59 g/m*3 13.1 C 0 km/h
1106 04-09-2010 05:14:04 13.2 C 9.64 g/m*3 13.2 C 0 km/h
1107 04-09-2010 05:26:04 13.2 C 9.64 g/m*3 13.2 C 0 km/h
1108 04-09-2010 05:38:05 13.1 C 9.59 g/m*3 13.1 C 0 km/h
1109 04-09-2010 05:50:05 12.9 C 9.47 g/m*3 12.9 C 0 km/h
1110 04-09-2010 06:02:05 12.9 C 9.47 g/m*3 12.9 C 0 km/h
1111 04-09-2010 06:14:05 12.7 C 9.35 g/m*3 12.7 C 0 km/h
1112 04-09-2010 06:26:05 12.5 C 9.24 g/m*3 12.5 C 0 km/h
1113 04-09-2010 06:38:05 12.4 C 9.29 g/m*3 12.4 C 0 km/h
1114 04-09-2010 06:50:05 12.2 C 9.17 g/m*3 12.2 C 0 km/h
1115 04-09-2010 07:02:05 12 C 9.17 g/m*3 12 C 0 km/h
1116 04-09-2010 07:14:05 12 C 9.17 g/m*3 12 C 0 km/h
1117 04-09-2010 07:26:05 12 C 9.17 g/m*3 12 C 0 km/h
1118 04-09-2010 07:38:05 12.2 C 9.39 g/m*3 12.2 C 0 km/h
1119 04-09-2010 07:50:02 12.2 C 9.39 g/m*3 12.2 C 0 km/h
1120 04-09-2010 08:02:02 12.5 C 9.68 g/m*3 12.5 C 0 km/h
1121 04-09-2010 08:14:02 12.7 C 9.8 g/m*3 12.7 C 0 km/h
1122 04-09-2010 08:26:03 12.7 C 9.68 g/m*3 12.7 C 0 km/h
1123 04-09-2010 08:38:02 12.9 C 9.81 g/m*3 12.9 C 0 km/h
1124 04-09-2010 08:50:02 13.2 C 9.87 g/m*3 13.2 C 0 km/h
1125 04-09-2010 09:02:02 13.7 C 10.07 g/m*3 13.7 C 0 km/h
Sensor: Nr:Datum:Temp:Abs-Feuchte:Windchill:Wind:
Aussen-T/F 1126 04-09-2010 09:14:02 14.3 C 10.2 g/m*3 14.3 C 0 km/h
1127 04-09-2010 09:26:02 14.6 C 10.01 g/m*3 14.6 C 0 km/h
1128 04-09-2010 09:38:02 14.7 C 9.82 g/m*3 14.7 C 0 km/h
1129 04-09-2010 09:50:02 14.9 C 9.69 g/m*3 14.9 C 0 km/h
1130 04-09-2010 10:02:02 15.2 C 9.61 g/m*3 15.2 C 0 km/h
1131 04-09-2010 10:14:02 15.6 C 9.58 g/m*3 15.6 C 0 km/h
1132 04-09-2010 10:26:02 15.9 C 9.62 g/m*3 15.9 C 0 km/h
1133 04-09-2010 10:38:02 17 C 9.41 g/m*3 17 C 0 km/h
1134 04-09-2010 10:50:02 17.8 C 9.11 g/m*3 17.8 C 0 km/h
1135 04-09-2010 11:02:02 17.8 C 9.11 g/m*3 17.8 C 0 km/h
1136 04-09-2010 11:14:02 18.1 C 8.96 g/m*3 18.1 C 0 km/h
1137 04-09-2010 11:26:03 18.9 C 8.75 g/m*3 18.9 C 0 km/h
1138 04-09-2010 11:38:02 19.6 C 8.61 g/m*3 19.6 C 0 km/h
1139 04-09-2010 11:50:02 20 C 8.3 g/m*3 20 C 0 km/h
1140 04-09-2010 12:02:02 18.3 C 8.13 g/m*3 18.3 C 0 km/h
1141 04-09-2010 12:14:02 19.7 C 8.49 g/m*3 19.7 C 0 km/h
1142 04-09-2010 12:26:02 19 C 7.33 g/m*3 19 C 0 km/h
1143 04-09-2010 12:38:02 18.5 C 7.59 g/m*3 18.5 C 0 km/h
1144 04-09-2010 12:50:02 18.8 C 7.89 g/m*3 18.8 C 0 km/h
1145 04-09-2010 13:02:02 19.2 C 7.42 g/m*3 19.2 C 0 km/h
1146 04-09-2010 13:14:02 19.9 C 7.9 g/m*3 19.9 C 0 km/h
1147 04-09-2010 13:26:02 19.9 C 7.56 g/m*3 19.9 C 0 km/h
1148 04-09-2010 13:38:01 18.8 C 7.73 g/m*3 18.8 C 0 km/h
1149 04-09-2010 13:50:02 20.1 C 7.47 g/m*3 20.1 C 0 km/h
1150 04-09-2010 14:02:01 21.5 C 6.98 g/m*3 21.5 C 0 km/h
Sensor: Nr:Datum:Temp:Abs-Feuchte:Windchill:Wind:
Aussen-T/F 1151 04-09-2010 14:14:01 22 C 6.79 g/m*3 22 C 0 km/h
1152 04-09-2010 14:26:02 22.2 C 6.68 g/m*3 22.2 C 0 km/h
1153 04-09-2010 14:38:02 22.1 C 6.83 g/m*3 22.1 C 0 km/h
1154 04-09-2010 14:50:02 23.2 C 6.24 g/m*3 23.2 C 0 km/h
1155 04-09-2010 15:02:02 23.4 C 6.1 g/m*3 23.4 C 0 km/h
1156 04-09-2010 15:14:02 24.3 C 6.64 g/m*3 24.3 C 0 km/h
1157 04-09-2010 15:26:02 24.1 C 5.91 g/m*3 24.1 C 0 km/h
1158 04-09-2010 15:38:02 21.8 C 6.14 g/m*3 21.8 C 0 km/h
1159 04-09-2010 15:50:01 20.8 C 6.52 g/m*3 20.8 C 0 km/h
1160 04-09-2010 16:02:02 22.8 C 5.69 g/m*3 22.8 C 0 km/h
1161 04-09-2010 16:14:02 24.7 C 5.21 g/m*3 24.7 C 0 km/h
1162 04-09-2010 16:26:01 22.2 C 5.5 g/m*3 22.2 C 0 km/h
1163 04-09-2010 16:38:01 21.3 C 5.59 g/m*3 21.3 C 0 km/h
1164 04-09-2010 16:50:01 21.1 C 5.53 g/m*3 21.1 C 0 km/h
1165 04-09-2010 17:02:02 22.4 C 5.76 g/m*3 22.4 C 0 km/h
1166 04-09-2010 17:14:02 23.3 C 5.23 g/m*3 23.3 C 0 km/h
1167 04-09-2010 17:26:01 23.5 C 5.08 g/m*3 23.5 C 0 km/h
1168 04-09-2010 17:38:01 22.9 C 4.09 g/m*3 22.9 C 0 km/h
1169 04-09-2010 17:50:01 23.5 C 4.23 g/m*3 23.5 C 0 km/h
1170 04-09-2010 18:02:01 22.9 C 4.29 g/m*3 22.9 C 0 km/h
1171 04-09-2010 18:14:01 23.2 C 4.57 g/m*3 23.2 C 0 km/h
1172 04-09-2010 18:26:02 23.1 C 4.13 g/m*3 23.1 C 0 km/h
1173 04-09-2010 18:38:01 22.9 C 4.29 g/m*3 22.9 C 0 km/h
1174 04-09-2010 18:50:02 21.6 C 4.55 g/m*3 21.6 C 0 km/h
1175 04-09-2010 19:02:01 21.2 C 5.19 g/m*3 21.2 C 0 km/h
Sensor: Nr:Datum:Temp:Abs-Feuchte:Windchill:Wind:
Aussen-T/F 1176 04-09-2010 19:14:01 20.7 C 5.04 g/m*3 20.7 C 0 km/h
1177 04-09-2010 19:26:02 19.4 C 5.34 g/m*3 19.4 C 0 km/h
1178 04-09-2010 19:38:01 19 C 5.7 g/m*3 19 C 0 km/h
1179 04-09-2010 19:50:03 18.4 C 6.29 g/m*3 18.4 C 0 km/h
1180 04-09-2010 20:02:02 17.5 C 6.41 g/m*3 17.5 C 0 km/h
1181 04-09-2010 20:14:02 16.6 C 6.36 g/m*3 16.6 C 0 km/h
1182 04-09-2010 20:26:03 15.9 C 6.5 g/m*3 15.9 C 0 km/h
1183 04-09-2010 20:38:02 15.5 C 6.61 g/m*3 15.5 C 0 km/h
1184 04-09-2010 20:50:02 15.2 C 6.75 g/m*3 15.2 C 0 km/h
1185 04-09-2010 21:02:02 15.2 C 6.88 g/m*3 15.2 C 0 km/h
1186 04-09-2010 21:14:02 14.8 C 6.84 g/m*3 14.8 C 0 km/h
1187 04-09-2010 21:26:02 14.8 C 6.97 g/m*3 14.8 C 0 km/h
1188 04-09-2010 21:38:01 15 C 6.92 g/m*3 15 C 0 km/h
1189 04-09-2010 21:50:02 14.8 C 7.09 g/m*3 14.8 C 0 km/h
1190 04-09-2010 22:02:02 14.8 C 7.22 g/m*3 14.8 C 0 km/h
1191 04-09-2010 22:14:03 14.4 C 7.17 g/m*3 14.4 C 0 km/h
1192 04-09-2010 22:26:01 14.1 C 7.28 g/m*3 14.1 C 0 km/h
1193 04-09-2010 22:38:02 14 C 7.36 g/m*3 14 C 0 km/h
1194 04-09-2010 22:50:02 13.5 C 7.25 g/m*3 13.5 C 0 km/h
1195 04-09-2010 23:03:03 13.5 C 7.49 g/m*3 13.5 C 0 km/h
1196 04-09-2010 23:15:03 13.2 C 7.46 g/m*3 13.2 C 0 km/h
1197 04-09-2010 23:27:03 13.1 C 7.53 g/m*3 13.1 C 0 km/h
1198 04-09-2010 23:39:03 13 C 7.71 g/m*3 13 C 0 km/h
1199 04-09-2010 23:51:03 12.8 C 7.73 g/m*3 12.8 C 0 km/h
1200 05-09-2010 00:03:03 12.7 C 7.68 g/m*3 12.7 C 0 km/h
Sensor: Nr:Datum:Temp:Abs-Feuchte:Windchill:Wind:
Aussen-T/F 1201 05-09-2010 00:15:03 12.3 C 7.49 g/m*3 12.3 C 0 km/h
1202 05-09-2010 00:27:03 12.1 C 7.61 g/m*3 12.1 C 0 km/h
1203 05-09-2010 00:39:03 11.9 C 7.63 g/m*3 11.9 C 0 km/h
1204 05-09-2010 00:51:03 11.8 C 7.68 g/m*3 11.8 C 0 km/h
1205 05-09-2010 01:03:03 11.6 C 7.59 g/m*3 11.6 C 0 km/h
1206 05-09-2010 01:15:03 11.4 C 7.49 g/m*3 11.4 C 0 km/h
1207 05-09-2010 01:27:03 11.2 C 7.6 g/m*3 11.2 C 0 km/h
1208 05-09-2010 01:39:03 11 C 7.51 g/m*3 11 C 0 km/h
1209 05-09-2010 01:51:03 10.9 C 7.46 g/m*3 10.9 C 0 km/h
1210 05-09-2010 02:03:03 10.8 C 7.61 g/m*3 10.8 C 0 km/h
1211 05-09-2010 02:15:03 10.6 C 7.52 g/m*3 10.6 C 0 km/h
1212 05-09-2010 02:27:04 10.4 C 7.52 g/m*3 10.4 C 0 km/h
1213 05-09-2010 02:39:04 10.3 C 7.47 g/m*3 10.3 C 0 km/h
1214 05-09-2010 02:51:04 10.1 C 7.47 g/m*3 10.1 C 0 km/h
1215 05-09-2010 03:03:04 10 C 7.33 g/m*3 10 C 0 km/h
1216 05-09-2010 03:15:04 9.8 C 7.42 g/m*3 9.8 C 0 km/h
1217 05-09-2010 03:27:04 9.7 C 7.47 g/m*3 9.7 C 0 km/h
1218 05-09-2010 03:39:04 9.6 C 7.42 g/m*3 9.6 C 0 km/h
1219 05-09-2010 03:51:04 9.5 C 7.37 g/m*3 9.5 C 0 km/h
1220 05-09-2010 04:03:04 9.2 C 7.23 g/m*3 9.2 C 0 km/h
1221 05-09-2010 04:15:04 9.2 C 7.23 g/m*3 9.2 C 0 km/h
1222 05-09-2010 04:27:04 9.2 C 7.32 g/m*3 9.2 C 0 km/h
1223 05-09-2010 04:39:04 9.1 C 7.28 g/m*3 9.1 C 0 km/h
1224 05-09-2010 04:51:04 8.9 C 7.27 g/m*3 8.9 C 0 km/h
1225 05-09-2010 05:03:04 8.9 C 7.27 g/m*3 8.9 C 0 km/h
Sensor: Nr:Datum:Temp:Abs-Feuchte:Windchill:Wind:
Aussen-T/F 1226 05-09-2010 05:15:04 8.8 C 7.31 g/m*3 8.8 C 0 km/h
1227 05-09-2010 05:27:04 8.5 C 7.17 g/m*3 8.5 C 0 km/h
1228 05-09-2010 05:39:04 8.5 C 7.26 g/m*3 8.5 C 0 km/h
1229 05-09-2010 05:51:04 8.5 C 7.34 g/m*3 8.5 C 0 km/h
1230 05-09-2010 06:03:04 8.3 C 7.33 g/m*3 8.3 C 0 km/h
1231 05-09-2010 06:15:04 8.1 C 7.24 g/m*3 8.1 C 0 km/h
1232 05-09-2010 06:27:04 8.1 C 7.24 g/m*3 8.1 C 0 km/h
1233 05-09-2010 06:39:04 8 C 7.19 g/m*3 8 C 0 km/h
1234 05-09-2010 06:51:05 7.9 C 7.23 g/m*3 7.9 C 0 km/h
1235 05-09-2010 07:03:05 7.9 C 7.23 g/m*3 7.9 C 0 km/h
1236 05-09-2010 07:15:05 8.2 C 7.37 g/m*3 8.2 C 0 km/h
1237 05-09-2010 07:27:05 8.5 C 7.6 g/m*3 8.5 C 0 km/h
1238 05-09-2010 07:39:02 8.6 C 7.65 g/m*3 8.6 C 0 km/h
1239 05-09-2010 07:51:02 8.8 C 7.75 g/m*3 8.8 C 0 km/h
1240 05-09-2010 08:03:02 9.2 C 7.86 g/m*3 9.2 C 0 km/h
1241 05-09-2010 08:15:01 9.5 C 7.92 g/m*3 9.5 C 0 km/h
1242 05-09-2010 08:27:01 9.9 C 8.03 g/m*3 9.9 C 0 km/h
1243 05-09-2010 08:39:02 10 C 7.8 g/m*3 10 C 0 km/h
1244 05-09-2010 08:51:01 10.5 C 7.95 g/m*3 10.5 C 0 km/h
1245 05-09-2010 09:03:01 10.7 C 7.96 g/m*3 10.7 C 0 km/h
1246 05-09-2010 09:15:01 11.1 C 7.86 g/m*3 11.1 C 0 km/h
1247 05-09-2010 09:27:01 11.2 C 7.8 g/m*3 11.2 C 0 km/h
1248 05-09-2010 09:39:01 11.3 C 7.85 g/m*3 11.3 C 0 km/h
1249 05-09-2010 09:51:01 11.2 C 7.91 g/m*3 11.2 C 0 km/h
1250 05-09-2010 10:03:02 11.2 C 8.01 g/m*3 11.2 C 0 km/h
Sensor: Nr:Datum:Temp:Abs-Feuchte:Windchill:Wind:
Aussen-T/F 1251 05-09-2010 10:15:01 11.8 C 8.42 g/m*3 11.8 C 0 km/h
1252 05-09-2010 10:27:01 12.3 C 8.47 g/m*3 12.3 C 0 km/h
1253 05-09-2010 10:39:01 12.9 C 8.68 g/m*3 12.9 C 0 km/h
1254 05-09-2010 10:51:02 13.6 C 8.59 g/m*3 13.6 C 0 km/h
1255 05-09-2010 11:03:02 14.3 C 8.48 g/m*3 14.3 C 0 km/h
1256 05-09-2010 11:15:01 15.1 C 8.51 g/m*3 15.1 C 0 km/h
1257 05-09-2010 11:27:01 15.4 C 8.41 g/m*3 15.4 C 0 km/h
1258 05-09-2010 11:39:02 15.9 C 8.13 g/m*3 15.9 C 0 km/h
1259 05-09-2010 11:51:02 16.4 C 7.12 g/m*3 16.4 C 0 km/h
1260 05-09-2010 12:03:02 17.2 C 7.18 g/m*3 17.2 C 0 km/h
1261 05-09-2010 12:15:02 17.6 C 6.6 g/m*3 17.6 C 0 km/h
1262 05-09-2010 12:27:02 18.2 C 6.53 g/m*3 18.2 C 0 km/h
1263 05-09-2010 12:39:02 18.5 C 6.33 g/m*3 18.5 C 0 km/h
1264 05-09-2010 12:51:01 18.6 C 5.89 g/m*3 18.6 C 0 km/h
1265 05-09-2010 13:03:02 19.3 C 6.47 g/m*3 19.3 C 0 km/h
1266 05-09-2010 13:15:02 19.4 C 6.01 g/m*3 19.4 C 0 km/h
1267 05-09-2010 13:27:02 20 C 5.88 g/m*3 20 C 0 km/h
1268 05-09-2010 13:39:01 20.6 C 5.55 g/m*3 20.6 C 0 km/h
1269 05-09-2010 13:51:01 21.4 C 5.62 g/m*3 21.4 C 0 km/h
1270 05-09-2010 14:03:01 22.3 C 5.53 g/m*3 22.3 C 0 km/h
1271 05-09-2010 14:15:02 22.9 C 5.31 g/m*3 22.9 C 0 km/h
1272 05-09-2010 14:27:02 23.3 C 5.02 g/m*3 23.3 C 0 km/h
1273 05-09-2010 14:39:01 24.2 C 5.06 g/m*3 24.2 C 0 km/h
1274 05-09-2010 14:51:03 24.8 C 5.01 g/m*3 24.8 C 0 km/h
1275 05-09-2010 15:03:02 24.8 C 5.46 g/m*3 24.8 C 0 km/h
Sensor: Nr:Datum:Temp:Abs-Feuchte:Windchill:Wind:
Aussen-T/F 1276 05-09-2010 15:15:02 23.7 C 4.92 g/m*3 23.7 C 0 km/h
1277 05-09-2010 15:27:02 24 C 4.79 g/m*3 24 C 0 km/h
1278 05-09-2010 15:39:02 24.4 C 4.45 g/m*3 24.4 C 0 km/h
1279 05-09-2010 15:51:02 23.9 C 4.54 g/m*3 23.9 C 0 km/h
1280 05-09-2010 16:03:01 24.1 C 4.38 g/m*3 24.1 C 0 km/h
1281 05-09-2010 16:15:02 24.4 C 4.67 g/m*3 24.4 C 0 km/h
1282 05-09-2010 16:27:02 25 C 4.83 g/m*3 25 C 0 km/h
1283 05-09-2010 16:39:02 25 C 4.83 g/m*3 25 C 0 km/h
1284 05-09-2010 16:51:01 23.5 C 4.65 g/m*3 23.5 C 0 km/h
1285 05-09-2010 17:03:02 24.7 C 4.75 g/m*3 24.7 C 0 km/h
1286 05-09-2010 17:15:01 24.7 C 5.21 g/m*3 24.7 C 0 km/h
1287 05-09-2010 17:27:01 24 C 5.44 g/m*3 24 C 0 km/h
1288 05-09-2010 17:39:02 24.6 C 5.18 g/m*3 24.6 C 0 km/h
1289 05-09-2010 17:51:01 25 C 4.6 g/m*3 25 C 0 km/h
1290 05-09-2010 18:03:02 25.7 C 5.51 g/m*3 25.7 C 0 km/h
1291 05-09-2010 18:15:01 26 C 4.87 g/m*3 26 C 0 km/h
1292 05-09-2010 18:27:01 25.4 C 4.71 g/m*3 25.4 C 0 km/h
1293 05-09-2010 18:39:02 24.1 C 5.03 g/m*3 24.1 C 0 km/h
1294 05-09-2010 18:51:01 23 C 6.17 g/m*3 23 C 0 km/h
1295 05-09-2010 19:03:02 21.9 C 6.37 g/m*3 21.9 C 0 km/h
1296 05-09-2010 19:15:02 20.1 C 6.26 g/m*3 20.1 C 0 km/h
1297 05-09-2010 19:27:02 19.2 C 6.43 g/m*3 19.2 C 0 km/h
1298 05-09-2010 19:39:02 18.2 C 6.37 g/m*3 18.2 C 0 km/h
1299 05-09-2010 19:51:02 17.5 C 6.41 g/m*3 17.5 C 0 km/h
1300 05-09-2010 20:03:01 17 C 6.37 g/m*3 17 C 0 km/h
Sensor: Nr:Datum:Temp:Abs-Feuchte:Windchill:Wind:
Aussen-T/F 1301 05-09-2010 20:15:02 16.6 C 6.36 g/m*3 16.6 C 0 km/h
1302 05-09-2010 20:27:03 16.6 C 6.36 g/m*3 16.6 C 0 km/h
1303 05-09-2010 20:39:01 16.2 C 6.34 g/m*3 16.2 C 0 km/h
1304 05-09-2010 20:51:02 15.8 C 6.46 g/m*3 15.8 C 0 km/h
1305 05-09-2010 21:03:01 15.3 C 6.66 g/m*3 15.3 C 0 km/h
1306 05-09-2010 21:15:01 15.1 C 6.71 g/m*3 15.1 C 0 km/h
1307 05-09-2010 21:27:01 14.9 C 6.75 g/m*3 14.9 C 0 km/h
1308 05-09-2010 21:39:02 14.7 C 6.92 g/m*3 14.7 C 0 km/h
1309 05-09-2010 21:51:02 14.5 C 6.96 g/m*3 14.5 C 0 km/h
1310 05-09-2010 22:03:02 14.4 C 7.05 g/m*3 14.4 C 0 km/h
1311 05-09-2010 22:15:02 14.2 C 7.08 g/m*3 14.2 C 0 km/h
1312 05-09-2010 22:27:02 14 C 7.12 g/m*3 14 C 0 km/h
1313 05-09-2010 22:40:03 14 C 7.12 g/m*3 14 C 0 km/h
1314 05-09-2010 22:52:03 14 C 7.12 g/m*3 14 C 0 km/h
1315 05-09-2010 23:04:03 14 C 7 g/m*3 14 C 0 km/h
1316 05-09-2010 23:16:03 14.1 C 6.92 g/m*3 14.1 C 0 km/h
1317 05-09-2010 23:28:03 14.1 C 6.92 g/m*3 14.1 C 0 km/h
1318 05-09-2010 23:40:03 13.7 C 6.87 g/m*3 13.7 C 0 km/h
1319 05-09-2010 23:52:03 13.8 C 6.91 g/m*3 13.8 C 0 km/h
1320 06-09-2010 00:04:03 13.6 C 7.06 g/m*3 13.6 C 0 km/h
1321 06-09-2010 00:16:03 13.4 C 7.09 g/m*3 13.4 C 0 km/h
1322 06-09-2010 00:28:03 13.2 C 7.12 g/m*3 13.2 C 0 km/h
1323 06-09-2010 00:40:03 13.1 C 7.07 g/m*3 13.1 C 0 km/h
1324 06-09-2010 00:52:03 12.8 C 7.06 g/m*3 12.8 C 0 km/h
1325 06-09-2010 01:04:03 12.7 C 7.12 g/m*3 12.7 C 0 km/h
Sensor: Nr:Datum:Temp:Abs-Feuchte:Windchill:Wind:
Aussen-T/F 1326 06-09-2010 01:16:03 12.5 C 7.15 g/m*3 12.5 C 0 km/h
1327 06-09-2010 01:28:03 12.3 C 7.06 g/m*3 12.3 C 0 km/h
1328 06-09-2010 01:40:03 12.2 C 7.12 g/m*3 12.2 C 0 km/h
1329 06-09-2010 01:52:03 12.1 C 7.08 g/m*3 12.1 C 0 km/h
1330 06-09-2010 02:04:03 12 C 7.14 g/m*3 12 C 0 km/h
1331 06-09-2010 02:16:04 11.8 C 7.26 g/m*3 11.8 C 0 km/h
1332 06-09-2010 02:28:04 11.6 C 7.17 g/m*3 11.6 C 0 km/h
1333 06-09-2010 02:40:04 11.5 C 7.23 g/m*3 11.5 C 0 km/h
1334 06-09-2010 02:52:04 11.2 C 7.2 g/m*3 11.2 C 0 km/h
1335 06-09-2010 03:04:04 11.2 C 7.2 g/m*3 11.2 C 0 km/h
1336 06-09-2010 03:16:04 11.2 C 7.2 g/m*3 11.2 C 0 km/h
1337 06-09-2010 03:28:04 11.1 C 7.15 g/m*3 11.1 C 0 km/h
1338 06-09-2010 03:40:04 11 C 7.11 g/m*3 11 C 0 km/h
1339 06-09-2010 03:52:04 11 C 7.11 g/m*3 11 C 0 km/h
1340 06-09-2010 04:04:04 11 C 7.11 g/m*3 11 C 0 km/h
1341 06-09-2010 04:16:04 10.8 C 7.12 g/m*3 10.8 C 0 km/h
1342 06-09-2010 04:28:04 10.7 C 7.07 g/m*3 10.7 C 0 km/h
1343 06-09-2010 04:40:04 10.6 C 7.12 g/m*3 10.6 C 0 km/h
1344 06-09-2010 04:52:04 10.4 C 7.04 g/m*3 10.4 C 0 km/h
1345 06-09-2010 05:04:04 10.3 C 7.09 g/m*3 10.3 C 0 km/h
1346 06-09-2010 05:16:04 10.4 C 7.13 g/m*3 10.4 C 0 km/h
1347 06-09-2010 05:28:04 10.2 C 6.95 g/m*3 10.2 C 0 km/h
1348 06-09-2010 05:40:04 10.2 C 6.95 g/m*3 10.2 C 0 km/h
1349 06-09-2010 05:52:04 10.1 C 7 g/m*3 10.1 C 0 km/h
1350 06-09-2010 06:04:04 9.8 C 6.96 g/m*3 9.8 C 0 km/h
Sensor: Nr:Datum:Temp:Abs-Feuchte:Windchill:Wind:
Aussen-T/F 1351 06-09-2010 06:16:04 9.7 C 7.01 g/m*3 9.7 C 0 km/h
1352 06-09-2010 06:28:04 9.5 C 7.01 g/m*3 9.5 C 0 km/h
1353 06-09-2010 06:40:05 9.5 C 7.01 g/m*3 9.5 C 0 km/h
1354 06-09-2010 06:52:05 9.3 C 7.01 g/m*3 9.3 C 0 km/h
1355 06-09-2010 07:04:05 9.2 C 6.97 g/m*3 9.2 C 0 km/h
1356 06-09-2010 07:16:03 9.3 C 7.1 g/m*3 9.3 C 0 km/h
1357 06-09-2010 07:28:03 9.3 C 7.1 g/m*3 9.3 C 0 km/h
1358 06-09-2010 07:40:03 9.3 C 7.1 g/m*3 9.3 C 0 km/h
1359 06-09-2010 07:52:01 9.3 C 7.1 g/m*3 9.3 C 0 km/h
1360 06-09-2010 08:04:02 9.4 C 7.15 g/m*3 9.4 C 0 km/h
1361 06-09-2010 08:16:01 9.6 C 7.24 g/m*3 9.6 C 0 km/h
1362 06-09-2010 08:28:01 9.6 C 7.24 g/m*3 9.6 C 0 km/h
1363 06-09-2010 08:40:02 9.8 C 7.24 g/m*3 9.8 C 0 km/h
1364 06-09-2010 08:52:02 10 C 7.24 g/m*3 10 C 0 km/h
1365 06-09-2010 09:04:02 10.2 C 7.33 g/m*3 10.2 C 0 km/h
1366 06-09-2010 09:16:01 10.5 C 7.47 g/m*3 10.5 C 0 km/h
1367 06-09-2010 09:28:01 10.8 C 7.51 g/m*3 10.8 C 0 km/h
1368 06-09-2010 09:40:02 11.3 C 7.55 g/m*3 11.3 C 0 km/h
1369 06-09-2010 09:52:02 11.9 C 7.73 g/m*3 11.9 C 0 km/h
1370 06-09-2010 10:04:02 12.5 C 7.59 g/m*3 12.5 C 0 km/h
1371 06-09-2010 10:16:02 13.1 C 7.53 g/m*3 13.1 C 0 km/h
1372 06-09-2010 10:28:02 13.5 C 7.37 g/m*3 13.5 C 0 km/h
1373 06-09-2010 10:40:02 13.9 C 7.67 g/m*3 13.9 C 0 km/h
1374 06-09-2010 10:52:02 14.4 C 7.42 g/m*3 14.4 C 0 km/h
1375 06-09-2010 11:04:02 15.2 C 7.4 g/m*3 15.2 C 0 km/h
Sensor: Nr:Datum:Temp:Abs-Feuchte:Windchill:Wind:
Aussen-T/F 1376 06-09-2010 11:16:02 15.8 C 7.27 g/m*3 15.8 C 0 km/h
1377 06-09-2010 11:28:02 16.2 C 7.45 g/m*3 16.2 C 0 km/h
1378 06-09-2010 11:40:01 16.9 C 6.76 g/m*3 16.9 C 0 km/h
1379 06-09-2010 11:52:02 17.5 C 6.71 g/m*3 17.5 C 0 km/h
1380 06-09-2010 12:04:01 18.1 C 5.87 g/m*3 18.1 C 0 km/h
1381 06-09-2010 12:16:02 18.5 C 5.7 g/m*3 18.5 C 0 km/h
1382 06-09-2010 12:28:02 18.7 C 5.6 g/m*3 18.7 C 0 km/h
1383 06-09-2010 12:40:02 18.9 C 5.35 g/m*3 18.9 C 0 km/h
1384 06-09-2010 12:52:02 19 C 5.38 g/m*3 19 C 0 km/h
1385 06-09-2010 13:04:03 19.3 C 5.31 g/m*3 19.3 C 0 km/h
1386 06-09-2010 13:16:02 19.7 C 5.6 g/m*3 19.7 C 0 km/h
1387 06-09-2010 13:28:02 20.1 C 5.56 g/m*3 20.1 C 0 km/h
1388 06-09-2010 13:40:02 20.8 C 5.43 g/m*3 20.8 C 0 km/h
1389 06-09-2010 13:52:01 21.3 C 5.03 g/m*3 21.3 C 0 km/h
1390 06-09-2010 14:04:02 21.6 C 4.74 g/m*3 21.6 C 0 km/h
1391 06-09-2010 14:16:01 21.9 C 4.82 g/m*3 21.9 C 0 km/h
1392 06-09-2010 14:28:01 22.3 C 4.54 g/m*3 22.3 C 0 km/h
1393 06-09-2010 14:40:02 22.7 C 4.24 g/m*3 22.7 C 0 km/h
1394 06-09-2010 14:52:01 23.2 C 4.16 g/m*3 23.2 C 0 km/h
1395 06-09-2010 15:04:02 23.6 C 4.25 g/m*3 23.6 C 0 km/h
1396 06-09-2010 15:16:02 23.9 C 4.33 g/m*3 23.9 C 0 km/h
1397 06-09-2010 15:28:02 24.1 C 4.38 g/m*3 24.1 C 0 km/h
1398 06-09-2010 15:40:01 24.3 C 4.43 g/m*3 24.3 C 0 km/h
1399 06-09-2010 15:52:01 24.1 C 4.38 g/m*3 24.1 C 0 km/h
1400 06-09-2010 16:04:01 24 C 4.35 g/m*3 24 C 0 km/h
Sensor: Nr:Datum:Temp:Abs-Feuchte:Windchill:Wind:
Aussen-T/F 1401 06-09-2010 16:16:02 23.8 C 4.3 g/m*3 23.8 C 0 km/h
1402 06-09-2010 16:28:02 23.7 C 4.28 g/m*3 23.7 C 0 km/h
1403 06-09-2010 16:40:01 23.9 C 4.33 g/m*3 23.9 C 0 km/h
1404 06-09-2010 16:52:02 24 C 4.35 g/m*3 24 C 0 km/h
1405 06-09-2010 17:04:01 24.5 C 4.48 g/m*3 24.5 C 0 km/h
1406 06-09-2010 17:16:01 24.7 C 4.53 g/m*3 24.7 C 0 km/h
1407 06-09-2010 17:28:01 25.4 C 4.71 g/m*3 25.4 C 0 km/h
1408 06-09-2010 17:40:01 24.2 C 4.4 g/m*3 24.2 C 0 km/h
1409 06-09-2010 17:52:02 23.3 C 4.18 g/m*3 23.3 C 0 km/h
1410 06-09-2010 18:04:02 22.6 C 4.82 g/m*3 22.6 C 0 km/h
1411 06-09-2010 18:16:02 21.5 C 4.9 g/m*3 21.5 C 0 km/h
1412 06-09-2010 18:28:02 21.1 C 5.53 g/m*3 21.1 C 0 km/h
1413 06-09-2010 18:40:02 21.2 C 5.37 g/m*3 21.2 C 0 km/h
1414 06-09-2010 18:52:01 20.8 C 5.98 g/m*3 20.8 C 0 km/h
1415 06-09-2010 19:04:02 20 C 6.05 g/m*3 20 C 0 km/h
1416 06-09-2010 19:16:01 19.1 C 5.9 g/m*3 19.1 C 0 km/h
1417 06-09-2010 19:28:01 18.7 C 5.76 g/m*3 18.7 C 0 km/h
1418 06-09-2010 19:40:02 18.1 C 5.87 g/m*3 18.1 C 0 km/h
1419 06-09-2010 19:52:01 17.7 C 5.73 g/m*3 17.7 C 0 km/h
1420 06-09-2010 20:04:02 17.6 C 5.55 g/m*3 17.6 C 0 km/h
1421 06-09-2010 20:16:01 17.3 C 5.6 g/m*3 17.3 C 0 km/h
1422 06-09-2010 20:28:01 17.1 C 5.68 g/m*3 17.1 C 0 km/h
1423 06-09-2010 20:40:02 16.9 C 5.61 g/m*3 16.9 C 0 km/h
1424 06-09-2010 20:52:01 16.6 C 5.65 g/m*3 16.6 C 0 km/h
1425 06-09-2010 21:04:02 16.5 C 5.2 g/m*3 16.5 C 0 km/h
Sensor: Nr:Datum:Temp:Abs-Feuchte:Windchill:Wind:
Aussen-T/F 1426 06-09-2010 21:16:02 16.4 C 5.44 g/m*3 16.4 C 0 km/h
1427 06-09-2010 21:28:02 16.2 C 5.52 g/m*3 16.2 C 0 km/h
1428 06-09-2010 21:41:03 16.1 C 5.48 g/m*3 16.1 C 0 km/h
1429 06-09-2010 21:53:03 15.9 C 5.55 g/m*3 15.9 C 0 km/h
1430 06-09-2010 22:05:03 15.7 C 5.62 g/m*3 15.7 C 0 km/h
1431 06-09-2010 22:17:03 15.6 C 5.59 g/m*3 15.6 C 0 km/h
1432 06-09-2010 22:29:03 15.6 C 5.59 g/m*3 15.6 C 0 km/h
1433 06-09-2010 22:41:03 15.3 C 5.62 g/m*3 15.3 C 0 km/h
1434 06-09-2010 22:53:03 15.3 C 5.62 g/m*3 15.3 C 0 km/h
1435 06-09-2010 23:05:03 15.2 C 5.71 g/m*3 15.2 C 0 km/h
1436 06-09-2010 23:17:03 15.1 C 5.68 g/m*3 15.1 C 0 km/h
1437 06-09-2010 23:29:03 15.2 C 5.58 g/m*3 15.2 C 0 km/h
1438 06-09-2010 23:41:03 15.3 C 5.48 g/m*3 15.3 C 0 km/h
1439 06-09-2010 23:53:03 15.2 C 5.71 g/m*3 15.2 C 0 km/h
1440 07-09-2010 00:05:03 15.2 C 5.71 g/m*3 15.2 C 0 km/h
1441 07-09-2010 00:17:03 15.4 C 5.52 g/m*3 15.4 C 0 km/h
1442 07-09-2010 00:29:03 15.4 C 5.52 g/m*3 15.4 C 0 km/h
1443 07-09-2010 00:41:03 15.5 C 5.42 g/m*3 15.5 C 0 km/h
1444 07-09-2010 00:53:03 15.4 C 5.39 g/m*3 15.4 C 0 km/h
1445 07-09-2010 01:05:03 15.4 C 5.52 g/m*3 15.4 C 0 km/h
1446 07-09-2010 01:17:04 15.4 C 5.39 g/m*3 15.4 C 0 km/h
1447 07-09-2010 01:29:04 15.4 C 5.39 g/m*3 15.4 C 0 km/h
1448 07-09-2010 01:41:04 15.4 C 5.39 g/m*3 15.4 C 0 km/h
1449 07-09-2010 01:53:04 15.5 C 5.29 g/m*3 15.5 C 0 km/h
1450 07-09-2010 02:05:04 15.5 C 5.29 g/m*3 15.5 C 0 km/h
Sensor: Nr:Datum:Temp:Abs-Feuchte:Windchill:Wind:
Aussen-T/F 1451 07-09-2010 02:17:04 15.5 C 5.29 g/m*3 15.5 C 0 km/h
1452 07-09-2010 02:29:04 15.5 C 5.55 g/m*3 15.5 C 0 km/h
1453 07-09-2010 02:41:04 15.4 C 5.39 g/m*3 15.4 C 0 km/h
1454 07-09-2010 02:53:04 15.4 C 5.39 g/m*3 15.4 C 0 km/h
1455 07-09-2010 03:05:04 15.4 C 5.52 g/m*3 15.4 C 0 km/h
1456 07-09-2010 03:17:04 15.4 C 5.26 g/m*3 15.4 C 0 km/h
1457 07-09-2010 03:29:04 14.8 C 5.7 g/m*3 14.8 C 0 km/h
1458 07-09-2010 03:41:04 13.3 C 6.47 g/m*3 13.3 C 0 km/h
1459 07-09-2010 03:53:04 12.8 C 6.94 g/m*3 12.8 C 0 km/h
1460 07-09-2010 04:05:04 13.1 C 6.85 g/m*3 13.1 C 0 km/h
1461 07-09-2010 04:17:04 13.4 C 6.97 g/m*3 13.4 C 0 km/h
1462 07-09-2010 04:29:04 13.1 C 6.62 g/m*3 13.1 C 0 km/h
1463 07-09-2010 04:41:04 12.8 C 7.28 g/m*3 12.8 C 0 km/h
1464 07-09-2010 04:53:04 12.9 C 7.33 g/m*3 12.9 C 0 km/h
1465 07-09-2010 05:05:04 12.9 C 7.21 g/m*3 12.9 C 0 km/h
1466 07-09-2010 05:17:04 13 C 7.26 g/m*3 13 C 0 km/h
1467 07-09-2010 05:29:05 13 C 7.03 g/m*3 13 C 0 km/h
1468 07-09-2010 05:41:05 13.2 C 6.77 g/m*3 13.2 C 0 km/h
1469 07-09-2010 05:53:05 12.8 C 7.28 g/m*3 12.8 C 0 km/h
1470 07-09-2010 06:05:05 12.5 C 7.26 g/m*3 12.5 C 0 km/h
1471 07-09-2010 06:17:05 12.3 C 7.38 g/m*3 12.3 C 0 km/h
1472 07-09-2010 06:29:05 12.4 C 7.1 g/m*3 12.4 C 0 km/h
1473 07-09-2010 06:41:05 12.6 C 6.75 g/m*3 12.6 C 0 km/h
1474 07-09-2010 06:53:05 12.7 C 6.68 g/m*3 12.7 C 0 km/h
1475 07-09-2010 07:05:05 12.4 C 6.66 g/m*3 12.4 C 0 km/h
Sensor: Nr:Datum:Temp:Abs-Feuchte:Windchill:Wind:
Aussen-T/F 1476 07-09-2010 07:17:05 12.2 C 7.01 g/m*3 12.2 C 0 km/h
1477 07-09-2010 07:29:05 12.1 C 6.97 g/m*3 12.1 C 0 km/h
1478 07-09-2010 07:41:05 12 C 7.35 g/m*3 12 C 0 km/h
1479 07-09-2010 07:53:01 11.9 C 7.41 g/m*3 11.9 C 0 km/h
1480 07-09-2010 08:05:02 11.7 C 7.74 g/m*3 11.7 C 0 km/h
1481 07-09-2010 08:17:02 11.6 C 8.11 g/m*3 11.6 C 0 km/h
1482 07-09-2010 08:29:02 11.7 C 8.37 g/m*3 11.7 C 0 km/h
1483 07-09-2010 08:41:02 11.4 C 8.11 g/m*3 11.4 C 0 km/h
1484 07-09-2010 08:53:01 11.4 C 8.21 g/m*3 11.4 C 0 km/h
1485 07-09-2010 09:05:02 11.4 C 8.21 g/m*3 11.4 C 0 km/h
1486 07-09-2010 09:17:02 11.4 C 8.21 g/m*3 11.4 C 0 km/h
1487 07-09-2010 09:29:02 11.5 C 8.47 g/m*3 11.5 C 0 km/h
1488 07-09-2010 09:41:01 11.5 C 8.47 g/m*3 11.5 C 0 km/h
1489 07-09-2010 09:53:02 11.5 C 8.68 g/m*3 11.5 C 0 km/h
1490 07-09-2010 10:05:01 11.4 C 8.72 g/m*3 11.4 C 0 km/h
1491 07-09-2010 10:17:02 11.4 C 8.83 g/m*3 11.4 C 0 km/h
1492 07-09-2010 10:29:02 11.5 C 8.88 g/m*3 11.5 C 0 km/h
1493 07-09-2010 10:41:01 11.4 C 8.93 g/m*3 11.4 C 0 km/h
1494 07-09-2010 10:53:02 11.6 C 9.04 g/m*3 11.6 C 0 km/h
1495 07-09-2010 11:05:01 11.6 C 9.15 g/m*3 11.6 C 0 km/h
1496 07-09-2010 11:17:01 11.5 C 9.09 g/m*3 11.5 C 0 km/h
1497 07-09-2010 11:29:01 11.2 C 8.92 g/m*3 11.2 C 0 km/h
1498 07-09-2010 11:41:02 11.7 C 9.41 g/m*3 11.7 C 0 km/h
1499 07-09-2010 11:53:02 12.2 C 9.5 g/m*3 12.2 C 0 km/h
1500 07-09-2010 12:05:02 12 C 9.38 g/m*3 12 C 0 km/h
Sensor: Nr:Datum:Temp:Abs-Feuchte:Windchill:Wind:
Aussen-T/F 1501 07-09-2010 12:17:02 12.4 C 9.62 g/m*3 12.4 C 0 km/h
1502 07-09-2010 12:29:02 12.4 C 9.4 g/m*3 12.4 C 0 km/h
1503 07-09-2010 12:41:02 12.5 C 9.46 g/m*3 12.5 C 0 km/h
1504 07-09-2010 12:53:02 12.8 C 9.63 g/m*3 12.8 C 0 km/h
1505 07-09-2010 13:05:02 12.7 C 9.35 g/m*3 12.7 C 0 km/h
1506 07-09-2010 13:17:02 12.8 C 9.41 g/m*3 12.8 C 0 km/h
1507 07-09-2010 13:29:02 12.8 C 9.3 g/m*3 12.8 C 0 km/h
1508 07-09-2010 13:41:02 12.7 C 9.13 g/m*3 12.7 C 0 km/h
1509 07-09-2010 13:53:01 12.9 C 9.35 g/m*3 12.9 C 0 km/h
1510 07-09-2010 14:05:01 12.9 C 9.35 g/m*3 12.9 C 0 km/h
1511 07-09-2010 14:17:01 13.1 C 9.36 g/m*3 13.1 C 0 km/h
1512 07-09-2010 14:29:01 13.3 C 9.47 g/m*3 13.3 C 0 km/h
1513 07-09-2010 14:41:01 13.4 C 9.3 g/m*3 13.4 C 0 km/h
1514 07-09-2010 14:53:01 14.1 C 9.34 g/m*3 14.1 C 0 km/h
1515 07-09-2010 15:05:01 14.4 C 9.39 g/m*3 14.4 C 0 km/h
1516 07-09-2010 15:17:02 14.4 C 8.9 g/m*3 14.4 C 0 km/h
1517 07-09-2010 15:29:02 14.7 C 9.07 g/m*3 14.7 C 0 km/h
1518 07-09-2010 15:41:01 14.7 C 9.07 g/m*3 14.7 C 0 km/h
1519 07-09-2010 15:53:03 14.7 C 9.19 g/m*3 14.7 C 0 km/h
1520 07-09-2010 16:05:02 15.3 C 9.27 g/m*3 15.3 C 0 km/h
1521 07-09-2010 16:17:02 15.6 C 9.04 g/m*3 15.6 C 0 km/h
1522 07-09-2010 16:29:02 15.7 C 9.1 g/m*3 15.7 C 0 km/h
1523 07-09-2010 16:41:02 15.6 C 9.04 g/m*3 15.6 C 0 km/h
1524 07-09-2010 16:53:02 15.4 C 9.07 g/m*3 15.4 C 0 km/h
1525 07-09-2010 17:05:02 15.2 C 8.96 g/m*3 15.2 C 0 km/h
Sensor: Nr:Datum:Temp:Abs-Feuchte:Windchill:Wind:
Aussen-T/F 1526 07-09-2010 17:17:02 14.9 C 8.92 g/m*3 14.9 C 0 km/h
1527 07-09-2010 17:29:02 14.8 C 9.12 g/m*3 14.8 C 0 km/h
1528 07-09-2010 17:41:02 14.8 C 9.12 g/m*3 14.8 C 0 km/h
1529 07-09-2010 17:53:02 14.7 C 9.19 g/m*3 14.7 C 0 km/h
1530 07-09-2010 18:05:02 14.1 C 8.86 g/m*3 14.1 C 0 km/h
1531 07-09-2010 18:17:01 14 C 9.05 g/m*3 14 C 0 km/h
1532 07-09-2010 18:29:01 14 C 9.05 g/m*3 14 C 0 km/h
1533 07-09-2010 18:41:02 13.9 C 9.23 g/m*3 13.9 C 0 km/h
1534 07-09-2010 18:53:02 13.9 C 9.23 g/m*3 13.9 C 0 km/h
1535 07-09-2010 19:05:02 13.9 C 9.35 g/m*3 13.9 C 0 km/h
1536 07-09-2010 19:17:01 13.8 C 9.29 g/m*3 13.8 C 0 km/h
1537 07-09-2010 19:29:01 13.8 C 9.41 g/m*3 13.8 C 0 km/h
1538 07-09-2010 19:41:02 13.7 C 9.35 g/m*3 13.7 C 0 km/h
1539 07-09-2010 19:53:02 13.7 C 9.47 g/m*3 13.7 C 0 km/h
1540 07-09-2010 20:05:02 13.5 C 9.47 g/m*3 13.5 C 0 km/h
1541 07-09-2010 20:17:02 13.3 C 9.47 g/m*3 13.3 C 0 km/h
1542 07-09-2010 20:29:02 13.2 C 9.53 g/m*3 13.2 C 0 km/h
1543 07-09-2010 20:41:02 13.1 C 9.59 g/m*3 13.1 C 0 km/h
1544 07-09-2010 20:53:02 13.1 C 9.7 g/m*3 13.1 C 0 km/h
1545 07-09-2010 21:05:02 13 C 9.75 g/m*3 13 C 0 km/h
1546 07-09-2010 21:17:02 13 C 9.87 g/m*3 13 C 0 km/h
1547 07-09-2010 21:29:02 13 C 9.87 g/m*3 13 C 0 km/h
1548 07-09-2010 21:41:02 13 C 9.98 g/m*3 13 C 0 km/h
1549 07-09-2010 21:53:02 12.8 C 9.97 g/m*3 12.8 C 0 km/h
1550 07-09-2010 22:05:02 12.9 C 10.03 g/m*3 12.9 C 0 km/h
Sensor: Nr:Datum:Temp:Abs-Feuchte:Windchill:Wind:
Aussen-T/F 1551 07-09-2010 22:18:05 12.9 C 10.03 g/m*3 12.9 C 0 km/h
1552 07-09-2010 22:30:05 12.9 C 10.03 g/m*3 12.9 C 0 km/h
1553 07-09-2010 22:42:05 12.8 C 9.97 g/m*3 12.8 C 0 km/h
1554 07-09-2010 22:54:05 12.8 C 10.08 g/m*3 12.8 C 0 km/h
1555 07-09-2010 23:06:05 12.9 C 10.14 g/m*3 12.9 C 0 km/h
1556 07-09-2010 23:18:05 12.9 C 10.14 g/m*3 12.9 C 0 km/h
1557 07-09-2010 23:30:05 12.8 C 10.08 g/m*3 12.8 C 0 km/h
1558 07-09-2010 23:42:05 13 C 10.21 g/m*3 13 C 0 km/h
1559 07-09-2010 23:54:05 13 C 10.21 g/m*3 13 C 0 km/h
1560 08-09-2010 00:06:05 12.9 C 10.26 g/m*3 12.9 C 0 km/h
1561 08-09-2010 00:18:05 12.8 C 10.19 g/m*3 12.8 C 0 km/h
1562 08-09-2010 00:30:05 12.9 C 10.26 g/m*3 12.9 C 0 km/h
1563 08-09-2010 00:42:06 12.9 C 10.26 g/m*3 12.9 C 0 km/h
1564 08-09-2010 00:54:06 12.9 C 10.26 g/m*3 12.9 C 0 km/h
1565 08-09-2010 01:06:06 13 C 10.32 g/m*3 13 C 0 km/h
1566 08-09-2010 01:18:06 13 C 10.32 g/m*3 13 C 0 km/h
1567 08-09-2010 01:30:06 13 C 10.32 g/m*3 13 C 0 km/h
1568 08-09-2010 01:42:06 13 C 10.43 g/m*3 13 C 0 km/h
1569 08-09-2010 01:54:06 13 C 10.43 g/m*3 13 C 0 km/h
1570 08-09-2010 02:06:06 13.1 C 10.5 g/m*3 13.1 C 0 km/h
1571 08-09-2010 02:18:06 13.1 C 10.5 g/m*3 13.1 C 0 km/h
1572 08-09-2010 02:30:06 13.2 C 10.56 g/m*3 13.2 C 0 km/h
1573 08-09-2010 02:42:06 13.2 C 10.68 g/m*3 13.2 C 0 km/h
1574 08-09-2010 02:54:06 13.4 C 10.81 g/m*3 13.4 C 0 km/h
1575 08-09-2010 03:06:06 13.4 C 10.81 g/m*3 13.4 C 0 km/h
Sensor: Nr:Datum:Temp:Abs-Feuchte:Windchill:Wind:
Aussen-T/F 1576 08-09-2010 03:18:06 13.5 C 10.88 g/m*3 13.5 C 0 km/h
1577 08-09-2010 03:30:06 13.6 C 10.95 g/m*3 13.6 C 0 km/h
1578 08-09-2010 03:42:06 13.7 C 11.01 g/m*3 13.7 C 0 km/h
1579 08-09-2010 03:54:06 13.6 C 10.95 g/m*3 13.6 C 0 km/h
1580 08-09-2010 04:06:06 13.5 C 10.88 g/m*3 13.5 C 0 km/h
1581 08-09-2010 04:18:06 13.5 C 10.88 g/m*3 13.5 C 0 km/h
1582 08-09-2010 04:30:06 13.6 C 10.95 g/m*3 13.6 C 0 km/h
1583 08-09-2010 04:42:06 13.5 C 10.88 g/m*3 13.5 C 0 km/h
1584 08-09-2010 04:54:07 13.7 C 11.01 g/m*3 13.7 C 0 km/h
1585 08-09-2010 05:06:07 14.1 C 11.29 g/m*3 14.1 C 0 km/h
1586 08-09-2010 05:18:07 14 C 11.34 g/m*3 14 C 0 km/h
1587 08-09-2010 05:30:07 14.1 C 11.41 g/m*3 14.1 C 0 km/h
1588 08-09-2010 05:42:07 14.4 C 11.62 g/m*3 14.4 C 0 km/h
1589 08-09-2010 05:54:07 14.2 C 11.36 g/m*3 14.2 C 0 km/h
1590 08-09-2010 06:06:07 14.4 C 11.5 g/m*3 14.4 C 0 km/h
1591 08-09-2010 06:18:07 14.4 C 11.5 g/m*3 14.4 C 0 km/h
1592 08-09-2010 06:30:07 14.3 C 11.43 g/m*3 14.3 C 0 km/h
1593 08-09-2010 06:42:07 14.3 C 11.43 g/m*3 14.3 C 0 km/h
1594 08-09-2010 06:54:07 14.4 C 11.37 g/m*3 14.4 C 0 km/h
1595 08-09-2010 07:06:07 14.3 C 11.3 g/m*3 14.3 C 0 km/h
1596 08-09-2010 07:18:04 14.3 C 11.3 g/m*3 14.3 C 0 km/h
1597 08-09-2010 07:30:04 14.3 C 11.3 g/m*3 14.3 C 0 km/h
1598 08-09-2010 07:42:04 14.1 C 11.17 g/m*3 14.1 C 0 km/h
1599 08-09-2010 07:54:02 14.1 C 11.17 g/m*3 14.1 C 0 km/h
1600 08-09-2010 08:06:02 14.1 C 11.17 g/m*3 14.1 C 0 km/h
Sensor: Nr:Datum:Temp:Abs-Feuchte:Windchill:Wind:
Aussen-T/F 1601 08-09-2010 08:18:02 14.1 C 11.17 g/m*3 14.1 C 0 km/h
1602 08-09-2010 08:30:02 14.2 C 11.23 g/m*3 14.2 C 0 km/h
1603 08-09-2010 08:42:02 14.3 C 11.3 g/m*3 14.3 C 0 km/h
1604 08-09-2010 08:54:02 14.4 C 11.37 g/m*3 14.4 C 0 km/h
1605 08-09-2010 09:06:01 14.8 C 11.65 g/m*3 14.8 C 0 km/h
1606 08-09-2010 09:18:02 15 C 11.54 g/m*3 15 C 0 km/h
1607 08-09-2010 09:30:02 15.3 C 11.62 g/m*3 15.3 C 0 km/h
1608 08-09-2010 09:42:02 15.5 C 11.76 g/m*3 15.5 C 0 km/h
1609 08-09-2010 09:54:02 15.5 C 11.5 g/m*3 15.5 C 0 km/h
1610 08-09-2010 10:06:02 15.5 C 11.5 g/m*3 15.5 C 0 km/h
1611 08-09-2010 10:18:02 15.3 C 11.36 g/m*3 15.3 C 0 km/h
1612 08-09-2010 10:30:02 15.5 C 11.37 g/m*3 15.5 C 0 km/h
1613 08-09-2010 10:42:02 15.6 C 11.44 g/m*3 15.6 C 0 km/h
1614 08-09-2010 10:54:02 15.7 C 11.37 g/m*3 15.7 C 0 km/h
1615 08-09-2010 11:06:02 15.7 C 11.11 g/m*3 15.7 C 0 km/h
1616 08-09-2010 11:18:02 15.4 C 10.9 g/m*3 15.4 C 0 km/h
1617 08-09-2010 11:30:02 15.1 C 10.97 g/m*3 15.1 C 0 km/h
1618 08-09-2010 11:42:02 15 C 11.03 g/m*3 15 C 0 km/h
1619 08-09-2010 11:54:02 15 C 11.16 g/m*3 15 C 0 km/h
1620 08-09-2010 12:06:02 14.6 C 11.01 g/m*3 14.6 C 0 km/h
1621 08-09-2010 12:18:03 14.6 C 11.14 g/m*3 14.6 C 0 km/h
1622 08-09-2010 12:30:03 14.7 C 11.21 g/m*3 14.7 C 0 km/h
1623 08-09-2010 12:42:02 14.8 C 11.4 g/m*3 14.8 C 0 km/h
1624 08-09-2010 12:54:01 15 C 11.54 g/m*3 15 C 0 km/h
1625 08-09-2010 13:06:01 15.5 C 11.9 g/m*3 15.5 C 0 km/h
Sensor: Nr:Datum:Temp:Abs-Feuchte:Windchill:Wind:
Aussen-T/F 1626 08-09-2010 13:18:02 15.8 C 12.11 g/m*3 15.8 C 0 km/h
1627 08-09-2010 13:30:02 16.3 C 12.35 g/m*3 16.3 C 0 km/h
1628 08-09-2010 13:42:01 16.8 C 12.44 g/m*3 16.8 C 0 km/h
1629 08-09-2010 13:54:02 16.7 C 11.8 g/m*3 16.7 C 0 km/h
1630 08-09-2010 14:06:02 17.4 C 12 g/m*3 17.4 C 0 km/h
1631 08-09-2010 14:18:02 17.2 C 11.42 g/m*3 17.2 C 0 km/h
1632 08-09-2010 14:30:02 17 C 11.29 g/m*3 17 C 0 km/h
1633 08-09-2010 14:42:02 17.9 C 11.6 g/m*3 17.9 C 0 km/h
1634 08-09-2010 14:54:02 18.4 C 11.48 g/m*3 18.4 C 0 km/h
1635 08-09-2010 15:06:01 18.2 C 11.04 g/m*3 18.2 C 0 km/h
1636 08-09-2010 15:18:01 17.8 C 11.08 g/m*3 17.8 C 0 km/h
1637 08-09-2010 15:30:02 17.6 C 11.1 g/m*3 17.6 C 0 km/h
1638 08-09-2010 15:42:01 17.8 C 11.23 g/m*3 17.8 C 0 km/h
1639 08-09-2010 15:54:02 18.3 C 11.41 g/m*3 18.3 C 0 km/h
1640 08-09-2010 16:06:01 19 C 10.92 g/m*3 19 C 0 km/h
1641 08-09-2010 16:18:01 18.7 C 10.89 g/m*3 18.7 C 0 km/h
1642 08-09-2010 16:30:01 18.5 C 10.6 g/m*3 18.5 C 0 km/h
1643 08-09-2010 16:42:02 18.5 C 10.6 g/m*3 18.5 C 0 km/h
1644 08-09-2010 16:54:02 18 C 10.44 g/m*3 18 C 0 km/h
1645 08-09-2010 17:06:02 19.3 C 10.45 g/m*3 19.3 C 0 km/h
1646 08-09-2010 17:18:02 20.4 C 10.08 g/m*3 20.4 C 0 km/h
1647 08-09-2010 17:30:02 20.5 C 10.14 g/m*3 20.5 C 0 km/h
1648 08-09-2010 17:42:02 19.5 C 10.07 g/m*3 19.5 C 0 km/h
1649 08-09-2010 17:54:02 19.7 C 10.36 g/m*3 19.7 C 0 km/h
1650 08-09-2010 18:06:02 19.3 C 10.28 g/m*3 19.3 C 0 km/h
Sensor: Nr:Datum:Temp:Abs-Feuchte:Windchill:Wind:
Aussen-T/F 1651 08-09-2010 18:18:01 20.2 C 9.97 g/m*3 20.2 C 0 km/h
1652 08-09-2010 18:30:01 19.3 C 10.12 g/m*3 19.3 C 0 km/h
1653 08-09-2010 18:42:02 18.3 C 10.16 g/m*3 18.3 C 0 km/h
1654 08-09-2010 18:54:02 18.2 C 10.57 g/m*3 18.2 C 0 km/h
1655 08-09-2010 19:06:02 18.6 C 10.66 g/m*3 18.6 C 0 km/h
1656 08-09-2010 19:18:01 18.7 C 10.57 g/m*3 18.7 C 0 km/h
1657 08-09-2010 19:30:01 18.3 C 10.48 g/m*3 18.3 C 0 km/h
1658 08-09-2010 19:42:02 17.9 C 10.69 g/m*3 17.9 C 0 km/h
1659 08-09-2010 19:54:02 17.5 C 10.29 g/m*3 17.5 C 0 km/h
1660 08-09-2010 20:06:03 17.4 C 10.52 g/m*3 17.4 C 0 km/h
1661 08-09-2010 20:18:02 17 C 10.42 g/m*3 17 C 0 km/h
1662 08-09-2010 20:30:02 16.7 C 10.66 g/m*3 16.7 C 0 km/h
1663 08-09-2010 20:42:02 16.6 C 10.74 g/m*3 16.6 C 0 km/h
1664 08-09-2010 20:54:01 16.3 C 10.27 g/m*3 16.3 C 0 km/h
1665 08-09-2010 21:06:01 15.9 C 10.02 g/m*3 15.9 C 0 km/h
1666 08-09-2010 21:18:01 15.8 C 9.69 g/m*3 15.8 C 0 km/h
1667 08-09-2010 21:30:01 15.7 C 9.63 g/m*3 15.7 C 0 km/h
1668 08-09-2010 21:42:01 15.7 C 9.63 g/m*3 15.7 C 0 km/h
1669 08-09-2010 21:54:01 15.5 C 9.52 g/m*3 15.5 C 0 km/h
1670 08-09-2010 22:06:01 15.2 C 9.48 g/m*3 15.2 C 0 km/h
1671 08-09-2010 22:18:02 14.9 C 9.56 g/m*3 14.9 C 0 km/h
1672 08-09-2010 22:30:02 14.6 C 9.76 g/m*3 14.6 C 0 km/h
1673 08-09-2010 22:42:02 14.5 C 9.95 g/m*3 14.5 C 0 km/h
1674 08-09-2010 22:55:02 14.7 C 10.2 g/m*3 14.7 C 0 km/h
1675 08-09-2010 23:07:02 14.5 C 9.95 g/m*3 14.5 C 0 km/h
Sensor: Nr:Datum:Temp:Abs-Feuchte:Windchill:Wind:
Aussen-T/F 1676 08-09-2010 23:19:02 14.5 C 10.07 g/m*3 14.5 C 0 km/h
1677 08-09-2010 23:31:02 14.6 C 10.01 g/m*3 14.6 C 0 km/h
1678 08-09-2010 23:43:02 14.5 C 10.07 g/m*3 14.5 C 0 km/h
1679 08-09-2010 23:55:03 14.3 C 9.95 g/m*3 14.3 C 0 km/h
1680 09-09-2010 00:07:03 14.4 C 10.14 g/m*3 14.4 C 0 km/h
1681 09-09-2010 00:19:03 14.4 C 10.14 g/m*3 14.4 C 0 km/h
1682 09-09-2010 00:31:03 14.1 C 10.07 g/m*3 14.1 C 0 km/h
1683 09-09-2010 00:43:03 14.5 C 10.32 g/m*3 14.5 C 0 km/h
1684 09-09-2010 00:55:03 14.5 C 10.32 g/m*3 14.5 C 0 km/h
1685 09-09-2010 01:07:03 14.8 C 10.39 g/m*3 14.8 C 0 km/h
1686 09-09-2010 01:19:03 15 C 10 g/m*3 15 C 0 km/h
1687 09-09-2010 01:31:03 15.1 C 10.06 g/m*3 15.1 C 0 km/h
1688 09-09-2010 01:43:03 15.2 C 9.99 g/m*3 15.2 C 0 km/h
1689 09-09-2010 01:55:03 15.1 C 9.93 g/m*3 15.1 C 0 km/h
1690 09-09-2010 02:07:03 15.2 C 9.99 g/m*3 15.2 C 0 km/h
1691 09-09-2010 02:19:03 15.1 C 9.93 g/m*3 15.1 C 0 km/h
1692 09-09-2010 02:31:03 15.1 C 9.93 g/m*3 15.1 C 0 km/h
1693 09-09-2010 02:43:03 15.1 C 9.93 g/m*3 15.1 C 0 km/h
1694 09-09-2010 02:55:03 15.2 C 9.86 g/m*3 15.2 C 0 km/h
1695 09-09-2010 03:07:03 15.2 C 9.86 g/m*3 15.2 C 0 km/h
1696 09-09-2010 03:19:03 15.3 C 9.79 g/m*3 15.3 C 0 km/h
1697 09-09-2010 03:31:03 15.3 C 9.79 g/m*3 15.3 C 0 km/h
1698 09-09-2010 03:43:03 15.4 C 9.72 g/m*3 15.4 C 0 km/h
1699 09-09-2010 03:55:04 15.4 C 9.72 g/m*3 15.4 C 0 km/h
1700 09-09-2010 04:07:04 15.4 C 9.59 g/m*3 15.4 C 0 km/h
Sensor: Nr:Datum:Temp:Abs-Feuchte:Windchill:Wind:
Aussen-T/F 1701 09-09-2010 04:19:04 15.2 C 9.48 g/m*3 15.2 C 0 km/h
1702 09-09-2010 04:31:04 15.2 C 9.35 g/m*3 15.2 C 0 km/h
1703 09-09-2010 04:43:04 15.2 C 9.22 g/m*3 15.2 C 0 km/h
1704 09-09-2010 04:55:04 15.1 C 9.03 g/m*3 15.1 C 0 km/h
1705 09-09-2010 05:07:04 14.9 C 9.05 g/m*3 14.9 C 0 km/h
1706 09-09-2010 05:19:04 14.9 C 9.05 g/m*3 14.9 C 0 km/h
1707 09-09-2010 05:31:04 14.9 C 9.05 g/m*3 14.9 C 0 km/h
1708 09-09-2010 05:43:04 14.9 C 9.05 g/m*3 14.9 C 0 km/h
1709 09-09-2010 05:55:04 14.9 C 8.92 g/m*3 14.9 C 0 km/h
1710 09-09-2010 06:07:04 14.8 C 8.87 g/m*3 14.8 C 0 km/h
1711 09-09-2010 06:19:04 14.8 C 8.87 g/m*3 14.8 C 0 km/h
1712 09-09-2010 06:31:04 14.8 C 8.87 g/m*3 14.8 C 0 km/h
1713 09-09-2010 06:43:04 14.8 C 8.87 g/m*3 14.8 C 0 km/h
1714 09-09-2010 06:55:04 14.7 C 8.94 g/m*3 14.7 C 0 km/h
1715 09-09-2010 07:07:04 14.5 C 9.08 g/m*3 14.5 C 0 km/h
1716 09-09-2010 07:19:04 14.5 C 9.08 g/m*3 14.5 C 0 km/h
1717 09-09-2010 07:31:04 14.6 C 9.13 g/m*3 14.6 C 0 km/h
1718 09-09-2010 07:43:04 14.6 C 9.01 g/m*3 14.6 C 0 km/h
1719 09-09-2010 07:55:04 14.7 C 9.07 g/m*3 14.7 C 0 km/h
1720 09-09-2010 08:07:02 14.7 C 9.07 g/m*3 14.7 C 0 km/h
1721 09-09-2010 08:19:02 14.8 C 9.12 g/m*3 14.8 C 0 km/h
1722 09-09-2010 08:31:02 14.8 C 9.12 g/m*3 14.8 C 0 km/h
1723 09-09-2010 08:43:02 14.8 C 9.12 g/m*3 14.8 C 0 km/h
1724 09-09-2010 08:55:02 14.9 C 9.05 g/m*3 14.9 C 0 km/h
1725 09-09-2010 09:07:02 14.9 C 9.05 g/m*3 14.9 C 0 km/h
Sensor: Nr:Datum:Temp:Abs-Feuchte:Windchill:Wind:
Aussen-T/F 1726 09-09-2010 09:19:03 14.9 C 9.05 g/m*3 14.9 C 0 km/h
1727 09-09-2010 09:31:02 15.2 C 9.09 g/m*3 15.2 C 0 km/h
1728 09-09-2010 09:43:02 15.5 C 9.12 g/m*3 15.5 C 0 km/h
1729 09-09-2010 09:55:01 15.8 C 9.15 g/m*3 15.8 C 0 km/h
1730 09-09-2010 10:07:02 16 C 8.99 g/m*3 16 C 0 km/h
1731 09-09-2010 10:19:02 16.4 C 9.07 g/m*3 16.4 C 0 km/h
1732 09-09-2010 10:31:01 16.8 C 9.15 g/m*3 16.8 C 0 km/h
1733 09-09-2010 10:43:01 17.2 C 9.08 g/m*3 17.2 C 0 km/h
1734 09-09-2010 10:55:02 17.4 C 9.19 g/m*3 17.4 C 0 km/h
1735 09-09-2010 11:07:01 17.5 C 9.09 g/m*3 17.5 C 0 km/h
1736 09-09-2010 11:19:02 17.5 C 9.09 g/m*3 17.5 C 0 km/h
1737 09-09-2010 11:31:02 17.8 C 8.8 g/m*3 17.8 C 0 km/h
1738 09-09-2010 11:43:02 17.8 C 8.65 g/m*3 17.8 C 0 km/h
1739 09-09-2010 11:55:02 18.3 C 8.76 g/m*3 18.3 C 0 km/h
1740 09-09-2010 12:07:01 18.5 C 8.23 g/m*3 18.5 C 0 km/h
1741 09-09-2010 12:19:02 18.6 C 8.28 g/m*3 18.6 C 0 km/h
1742 09-09-2010 12:31:02 18.6 C 8.12 g/m*3 18.6 C 0 km/h
1743 09-09-2010 12:43:02 19 C 8.15 g/m*3 19 C 0 km/h
1744 09-09-2010 12:55:02 18.5 C 8.07 g/m*3 18.5 C 0 km/h
1745 09-09-2010 13:07:02 18.6 C 8.28 g/m*3 18.6 C 0 km/h
1746 09-09-2010 13:19:02 18.7 C 8.17 g/m*3 18.7 C 0 km/h
1747 09-09-2010 13:31:02 18.7 C 8.01 g/m*3 18.7 C 0 km/h
1748 09-09-2010 13:43:02 19 C 8.15 g/m*3 19 C 0 km/h
1749 09-09-2010 13:55:02 19 C 8.47 g/m*3 19 C 0 km/h
1750 09-09-2010 14:07:02 18.6 C 8.12 g/m*3 18.6 C 0 km/h
Sensor: Nr:Datum:Temp:Abs-Feuchte:Windchill:Wind:
Aussen-T/F 1751 09-09-2010 14:19:02 18.4 C 8.18 g/m*3 18.4 C 0 km/h
1752 09-09-2010 14:31:02 18.8 C 8.86 g/m*3 18.8 C 0 km/h
1753 09-09-2010 14:43:02 19.3 C 8.79 g/m*3 19.3 C 0 km/h
1754 09-09-2010 14:55:02 19.8 C 9.05 g/m*3 19.8 C 0 km/h
1755 09-09-2010 15:07:02 20.3 C 8.97 g/m*3 20.3 C 0 km/h
1756 09-09-2010 15:19:02 20.3 C 8.97 g/m*3 20.3 C 0 km/h
1757 09-09-2010 15:31:02 19.5 C 8.89 g/m*3 19.5 C 0 km/h
1758 09-09-2010 15:43:02 18.7 C 9.29 g/m*3 18.7 C 0 km/h
1759 09-09-2010 15:55:02 18.1 C 9.43 g/m*3 18.1 C 0 km/h
1760 09-09-2010 16:07:01 17.7 C 9.51 g/m*3 17.7 C 0 km/h
1761 09-09-2010 16:19:02 16.1 C 10.14 g/m*3 16.1 C 0 km/h
1762 09-09-2010 16:31:01 16.1 C 10.42 g/m*3 16.1 C 0 km/h
1763 09-09-2010 16:43:01 17.1 C 11.79 g/m*3 17.1 C 0 km/h
1764 09-09-2010 16:55:02 18.5 C 12.82 g/m*3 18.5 C 0 km/h
1765 09-09-2010 17:07:02 18.2 C 12.28 g/m*3 18.2 C 0 km/h
1766 09-09-2010 17:19:02 18 C 12.13 g/m*3 18 C 0 km/h
1767 09-09-2010 17:31:02 17.9 C 11.45 g/m*3 17.9 C 0 km/h
1768 09-09-2010 17:43:02 17.8 C 11.08 g/m*3 17.8 C 0 km/h
1769 09-09-2010 17:55:02 17.7 C 11.16 g/m*3 17.7 C 0 km/h
1770 09-09-2010 18:07:02 17.7 C 11.32 g/m*3 17.7 C 0 km/h
1771 09-09-2010 18:19:01 17.7 C 10.86 g/m*3 17.7 C 0 km/h
1772 09-09-2010 18:31:02 17.7 C 10.41 g/m*3 17.7 C 0 km/h
1773 09-09-2010 18:43:03 17.9 C 10.38 g/m*3 17.9 C 0 km/h
1774 09-09-2010 18:55:02 17.5 C 9.39 g/m*3 17.5 C 0 km/h
1775 09-09-2010 19:07:02 17.2 C 9.37 g/m*3 17.2 C 0 km/h
Sensor: Nr:Datum:Temp:Abs-Feuchte:Windchill:Wind:
Aussen-T/F 1776 09-09-2010 19:19:01 16.8 C 9.44 g/m*3 16.8 C 0 km/h
1777 09-09-2010 19:31:02 16.5 C 9.55 g/m*3 16.5 C 0 km/h
1778 09-09-2010 19:43:02 16.2 C 9.52 g/m*3 16.2 C 0 km/h
1779 09-09-2010 19:55:01 16 C 9.4 g/m*3 16 C 0 km/h
1780 09-09-2010 20:07:02 15.9 C 9.48 g/m*3 15.9 C 0 km/h
1781 09-09-2010 20:19:02 15.8 C 9.42 g/m*3 15.8 C 0 km/h
1782 09-09-2010 20:31:01 15.4 C 9.72 g/m*3 15.4 C 0 km/h
1783 09-09-2010 20:43:01 15 C 10 g/m*3 15 C 0 km/h
1784 09-09-2010 20:55:01 14.9 C 10.2 g/m*3 14.9 C 0 km/h
1785 09-09-2010 21:07:01 14.9 C 10.32 g/m*3 14.9 C 0 km/h
1786 09-09-2010 21:19:02 14.9 C 10.32 g/m*3 14.9 C 0 km/h
1787 09-09-2010 21:31:01 14.8 C 10.26 g/m*3 14.8 C 0 km/h
1788 09-09-2010 21:43:01 14.7 C 10.2 g/m*3 14.7 C 0 km/h
1789 09-09-2010 21:55:02 14.7 C 10.2 g/m*3 14.7 C 0 km/h
1790 09-09-2010 22:07:02 14.7 C 10.2 g/m*3 14.7 C 0 km/h
1791 09-09-2010 22:19:01 14.8 C 10.13 g/m*3 14.8 C 0 km/h
1792 09-09-2010 22:31:01 14.8 C 10.26 g/m*3 14.8 C 0 km/h
1793 09-09-2010 22:43:01 14.7 C 10.2 g/m*3 14.7 C 0 km/h
1794 09-09-2010 22:56:02 14.7 C 10.07 g/m*3 14.7 C 0 km/h
1795 09-09-2010 23:08:02 14.8 C 10.01 g/m*3 14.8 C 0 km/h
1796 09-09-2010 23:20:03 15 C 9.75 g/m*3 15 C 0 km/h
1797 09-09-2010 23:32:03 15 C 9.62 g/m*3 15 C 0 km/h
1798 09-09-2010 23:44:03 15.1 C 9.68 g/m*3 15.1 C 0 km/h
1799 09-09-2010 23:56:03 15 C 9.49 g/m*3 15 C 0 km/h
1800 10-09-2010 00:08:03 14.9 C 9.81 g/m*3 14.9 C 0 km/h
Sensor: Nr:Datum:Temp:Abs-Feuchte:Windchill:Wind:
Aussen-T/F 1801 10-09-2010 00:20:03 14.8 C 9.88 g/m*3 14.8 C 0 km/h
1802 10-09-2010 00:32:03 14.6 C 10.01 g/m*3 14.6 C 0 km/h
1803 10-09-2010 00:44:03 14.6 C 10.01 g/m*3 14.6 C 0 km/h
1804 10-09-2010 00:56:03 14.4 C 9.89 g/m*3 14.4 C 0 km/h
1805 10-09-2010 01:08:03 14.3 C 9.83 g/m*3 14.3 C 0 km/h
1806 10-09-2010 01:20:03 14.1 C 9.71 g/m*3 14.1 C 0 km/h
1807 10-09-2010 01:32:03 13.9 C 9.71 g/m*3 13.9 C 0 km/h
1808 10-09-2010 01:44:03 13.8 C 9.77 g/m*3 13.8 C 0 km/h
1809 10-09-2010 01:56:03 13.9 C 9.83 g/m*3 13.9 C 0 km/h
1810 10-09-2010 02:08:03 13.8 C 9.89 g/m*3 13.8 C 0 km/h
1811 10-09-2010 02:20:03 13.8 C 9.89 g/m*3 13.8 C 0 km/h
1812 10-09-2010 02:32:03 13.9 C 10.07 g/m*3 13.9 C 0 km/h
1813 10-09-2010 02:44:03 14 C 10.01 g/m*3 14 C 0 km/h
1814 10-09-2010 02:56:03 14 C 9.89 g/m*3 14 C 0 km/h
1815 10-09-2010 03:08:03 14 C 10.01 g/m*3 14 C 0 km/h
1816 10-09-2010 03:20:03 14 C 10.01 g/m*3 14 C 0 km/h
1817 10-09-2010 03:32:04 13.9 C 10.07 g/m*3 13.9 C 0 km/h
1818 10-09-2010 03:44:04 13.8 C 10.13 g/m*3 13.8 C 0 km/h
1819 10-09-2010 03:56:04 13.8 C 10.13 g/m*3 13.8 C 0 km/h
1820 10-09-2010 04:08:04 13.9 C 10.31 g/m*3 13.9 C 0 km/h
1821 10-09-2010 04:20:04 14 C 10.25 g/m*3 14 C 0 km/h
1822 10-09-2010 04:32:04 13.9 C 10.31 g/m*3 13.9 C 0 km/h
1823 10-09-2010 04:44:04 13.8 C 10.25 g/m*3 13.8 C 0 km/h
1824 10-09-2010 04:56:04 13.6 C 10.12 g/m*3 13.6 C 0 km/h
1825 10-09-2010 05:08:04 13.4 C 10 g/m*3 13.4 C 0 km/h
Sensor: Nr:Datum:Temp:Abs-Feuchte:Windchill:Wind:
Aussen-T/F 1826 10-09-2010 05:20:04 13.2 C 9.99 g/m*3 13.2 C 0 km/h
1827 10-09-2010 05:32:04 13.1 C 10.04 g/m*3 13.1 C 0 km/h
1828 10-09-2010 05:44:04 12.8 C 9.97 g/m*3 12.8 C 0 km/h
1829 10-09-2010 05:56:04 12.8 C 9.97 g/m*3 12.8 C 0 km/h
1830 10-09-2010 06:08:04 13.2 C 10.33 g/m*3 13.2 C 0 km/h
1831 10-09-2010 06:20:04 13 C 10.09 g/m*3 13 C 0 km/h
1832 10-09-2010 06:32:04 13.1 C 10.27 g/m*3 13.1 C 0 km/h
1833 10-09-2010 06:44:04 13.1 C 10.27 g/m*3 13.1 C 0 km/h
1834 10-09-2010 06:56:04 13.2 C 10.22 g/m*3 13.2 C 0 km/h
1835 10-09-2010 07:08:04 13.1 C 10.16 g/m*3 13.1 C 0 km/h
1836 10-09-2010 07:20:04 13.2 C 9.99 g/m*3 13.2 C 0 km/h
1837 10-09-2010 07:32:05 13.3 C 9.7 g/m*3 13.3 C 0 km/h
1838 10-09-2010 07:44:05 13.2 C 9.64 g/m*3 13.2 C 0 km/h
1839 10-09-2010 07:56:02 13.1 C 9.7 g/m*3 13.1 C 0 km/h
1840 10-09-2010 08:08:02 13.1 C 9.81 g/m*3 13.1 C 0 km/h
1841 10-09-2010 08:20:02 13.1 C 9.93 g/m*3 13.1 C 0 km/h
1842 10-09-2010 08:32:02 13.2 C 9.99 g/m*3 13.2 C 0 km/h
1843 10-09-2010 08:44:03 13.5 C 10.06 g/m*3 13.5 C 0 km/h
1844 10-09-2010 08:56:02 13.7 C 9.95 g/m*3 13.7 C 0 km/h
1845 10-09-2010 09:08:02 14 C 9.77 g/m*3 14 C 0 km/h
1846 10-09-2010 09:20:02 14.4 C 9.64 g/m*3 14.4 C 0 km/h
1847 10-09-2010 09:32:02 14.5 C 9.58 g/m*3 14.5 C 0 km/h
1848 10-09-2010 09:44:02 14.9 C 9.43 g/m*3 14.9 C 0 km/h
1849 10-09-2010 09:56:02 15.2 C 9.22 g/m*3 15.2 C 0 km/h
1850 10-09-2010 10:08:02 15.5 C 9.39 g/m*3 15.5 C 0 km/h
Sensor: Nr:Datum:Temp:Abs-Feuchte:Windchill:Wind:
Aussen-T/F 1851 10-09-2010 10:20:03 15.7 C 9.23 g/m*3 15.7 C 0 km/h
1852 10-09-2010 10:32:02 16.2 C 9.38 g/m*3 16.2 C 0 km/h
1853 10-09-2010 10:44:02 16.6 C 9.46 g/m*3 16.6 C 0 km/h
1854 10-09-2010 10:56:02 16.8 C 9.29 g/m*3 16.8 C 0 km/h
1855 10-09-2010 11:08:02 17.2 C 9.37 g/m*3 17.2 C 0 km/h
1856 10-09-2010 11:20:02 17.7 C 9.51 g/m*3 17.7 C 0 km/h
1857 10-09-2010 11:32:02 18.1 C 9.12 g/m*3 18.1 C 0 km/h
1858 10-09-2010 11:44:02 18.1 C 8.96 g/m*3 18.1 C 0 km/h
1859 10-09-2010 11:56:02 18.3 C 9.07 g/m*3 18.3 C 0 km/h
1860 10-09-2010 12:08:01 18.6 C 9.07 g/m*3 18.6 C 0 km/h
1861 10-09-2010 12:20:02 18.7 C 9.13 g/m*3 18.7 C 0 km/h
1862 10-09-2010 12:32:02 18.4 C 9.12 g/m*3 18.4 C 0 km/h
1863 10-09-2010 12:44:02 18.8 C 9.34 g/m*3 18.8 C 0 km/h
1864 10-09-2010 12:56:02 19.2 C 9.23 g/m*3 19.2 C 0 km/h
1865 10-09-2010 13:08:03 19.5 C 8.89 g/m*3 19.5 C 0 km/h
1866 10-09-2010 13:20:02 19.4 C 8.84 g/m*3 19.4 C 0 km/h
1867 10-09-2010 13:32:02 19 C 8.47 g/m*3 19 C 0 km/h
1868 10-09-2010 13:44:02 19 C 8.47 g/m*3 19 C 0 km/h
1869 10-09-2010 13:56:01 19 C 8.64 g/m*3 19 C 0 km/h
1870 10-09-2010 14:08:02 19.3 C 8.79 g/m*3 19.3 C 0 km/h
1871 10-09-2010 14:20:01 19.9 C 8.76 g/m*3 19.9 C 0 km/h
1872 10-09-2010 14:32:01 20.4 C 8.67 g/m*3 20.4 C 0 km/h
1873 10-09-2010 14:44:01 20.2 C 8.74 g/m*3 20.2 C 0 km/h
1874 10-09-2010 14:56:01 19.9 C 8.76 g/m*3 19.9 C 0 km/h
1875 10-09-2010 15:08:02 20 C 8.64 g/m*3 20 C 0 km/h
Sensor: Nr:Datum:Temp:Abs-Feuchte:Windchill:Wind:
Aussen-T/F 1876 10-09-2010 15:20:02 20.6 C 8.95 g/m*3 20.6 C 0 km/h
1877 10-09-2010 15:32:01 20.9 C 8.38 g/m*3 20.9 C 0 km/h
1878 10-09-2010 15:44:01 21.2 C 8.34 g/m*3 21.2 C 0 km/h
1879 10-09-2010 15:56:02 21.4 C 8.62 g/m*3 21.4 C 0 km/h
1880 10-09-2010 16:08:01 21.2 C 8.34 g/m*3 21.2 C 0 km/h
1881 10-09-2010 16:20:02 20.8 C 8.33 g/m*3 20.8 C 0 km/h
1882 10-09-2010 16:32:01 21.1 C 8.48 g/m*3 21.1 C 0 km/h
1883 10-09-2010 16:44:01 21.2 C 8.71 g/m*3 21.2 C 0 km/h
1884 10-09-2010 16:56:02 21.2 C 8.34 g/m*3 21.2 C 0 km/h
1885 10-09-2010 17:08:02 20.9 C 8.56 g/m*3 20.9 C 0 km/h
1886 10-09-2010 17:20:02 20.5 C 8.9 g/m*3 20.5 C 0 km/h
1887 10-09-2010 17:32:03 20.1 C 9.04 g/m*3 20.1 C 0 km/h
1888 10-09-2010 17:44:03 19.8 C 9.39 g/m*3 19.8 C 0 km/h
1889 10-09-2010 17:56:02 19.6 C 8.95 g/m*3 19.6 C 0 km/h
1890 10-09-2010 18:08:02 19.4 C 9.18 g/m*3 19.4 C 0 km/h
1891 10-09-2010 18:20:02 18.9 C 9.56 g/m*3 18.9 C 0 km/h
1892 10-09-2010 18:32:02 17.8 C 10.17 g/m*3 17.8 C 0 km/h
1893 10-09-2010 18:44:02 16.8 C 10.72 g/m*3 16.8 C 0 km/h
1894 10-09-2010 18:56:02 16.4 C 11.03 g/m*3 16.4 C 0 km/h
1895 10-09-2010 19:08:02 16.4 C 11.31 g/m*3 16.4 C 0 km/h
1896 10-09-2010 19:20:02 16.8 C 11.72 g/m*3 16.8 C 0 km/h
1897 10-09-2010 19:32:02 16.3 C 11.38 g/m*3 16.3 C 0 km/h
1898 10-09-2010 19:44:02 16 C 11.31 g/m*3 16 C 0 km/h
1899 10-09-2010 19:56:02 15.8 C 11.44 g/m*3 15.8 C 0 km/h
1900 10-09-2010 20:08:03 15.8 C 11.58 g/m*3 15.8 C 0 km/h
Sensor: Nr:Datum:Temp:Abs-Feuchte:Windchill:Wind:
Aussen-T/F 1901 10-09-2010 20:20:02 15.7 C 11.51 g/m*3 15.7 C 0 km/h
1902 10-09-2010 20:32:03 15.6 C 11.57 g/m*3 15.6 C 0 km/h
1903 10-09-2010 20:44:03 15.6 C 11.57 g/m*3 15.6 C 0 km/h
1904 10-09-2010 20:56:02 15.7 C 11.64 g/m*3 15.7 C 0 km/h
1905 10-09-2010 21:08:01 15.8 C 11.71 g/m*3 15.8 C 0 km/h
1906 10-09-2010 21:20:02 15.8 C 11.71 g/m*3 15.8 C 0 km/h
1907 10-09-2010 21:32:02 15.8 C 11.71 g/m*3 15.8 C 0 km/h
1908 10-09-2010 21:44:02 15.8 C 11.71 g/m*3 15.8 C 0 km/h
1909 10-09-2010 21:56:02 15.8 C 11.58 g/m*3 15.8 C 0 km/h
1910 10-09-2010 22:08:01 15.8 C 11.58 g/m*3 15.8 C 0 km/h
1911 10-09-2010 22:20:02 15.8 C 11.58 g/m*3 15.8 C 0 km/h
1912 10-09-2010 22:32:01 15.7 C 11.51 g/m*3 15.7 C 0 km/h
1913 10-09-2010 22:44:01 15.6 C 11.3 g/m*3 15.6 C 0 km/h
1914 10-09-2010 22:57:03 15.5 C 11.24 g/m*3 15.5 C 0 km/h
1915 10-09-2010 23:09:03 15.6 C 11.3 g/m*3 15.6 C 0 km/h
1916 10-09-2010 23:21:03 15.5 C 11.24 g/m*3 15.5 C 0 km/h
1917 10-09-2010 23:33:03 15.5 C 11.24 g/m*3 15.5 C 0 km/h
1918 10-09-2010 23:45:03 15.4 C 11.17 g/m*3 15.4 C 0 km/h
1919 10-09-2010 23:57:03 15.3 C 10.97 g/m*3 15.3 C 0 km/h
1920 11-09-2010 00:09:03 15.2 C 10.9 g/m*3 15.2 C 0 km/h
1921 11-09-2010 00:21:03 15.2 C 10.9 g/m*3 15.2 C 0 km/h
1922 11-09-2010 00:33:03 15.1 C 10.84 g/m*3 15.1 C 0 km/h
1923 11-09-2010 00:45:03 15.1 C 10.84 g/m*3 15.1 C 0 km/h
1924 11-09-2010 00:57:03 15.1 C 10.84 g/m*3 15.1 C 0 km/h
1925 11-09-2010 01:09:03 15.1 C 10.84 g/m*3 15.1 C 0 km/h
Sensor: Nr:Datum:Temp:Abs-Feuchte:Windchill:Wind:
Aussen-T/F 1926 11-09-2010 01:21:03 15 C 10.77 g/m*3 15 C 0 km/h
1927 11-09-2010 01:33:03 15 C 10.77 g/m*3 15 C 0 km/h
1928 11-09-2010 01:45:04 15 C 10.77 g/m*3 15 C 0 km/h
1929 11-09-2010 01:57:04 14.9 C 10.83 g/m*3 14.9 C 0 km/h
1930 11-09-2010 02:09:04 14.9 C 10.83 g/m*3 14.9 C 0 km/h
1931 11-09-2010 02:21:04 14.8 C 10.77 g/m*3 14.8 C 0 km/h
1932 11-09-2010 02:33:04 14.7 C 10.58 g/m*3 14.7 C 0 km/h
1933 11-09-2010 02:45:04 14.7 C 10.7 g/m*3 14.7 C 0 km/h
1934 11-09-2010 02:57:04 14.6 C 10.76 g/m*3 14.6 C 0 km/h
1935 11-09-2010 03:09:04 14.4 C 10.63 g/m*3 14.4 C 0 km/h
1936 11-09-2010 03:21:04 14.3 C 10.57 g/m*3 14.3 C 0 km/h
1937 11-09-2010 03:33:04 14.1 C 10.44 g/m*3 14.1 C 0 km/h
1938 11-09-2010 03:45:04 14 C 10.37 g/m*3 14 C 0 km/h
1939 11-09-2010 03:57:04 13.6 C 10.12 g/m*3 13.6 C 0 km/h
1940 11-09-2010 04:09:04 13.5 C 10.06 g/m*3 13.5 C 0 km/h
1941 11-09-2010 04:21:04 13.3 C 9.94 g/m*3 13.3 C 0 km/h
1942 11-09-2010 04:33:04 13.1 C 9.81 g/m*3 13.1 C 0 km/h
1943 11-09-2010 04:45:04 13 C 9.75 g/m*3 13 C 0 km/h
1944 11-09-2010 04:57:04 12.8 C 9.74 g/m*3 12.8 C 0 km/h
1945 11-09-2010 05:09:04 12.6 C 9.62 g/m*3 12.6 C 0 km/h
1946 11-09-2010 05:21:04 12.5 C 9.68 g/m*3 12.5 C 0 km/h
1947 11-09-2010 05:33:04 12.6 C 9.74 g/m*3 12.6 C 0 km/h
1948 11-09-2010 05:45:05 12.7 C 9.91 g/m*3 12.7 C 0 km/h
1949 11-09-2010 05:57:05 12.8 C 9.97 g/m*3 12.8 C 0 km/h
1950 11-09-2010 06:09:05 13 C 10.09 g/m*3 13 C 0 km/h
Sensor: Nr:Datum:Temp:Abs-Feuchte:Windchill:Wind:
Aussen-T/F 1951 11-09-2010 06:21:05 13.1 C 10.16 g/m*3 13.1 C 0 km/h
1952 11-09-2010 06:33:05 12.8 C 9.97 g/m*3 12.8 C 0 km/h
1953 11-09-2010 06:45:05 12.5 C 9.78 g/m*3 12.5 C 0 km/h
1954 11-09-2010 06:57:05 12.3 C 9.56 g/m*3 12.3 C 0 km/h
1955 11-09-2010 07:09:05 12.1 C 9.44 g/m*3 12.1 C 0 km/h
1956 11-09-2010 07:21:05 12.1 C 9.44 g/m*3 12.1 C 0 km/h
1957 11-09-2010 07:33:05 12.1 C 9.54 g/m*3 12.1 C 0 km/h
1958 11-09-2010 07:45:05 12.1 C 9.54 g/m*3 12.1 C 0 km/h
1959 11-09-2010 07:57:05 12.4 C 9.72 g/m*3 12.4 C 0 km/h
1960 11-09-2010 08:09:05 12.7 C 10.02 g/m*3 12.7 C 0 km/h
1961 11-09-2010 08:21:03 13 C 10.21 g/m*3 13 C 0 km/h
1962 11-09-2010 08:33:02 13 C 10.21 g/m*3 13 C 0 km/h
1963 11-09-2010 08:45:02 13.1 C 10.27 g/m*3 13.1 C 0 km/h
1964 11-09-2010 08:57:02 13.4 C 10.46 g/m*3 13.4 C 0 km/h
1965 11-09-2010 09:09:02 13.4 C 10.35 g/m*3 13.4 C 0 km/h
1966 11-09-2010 09:21:02 13.5 C 10.41 g/m*3 13.5 C 0 km/h
1967 11-09-2010 09:33:02 13.7 C 10.54 g/m*3 13.7 C 0 km/h
1968 11-09-2010 09:45:01 13.9 C 10.67 g/m*3 13.9 C 0 km/h
1969 11-09-2010 09:57:01 14.3 C 10.81 g/m*3 14.3 C 0 km/h
1970 11-09-2010 10:09:02 14.7 C 11.08 g/m*3 14.7 C 0 km/h
1971 11-09-2010 10:21:01 15 C 11.03 g/m*3 15 C 0 km/h
1972 11-09-2010 10:33:01 15.6 C 11.3 g/m*3 15.6 C 0 km/h
1973 11-09-2010 10:45:01 16.2 C 11.45 g/m*3 16.2 C 0 km/h
1974 11-09-2010 10:57:01 16.8 C 11.72 g/m*3 16.8 C 0 km/h
1975 11-09-2010 11:09:01 17.1 C 11.5 g/m*3 17.1 C 0 km/h
Sensor: Nr:Datum:Temp:Abs-Feuchte:Windchill:Wind:
Aussen-T/F 1976 11-09-2010 11:21:02 17.5 C 11.18 g/m*3 17.5 C 0 km/h
1977 11-09-2010 11:33:01 18.2 C 11.35 g/m*3 18.2 C 0 km/h
1978 11-09-2010 11:45:03 19.1 C 11.31 g/m*3 19.1 C 0 km/h
1979 11-09-2010 11:57:03 19.3 C 11.44 g/m*3 19.3 C 0 km/h
1980 11-09-2010 12:09:02 19.2 C 9.89 g/m*3 19.2 C 0 km/h
1981 11-09-2010 12:21:02 19.6 C 9.96 g/m*3 19.6 C 0 km/h
1982 11-09-2010 12:33:02 19.9 C 9.45 g/m*3 19.9 C 0 km/h
1983 11-09-2010 12:45:02 20.2 C 9.27 g/m*3 20.2 C 0 km/h
1984 11-09-2010 12:57:02 20.6 C 9.31 g/m*3 20.6 C 0 km/h
1985 11-09-2010 13:09:02 20.9 C 9.11 g/m*3 20.9 C 0 km/h
1986 11-09-2010 13:21:02 21.3 C 8.76 g/m*3 21.3 C 0 km/h
1987 11-09-2010 13:33:01 21.7 C 8.97 g/m*3 21.7 C 0 km/h
1988 11-09-2010 13:45:02 22.2 C 8.44 g/m*3 22.2 C 0 km/h
1989 11-09-2010 13:57:03 22.7 C 8.69 g/m*3 22.7 C 0 km/h
1990 11-09-2010 14:09:01 23.3 C 8.15 g/m*3 23.3 C 0 km/h
1991 11-09-2010 14:21:01 23.9 C 8.44 g/m*3 23.9 C 0 km/h
1992 11-09-2010 14:33:02 24.3 C 8.19 g/m*3 24.3 C 0 km/h
1993 11-09-2010 14:45:02 24.5 C 7.83 g/m*3 24.5 C 0 km/h
1994 11-09-2010 14:57:02 25 C 8.06 g/m*3 25 C 0 km/h
1995 11-09-2010 15:09:02 25.6 C 8.09 g/m*3 25.6 C 0 km/h
1996 11-09-2010 15:21:02 25.7 C 7.9 g/m*3 25.7 C 0 km/h
1997 11-09-2010 15:33:02 25.6 C 8.57 g/m*3 25.6 C 0 km/h
1998 11-09-2010 15:45:02 26.5 C 7.51 g/m*3 26.5 C 0 km/h
1999 11-09-2010 15:57:02 26.8 C 7.13 g/m*3 26.8 C 0 km/h
2000 11-09-2010 16:09:02 25.7 C 7.66 g/m*3 25.7 C 0 km/h
Sensor: Nr:Datum:Temp:Abs-Feuchte:Windchill:Wind:
Aussen-T/F 2001 11-09-2010 16:21:02 25.3 C 9.13 g/m*3 25.3 C 0 km/h
2002 11-09-2010 16:33:02 26.5 C 8.01 g/m*3 26.5 C 0 km/h
2003 11-09-2010 16:45:02 26.4 C 7.72 g/m*3 26.4 C 0 km/h
2004 11-09-2010 16:57:02 27.8 C 8.34 g/m*3 27.8 C 0 km/h
2005 11-09-2010 17:09:02 28 C 7.61 g/m*3 28 C 0 km/h
2006 11-09-2010 17:21:02 27.3 C 7.85 g/m*3 27.3 C 0 km/h
2007 11-09-2010 17:33:02 27.5 C 8.47 g/m*3 27.5 C 0 km/h
2008 11-09-2010 17:45:02 27.6 C 8.78 g/m*3 27.6 C 0 km/h
2009 11-09-2010 17:57:02 27.7 C 8.83 g/m*3 27.7 C 0 km/h
2010 11-09-2010 18:09:02 27.5 C 9.26 g/m*3 27.5 C 0 km/h
2011 11-09-2010 18:21:02 26.8 C 9.16 g/m*3 26.8 C 0 km/h
2012 11-09-2010 18:33:01 26.3 C 8.91 g/m*3 26.3 C 0 km/h
2013 11-09-2010 18:45:02 25.3 C 9.36 g/m*3 25.3 C 0 km/h
2014 11-09-2010 18:57:02 24.4 C 9.57 g/m*3 24.4 C 0 km/h
2015 11-09-2010 19:09:01 23.7 C 9.63 g/m*3 23.7 C 0 km/h
2016 11-09-2010 19:21:02 22.6 C 9.64 g/m*3 22.6 C 0 km/h
2017 11-09-2010 19:33:02 21.6 C 10.05 g/m*3 21.6 C 0 km/h
2018 11-09-2010 19:45:02 20.7 C 9.72 g/m*3 20.7 C 0 km/h
2019 11-09-2010 19:57:02 20.2 C 9.44 g/m*3 20.2 C 0 km/h
2020 11-09-2010 20:09:02 20 C 9.33 g/m*3 20 C 0 km/h
2021 11-09-2010 20:21:02 19.5 C 9.4 g/m*3 19.5 C 0 km/h
2022 11-09-2010 20:33:02 19.3 C 9.45 g/m*3 19.3 C 0 km/h
2023 11-09-2010 20:45:01 19.1 C 9.67 g/m*3 19.1 C 0 km/h
2024 11-09-2010 20:57:01 18.8 C 9.66 g/m*3 18.8 C 0 km/h
2025 11-09-2010 21:09:02 18.6 C 9.71 g/m*3 18.6 C 0 km/h
Sensor: Nr:Datum:Temp:Abs-Feuchte:Windchill:Wind:
Aussen-T/F 2026 11-09-2010 21:21:01 18.4 C 9.91 g/m*3 18.4 C 0 km/h
2027 11-09-2010 21:33:01 18.2 C 10.1 g/m*3 18.2 C 0 km/h
2028 11-09-2010 21:45:01 17.7 C 10.11 g/m*3 17.7 C 0 km/h
2029 11-09-2010 21:57:01 17.6 C 10.2 g/m*3 17.6 C 0 km/h
2030 11-09-2010 22:09:02 17.6 C 10.2 g/m*3 17.6 C 0 km/h
2031 11-09-2010 22:21:01 17.4 C 10.23 g/m*3 17.4 C 0 km/h
2032 11-09-2010 22:34:03 17.2 C 10.1 g/m*3 17.2 C 0 km/h
2033 11-09-2010 22:46:03 16.9 C 10.36 g/m*3 16.9 C 0 km/h
2034 11-09-2010 22:58:03 16.9 C 10.5 g/m*3 16.9 C 0 km/h
2035 11-09-2010 23:10:03 17 C 10.42 g/m*3 17 C 0 km/h
2036 11-09-2010 23:22:03 16.6 C 10.45 g/m*3 16.6 C 0 km/h
2037 11-09-2010 23:34:03 16.5 C 10.39 g/m*3 16.5 C 0 km/h
2038 11-09-2010 23:46:03 16.4 C 10.33 g/m*3 16.4 C 0 km/h
2039 11-09-2010 23:58:03 16.3 C 10.41 g/m*3 16.3 C 0 km/h
2040 12-09-2010 00:10:03 16.2 C 10.48 g/m*3 16.2 C 0 km/h
2041 12-09-2010 00:22:03 16.2 C 10.48 g/m*3 16.2 C 0 km/h
2042 12-09-2010 00:34:03 16.1 C 10.42 g/m*3 16.1 C 0 km/h
2043 12-09-2010 00:46:03 16 C 10.35 g/m*3 16 C 0 km/h
2044 12-09-2010 00:58:03 15.8 C 10.36 g/m*3 15.8 C 0 km/h
2045 12-09-2010 01:10:03 15.6 C 10.37 g/m*3 15.6 C 0 km/h
2046 12-09-2010 01:22:04 15.5 C 10.31 g/m*3 15.5 C 0 km/h
2047 12-09-2010 01:34:04 15.2 C 10.25 g/m*3 15.2 C 0 km/h
2048 12-09-2010 01:46:04 15.2 C 10.38 g/m*3 15.2 C 0 km/h
2049 12-09-2010 01:58:04 15.2 C 10.38 g/m*3 15.2 C 0 km/h
2050 12-09-2010 02:10:04 15 C 10.26 g/m*3 15 C 0 km/h
Sensor: Nr:Datum:Temp:Abs-Feuchte:Windchill:Wind:
Aussen-T/F 2051 12-09-2010 02:22:04 15 C 10.39 g/m*3 15 C 0 km/h
2052 12-09-2010 02:34:04 14.9 C 10.45 g/m*3 14.9 C 0 km/h
2053 12-09-2010 02:46:04 14.8 C 10.51 g/m*3 14.8 C 0 km/h
2054 12-09-2010 02:58:04 14.7 C 10.32 g/m*3 14.7 C 0 km/h
2055 12-09-2010 03:10:04 14.7 C 10.32 g/m*3 14.7 C 0 km/h
2056 12-09-2010 03:22:04 14.6 C 10.26 g/m*3 14.6 C 0 km/h
2057 12-09-2010 03:34:04 14.4 C 10.14 g/m*3 14.4 C 0 km/h
2058 12-09-2010 03:46:04 14.3 C 10.07 g/m*3 14.3 C 0 km/h
2059 12-09-2010 03:58:04 14.3 C 10.2 g/m*3 14.3 C 0 km/h
2060 12-09-2010 04:10:04 14.2 C 10.14 g/m*3 14.2 C 0 km/h
2061 12-09-2010 04:22:04 14.1 C 10.07 g/m*3 14.1 C 0 km/h
2062 12-09-2010 04:34:05 14.1 C 10.07 g/m*3 14.1 C 0 km/h
2063 12-09-2010 04:46:05 14.1 C 10.07 g/m*3 14.1 C 0 km/h
2064 12-09-2010 04:58:05 14 C 10.01 g/m*3 14 C 0 km/h
2065 12-09-2010 05:10:05 13.9 C 10.07 g/m*3 13.9 C 0 km/h
2066 12-09-2010 05:22:05 13.7 C 9.95 g/m*3 13.7 C 0 km/h
2067 12-09-2010 05:34:05 13.8 C 10.01 g/m*3 13.8 C 0 km/h
2068 12-09-2010 05:46:05 13.7 C 9.95 g/m*3 13.7 C 0 km/h
2069 12-09-2010 05:58:05 13.7 C 9.95 g/m*3 13.7 C 0 km/h
2070 12-09-2010 06:10:05 13.7 C 9.95 g/m*3 13.7 C 0 km/h
2071 12-09-2010 06:22:05 13.5 C 9.94 g/m*3 13.5 C 0 km/h
2072 12-09-2010 06:34:05 13.5 C 9.94 g/m*3 13.5 C 0 km/h
2073 12-09-2010 06:46:05 13.5 C 9.94 g/m*3 13.5 C 0 km/h
2074 12-09-2010 06:58:05 13.4 C 9.88 g/m*3 13.4 C 0 km/h
2075 12-09-2010 07:10:05 13.5 C 9.94 g/m*3 13.5 C 0 km/h
Sensor: Nr:Datum:Temp:Abs-Feuchte:Windchill:Wind:
Aussen-T/F 2076 12-09-2010 07:22:05 13.5 C 10.06 g/m*3 13.5 C 0 km/h
2077 12-09-2010 07:34:05 13.6 C 10.12 g/m*3 13.6 C 0 km/h
2078 12-09-2010 07:46:02 13.8 C 10.25 g/m*3 13.8 C 0 km/h
2079 12-09-2010 07:58:02 14.1 C 10.32 g/m*3 14.1 C 0 km/h
2080 12-09-2010 08:10:02 14.1 C 10.32 g/m*3 14.1 C 0 km/h
2081 12-09-2010 08:22:01 14.4 C 10.38 g/m*3 14.4 C 0 km/h
2082 12-09-2010 08:34:02 14.5 C 10.32 g/m*3 14.5 C 0 km/h
2083 12-09-2010 08:46:02 14 C 10.13 g/m*3 14 C 0 km/h
2084 12-09-2010 08:58:02 14.3 C 10.32 g/m*3 14.3 C 0 km/h
2085 12-09-2010 09:10:02 14.8 C 10.64 g/m*3 14.8 C 0 km/h
2086 12-09-2010 09:22:02 14.8 C 10.39 g/m*3 14.8 C 0 km/h
2087 12-09-2010 09:34:02 14.8 C 10.51 g/m*3 14.8 C 0 km/h
2088 12-09-2010 09:46:02 15 C 10.51 g/m*3 15 C 0 km/h
2089 12-09-2010 09:58:02 14.8 C 10.51 g/m*3 14.8 C 0 km/h
2090 12-09-2010 10:10:02 15.3 C 10.84 g/m*3 15.3 C 0 km/h
2091 12-09-2010 10:22:03 15.9 C 11.1 g/m*3 15.9 C 0 km/h
2092 12-09-2010 10:34:02 16.8 C 11.29 g/m*3 16.8 C 0 km/h
2093 12-09-2010 10:46:02 18 C 11.37 g/m*3 18 C 0 km/h
2094 12-09-2010 10:58:02 18.7 C 11.05 g/m*3 18.7 C 0 km/h
2095 12-09-2010 11:10:02 19.5 C 10.41 g/m*3 19.5 C 0 km/h
2096 12-09-2010 11:22:02 20.2 C 10.67 g/m*3 20.2 C 0 km/h
2097 12-09-2010 11:34:02 20.1 C 10.6 g/m*3 20.1 C 0 km/h
2098 12-09-2010 11:46:02 20 C 10.89 g/m*3 20 C 0 km/h
2099 12-09-2010 11:58:02 20.3 C 10.9 g/m*3 20.3 C 0 km/h
2100 12-09-2010 12:10:01 20.5 C 10.85 g/m*3 20.5 C 0 km/h
Sensor: Nr:Datum:Temp:Abs-Feuchte:Windchill:Wind:
Aussen-T/F 2101 12-09-2010 12:22:02 20.9 C 11.11 g/m*3 20.9 C 0 km/h
2102 12-09-2010 12:34:01 21.4 C 11.06 g/m*3 21.4 C 0 km/h
2103 12-09-2010 12:46:01 22.4 C 10.33 g/m*3 22.4 C 0 km/h
2104 12-09-2010 12:58:02 22.9 C 10.22 g/m*3 22.9 C 0 km/h
2105 12-09-2010 13:10:01 23.1 C 10.34 g/m*3 23.1 C 0 km/h
2106 12-09-2010 13:22:01 23.7 C 10.48 g/m*3 23.7 C 0 km/h
2107 12-09-2010 13:34:02 24.3 C 9.74 g/m*3 24.3 C 0 km/h
2108 12-09-2010 13:46:02 25 C 8.98 g/m*3 25 C 0 km/h
2109 12-09-2010 13:58:02 25.9 C 9.44 g/m*3 25.9 C 0 km/h
2110 12-09-2010 14:10:02 25.7 C 9.34 g/m*3 25.7 C 0 km/h
2111 12-09-2010 14:22:01 25 C 8.06 g/m*3 25 C 0 km/h
2112 12-09-2010 14:34:02 24.7 C 8.15 g/m*3 24.7 C 0 km/h
2113 12-09-2010 14:46:02 23.1 C 9.72 g/m*3 23.1 C 0 km/h
2114 12-09-2010 14:58:02 20.8 C 10.14 g/m*3 20.8 C 0 km/h
2115 12-09-2010 15:10:02 19.5 C 9.23 g/m*3 19.5 C 0 km/h
2116 12-09-2010 15:22:02 19.1 C 8.69 g/m*3 19.1 C 0 km/h
2117 12-09-2010 15:34:02 19.4 C 8.84 g/m*3 19.4 C 0 km/h
2118 12-09-2010 15:46:02 19.4 C 8.84 g/m*3 19.4 C 0 km/h
2119 12-09-2010 15:58:02 19.2 C 8.74 g/m*3 19.2 C 0 km/h
2120 12-09-2010 16:10:02 17.9 C 8.86 g/m*3 17.9 C 0 km/h
2121 12-09-2010 16:22:02 18.1 C 9.12 g/m*3 18.1 C 0 km/h
2122 12-09-2010 16:34:02 18.1 C 9.27 g/m*3 18.1 C 0 km/h
2123 12-09-2010 16:46:02 17.6 C 9.3 g/m*3 17.6 C 0 km/h
2124 12-09-2010 16:58:02 17.2 C 9.37 g/m*3 17.2 C 0 km/h
2125 12-09-2010 17:10:02 17.2 C 9.52 g/m*3 17.2 C 0 km/h
Sensor: Nr:Datum:Temp:Abs-Feuchte:Windchill:Wind:
Aussen-T/F 2126 12-09-2010 17:22:02 16.6 C 9.04 g/m*3 16.6 C 0 km/h
2127 12-09-2010 17:34:01 16.1 C 9.46 g/m*3 16.1 C 0 km/h
2128 12-09-2010 17:46:02 15.6 C 9.97 g/m*3 15.6 C 0 km/h
2129 12-09-2010 17:58:02 15.5 C 10.31 g/m*3 15.5 C 0 km/h
2130 12-09-2010 18:10:01 15.2 C 10.25 g/m*3 15.2 C 0 km/h
2131 12-09-2010 18:22:02 15.2 C 10.51 g/m*3 15.2 C 0 km/h
2132 12-09-2010 18:34:02 14.9 C 10.58 g/m*3 14.9 C 0 km/h
2133 12-09-2010 18:46:02 14.7 C 10.7 g/m*3 14.7 C 0 km/h
2134 12-09-2010 18:58:02 14.6 C 10.89 g/m*3 14.6 C 0 km/h
2135 12-09-2010 19:10:02 14.5 C 10.82 g/m*3 14.5 C 0 km/h
2136 12-09-2010 19:22:02 14.3 C 10.69 g/m*3 14.3 C 0 km/h
2137 12-09-2010 19:34:02 14.1 C 10.68 g/m*3 14.1 C 0 km/h
2138 12-09-2010 19:46:01 14.3 C 10.93 g/m*3 14.3 C 0 km/h
2139 12-09-2010 19:58:01 14.1 C 10.8 g/m*3 14.1 C 0 km/h
2140 12-09-2010 20:10:02 14 C 10.74 g/m*3 14 C 0 km/h
2141 12-09-2010 20:22:01 13.9 C 10.79 g/m*3 13.9 C 0 km/h
2142 12-09-2010 20:34:01 13.8 C 10.84 g/m*3 13.8 C 0 km/h
2143 12-09-2010 20:46:01 13.7 C 10.78 g/m*3 13.7 C 0 km/h
2144 12-09-2010 20:58:01 13.7 C 10.89 g/m*3 13.7 C 0 km/h
2145 12-09-2010 21:10:02 13.6 C 10.83 g/m*3 13.6 C 0 km/h
2146 12-09-2010 21:22:01 13.7 C 10.89 g/m*3 13.7 C 0 km/h
2147 12-09-2010 21:34:01 13.7 C 10.89 g/m*3 13.7 C 0 km/h
2148 12-09-2010 21:46:01 13.9 C 11.15 g/m*3 13.9 C 0 km/h
2149 12-09-2010 21:58:01 14 C 11.1 g/m*3 14 C 0 km/h
2150 12-09-2010 22:10:02 13.9 C 11.15 g/m*3 13.9 C 0 km/h
Sensor: Nr:Datum:Temp:Abs-Feuchte:Windchill:Wind:
Aussen-T/F 2151 12-09-2010 22:22:01 13.9 C 11.15 g/m*3 13.9 C 0 km/h
2152 12-09-2010 22:34:02 13.8 C 11.08 g/m*3 13.8 C 0 km/h
2153 12-09-2010 22:46:02 13.7 C 11.01 g/m*3 13.7 C 0 km/h
2154 12-09-2010 22:58:02 13.6 C 10.95 g/m*3 13.6 C 0 km/h
2155 12-09-2010 23:10:01 13.5 C 10.88 g/m*3 13.5 C 0 km/h
2156 12-09-2010 23:22:02 13.5 C 10.88 g/m*3 13.5 C 0 km/h
2157 12-09-2010 23:34:02 13.5 C 10.88 g/m*3 13.5 C 0 km/h
2158 12-09-2010 23:46:02 13.7 C 11.01 g/m*3 13.7 C 0 km/h
2159 12-09-2010 23:58:02 13.7 C 11.01 g/m*3 13.7 C 0 km/h
2160 13-09-2010 00:10:03 13.7 C 11.01 g/m*3 13.7 C 0 km/h
2161 13-09-2010 00:22:02 13.6 C 10.95 g/m*3 13.6 C 0 km/h
2162 13-09-2010 00:34:02 13.7 C 11.01 g/m*3 13.7 C 0 km/h
2163 13-09-2010 00:46:02 13.7 C 11.01 g/m*3 13.7 C 0 km/h
2164 13-09-2010 00:58:02 13.7 C 11.01 g/m*3 13.7 C 0 km/h
2165 13-09-2010 01:10:02 13.6 C 10.95 g/m*3 13.6 C 0 km/h
2166 13-09-2010 01:22:03 13.7 C 11.01 g/m*3 13.7 C 0 km/h
2167 13-09-2010 01:34:02 13.8 C 11.08 g/m*3 13.8 C 0 km/h
2168 13-09-2010 01:46:02 13.7 C 11.01 g/m*3 13.7 C 0 km/h
2169 13-09-2010 01:58:02 13.7 C 11.01 g/m*3 13.7 C 0 km/h
2170 13-09-2010 02:10:02 13.7 C 11.01 g/m*3 13.7 C 0 km/h
2171 13-09-2010 02:22:02 13.5 C 10.88 g/m*3 13.5 C 0 km/h
2172 13-09-2010 02:34:02 13.4 C 10.81 g/m*3 13.4 C 0 km/h
2173 13-09-2010 02:46:02 13.4 C 10.81 g/m*3 13.4 C 0 km/h
2174 13-09-2010 02:58:02 13.6 C 10.95 g/m*3 13.6 C 0 km/h
2175 13-09-2010 03:10:01 13.5 C 10.88 g/m*3 13.5 C 0 km/h
Sensor: Nr:Datum:Temp:Abs-Feuchte:Windchill:Wind:
Aussen-T/F 2176 13-09-2010 03:22:01 13.3 C 10.63 g/m*3 13.3 C 0 km/h
2177 13-09-2010 03:34:02 13.2 C 10.56 g/m*3 13.2 C 0 km/h
2178 13-09-2010 03:46:02 13.2 C 10.45 g/m*3 13.2 C 0 km/h
2179 13-09-2010 03:58:02 13.1 C 10.38 g/m*3 13.1 C 0 km/h
2180 13-09-2010 04:10:01 13 C 10.21 g/m*3 13 C 0 km/h
2181 13-09-2010 04:22:02 12.8 C 10.19 g/m*3 12.8 C 0 km/h
2182 13-09-2010 04:34:01 12.9 C 10.26 g/m*3 12.9 C 0 km/h
2183 13-09-2010 04:46:01 13.1 C 10.16 g/m*3 13.1 C 0 km/h
2184 13-09-2010 04:58:02 13.2 C 10.22 g/m*3 13.2 C 0 km/h
2185 13-09-2010 05:10:01 13.3 C 10.05 g/m*3 13.3 C 0 km/h
2186 13-09-2010 05:22:01 13.3 C 9.82 g/m*3 13.3 C 0 km/h
2187 13-09-2010 05:34:02 13.2 C 9.64 g/m*3 13.2 C 0 km/h
2188 13-09-2010 05:46:01 13.2 C 9.64 g/m*3 13.2 C 0 km/h
2189 13-09-2010 05:58:01 13.3 C 9.7 g/m*3 13.3 C 0 km/h
2190 13-09-2010 06:10:02 13.4 C 9.76 g/m*3 13.4 C 0 km/h
2191 13-09-2010 06:22:01 13.4 C 9.65 g/m*3 13.4 C 0 km/h
2192 13-09-2010 06:34:01 13.3 C 9.59 g/m*3 13.3 C 0 km/h
2193 13-09-2010 06:46:01 13.2 C 9.42 g/m*3 13.2 C 0 km/h
2194 13-09-2010 06:58:01 13.2 C 9.42 g/m*3 13.2 C 0 km/h
2195 13-09-2010 07:10:02 13 C 9.19 g/m*3 13 C 0 km/h
2196 13-09-2010 07:22:01 13 C 9.3 g/m*3 13 C 0 km/h
2197 13-09-2010 07:34:01 12.7 C 9.13 g/m*3 12.7 C 0 km/h
2198 13-09-2010 07:46:01 12.5 C 9.13 g/m*3 12.5 C 0 km/h
2199 13-09-2010 07:58:01 12.4 C 9.18 g/m*3 12.4 C 0 km/h
2200 13-09-2010 08:10:01 12.5 C 9.35 g/m*3 12.5 C 0 km/h
Sensor: Nr:Datum:Temp:Abs-Feuchte:Windchill:Wind:
Aussen-T/F 2201 13-09-2010 08:22:01 13 C 9.64 g/m*3 13 C 0 km/h
2202 13-09-2010 08:34:01 13.1 C 9.7 g/m*3 13.1 C 0 km/h
2203 13-09-2010 08:46:02 13.2 C 9.64 g/m*3 13.2 C 0 km/h
2204 13-09-2010 08:58:02 13.4 C 9.76 g/m*3 13.4 C 0 km/h
2205 13-09-2010 09:10:01 13.5 C 9.71 g/m*3 13.5 C 0 km/h
2206 13-09-2010 09:22:02 13.7 C 9.71 g/m*3 13.7 C 0 km/h
2207 13-09-2010 09:34:01 14 C 9.41 g/m*3 14 C 0 km/h
2208 13-09-2010 09:46:02 14.2 C 9.28 g/m*3 14.2 C 0 km/h
2209 13-09-2010 09:58:02 14.5 C 9.2 g/m*3 14.5 C 0 km/h
2210 13-09-2010 10:10:01 14.8 C 9.25 g/m*3 14.8 C 0 km/h
2211 13-09-2010 10:22:01 15 C 9.1 g/m*3 15 C 0 km/h
2212 13-09-2010 10:34:02 15.3 C 9.14 g/m*3 15.3 C 0 km/h
2213 13-09-2010 10:46:01 15.6 C 8.91 g/m*3 15.6 C 0 km/h
2214 13-09-2010 10:58:01 15.9 C 8.8 g/m*3 15.9 C 0 km/h
2215 13-09-2010 11:10:01 16 C 8.58 g/m*3 16 C 0 km/h
2216 13-09-2010 11:22:01 16.4 C 8.65 g/m*3 16.4 C 0 km/h
2217 13-09-2010 11:34:02 16.3 C 8.74 g/m*3 16.3 C 0 km/h
2218 13-09-2010 11:46:01 17.1 C 8.59 g/m*3 17.1 C 0 km/h
2219 13-09-2010 11:58:01 16.7 C 8.24 g/m*3 16.7 C 0 km/h
2220 13-09-2010 12:10:02 16.4 C 8.23 g/m*3 16.4 C 0 km/h
2221 13-09-2010 12:22:01 16.9 C 8.2 g/m*3 16.9 C 0 km/h
2222 13-09-2010 12:34:01 17.6 C 7.8 g/m*3 17.6 C 0 km/h
2223 13-09-2010 12:46:01 17.6 C 7.5 g/m*3 17.6 C 0 km/h
2224 13-09-2010 12:58:01 17.7 C 7.85 g/m*3 17.7 C 0 km/h
2225 13-09-2010 13:10:01 18 C 7.37 g/m*3 18 C 0 km/h
Sensor: Nr:Datum:Temp:Abs-Feuchte:Windchill:Wind:
Aussen-T/F 2226 13-09-2010 13:22:01 18.9 C 7.78 g/m*3 18.9 C 0 km/h
2227 13-09-2010 13:34:01 18.9 C 7.45 g/m*3 18.9 C 0 km/h
2228 13-09-2010 13:46:01 18.7 C 7.2 g/m*3 18.7 C 0 km/h
2229 13-09-2010 13:58:01 20.2 C 7.87 g/m*3 20.2 C 0 km/h
2230 13-09-2010 14:10:01 19.9 C 7.22 g/m*3 19.9 C 0 km/h
2231 13-09-2010 14:22:02 19.5 C 6.55 g/m*3 19.5 C 0 km/h
2232 13-09-2010 14:34:01 19.6 C 6.75 g/m*3 19.6 C 0 km/h
2233 13-09-2010 14:46:02 20.6 C 7.34 g/m*3 20.6 C 0 km/h
2234 13-09-2010 14:58:02 21.3 C 6.9 g/m*3 21.3 C 0 km/h
2235 13-09-2010 15:10:01 20.9 C 6.74 g/m*3 20.9 C 0 km/h
2236 13-09-2010 15:22:01 21.3 C 6.9 g/m*3 21.3 C 0 km/h
2237 13-09-2010 15:34:01 21.2 C 6.67 g/m*3 21.2 C 0 km/h
2238 13-09-2010 15:46:01 20.6 C 7.16 g/m*3 20.6 C 0 km/h
2239 13-09-2010 15:58:01 20 C 7.95 g/m*3 20 C 0 km/h
2240 13-09-2010 16:10:01 20.8 C 7.97 g/m*3 20.8 C 0 km/h
2241 13-09-2010 16:22:02 21.4 C 6.37 g/m*3 21.4 C 0 km/h
2242 13-09-2010 16:34:01 21.4 C 7.5 g/m*3 21.4 C 0 km/h
2243 13-09-2010 16:46:02 21.8 C 6.52 g/m*3 21.8 C 0 km/h
2244 13-09-2010 16:58:02 22.4 C 6.16 g/m*3 22.4 C 0 km/h
2245 13-09-2010 17:10:01 22.3 C 7.11 g/m*3 22.3 C 0 km/h
2246 13-09-2010 17:22:01 20.5 C 7.65 g/m*3 20.5 C 0 km/h
2247 13-09-2010 17:34:01 20.2 C 7.87 g/m*3 20.2 C 0 km/h
2248 13-09-2010 17:46:01 19.8 C 8.37 g/m*3 19.8 C 0 km/h
2249 13-09-2010 17:58:02 19.6 C 8.61 g/m*3 19.6 C 0 km/h
2250 13-09-2010 18:10:02 18.9 C 8.75 g/m*3 18.9 C 0 km/h
Sensor: Nr:Datum:Temp:Abs-Feuchte:Windchill:Wind:
Aussen-T/F 2251 13-09-2010 18:22:02 18.4 C 8.65 g/m*3 18.4 C 0 km/h
2252 13-09-2010 18:34:01 18.2 C 8.55 g/m*3 18.2 C 0 km/h
2253 13-09-2010 18:46:02 17.9 C 8.55 g/m*3 17.9 C 0 km/h
2254 13-09-2010 18:58:02 17.7 C 8.6 g/m*3 17.7 C 0 km/h
2255 13-09-2010 19:10:01 17.7 C 8.6 g/m*3 17.7 C 0 km/h
2256 13-09-2010 19:22:02 17.5 C 8.5 g/m*3 17.5 C 0 km/h
2257 13-09-2010 19:34:01 17 C 8.68 g/m*3 17 C 0 km/h
2258 13-09-2010 19:46:02 16.4 C 8.51 g/m*3 16.4 C 0 km/h
2259 13-09-2010 19:58:02 16 C 8.45 g/m*3 16 C 0 km/h
2260 13-09-2010 20:10:01 15.6 C 8.64 g/m*3 15.6 C 0 km/h
2261 13-09-2010 20:22:01 15.4 C 8.8 g/m*3 15.4 C 0 km/h
2262 13-09-2010 20:34:01 15.2 C 8.96 g/m*3 15.2 C 0 km/h
2263 13-09-2010 20:46:01 15.1 C 9.03 g/m*3 15.1 C 0 km/h
2264 13-09-2010 20:58:02 14.9 C 9.05 g/m*3 14.9 C 0 km/h
2265 13-09-2010 21:10:01 14.7 C 8.94 g/m*3 14.7 C 0 km/h
2266 13-09-2010 21:22:01 14.6 C 9.01 g/m*3 14.6 C 0 km/h
2267 13-09-2010 21:34:02 14.5 C 8.95 g/m*3 14.5 C 0 km/h
2268 13-09-2010 21:46:01 14.4 C 8.9 g/m*3 14.4 C 0 km/h
2269 13-09-2010 21:58:01 14.4 C 9.02 g/m*3 14.4 C 0 km/h
2270 13-09-2010 22:10:01 14.1 C 8.86 g/m*3 14.1 C 0 km/h
2271 13-09-2010 22:23:05 13.8 C 8.82 g/m*3 13.8 C 0 km/h
2272 13-09-2010 22:35:05 13.7 C 8.88 g/m*3 13.7 C 0 km/h
2273 13-09-2010 22:47:05 13.5 C 8.89 g/m*3 13.5 C 0 km/h
2274 13-09-2010 22:59:05 13.4 C 8.83 g/m*3 13.4 C 0 km/h
2275 13-09-2010 23:11:05 13.3 C 8.78 g/m*3 13.3 C 0 km/h
Sensor: Nr:Datum:Temp:Abs-Feuchte:Windchill:Wind:
Aussen-T/F 2276 13-09-2010 23:23:05 13.3 C 9.01 g/m*3 13.3 C 0 km/h
2277 13-09-2010 23:35:05 13.1 C 8.9 g/m*3 13.1 C 0 km/h
2278 13-09-2010 23:47:05 13 C 8.73 g/m*3 13 C 0 km/h
2279 13-09-2010 23:59:05 13 C 8.85 g/m*3 13 C 0 km/h
2280 14-09-2010 00:11:05 13 C 8.96 g/m*3 13 C 0 km/h
2281 14-09-2010 00:23:05 12.8 C 9.18 g/m*3 12.8 C 0 km/h
2282 14-09-2010 00:35:05 12.8 C 9.3 g/m*3 12.8 C 0 km/h
2283 14-09-2010 00:47:05 12.8 C 9.3 g/m*3 12.8 C 0 km/h
2284 14-09-2010 00:59:05 12.7 C 9.24 g/m*3 12.7 C 0 km/h
2285 14-09-2010 01:11:05 12.6 C 9.18 g/m*3 12.6 C 0 km/h
2286 14-09-2010 01:23:05 12.7 C 9.24 g/m*3 12.7 C 0 km/h
2287 14-09-2010 01:35:05 12.8 C 9.3 g/m*3 12.8 C 0 km/h
2288 14-09-2010 01:47:05 12.9 C 9.35 g/m*3 12.9 C 0 km/h
2289 14-09-2010 01:59:05 13 C 9.3 g/m*3 13 C 0 km/h
2290 14-09-2010 02:11:05 13 C 9.3 g/m*3 13 C 0 km/h
2291 14-09-2010 02:23:05 13 C 9.3 g/m*3 13 C 0 km/h
2292 14-09-2010 02:35:06 13.1 C 9.36 g/m*3 13.1 C 0 km/h
2293 14-09-2010 02:47:06 13.2 C 9.42 g/m*3 13.2 C 0 km/h
2294 14-09-2010 02:59:06 13.2 C 9.3 g/m*3 13.2 C 0 km/h
2295 14-09-2010 03:11:06 13.4 C 9.18 g/m*3 13.4 C 0 km/h
2296 14-09-2010 03:23:06 13.4 C 9.18 g/m*3 13.4 C 0 km/h
2297 14-09-2010 03:35:06 13.3 C 9.24 g/m*3 13.3 C 0 km/h
2298 14-09-2010 03:47:06 13.3 C 9.24 g/m*3 13.3 C 0 km/h
2299 14-09-2010 03:59:06 13.4 C 9.3 g/m*3 13.4 C 0 km/h
2300 14-09-2010 04:11:06 13.2 C 9.19 g/m*3 13.2 C 0 km/h
Sensor: Nr:Datum:Temp:Abs-Feuchte:Windchill:Wind:
Aussen-T/F 2301 14-09-2010 04:23:06 13 C 9.3 g/m*3 13 C 0 km/h
2302 14-09-2010 04:35:06 12.8 C 9.41 g/m*3 12.8 C 0 km/h
2303 14-09-2010 04:47:06 12.9 C 9.58 g/m*3 12.9 C 0 km/h
2304 14-09-2010 04:59:06 12.8 C 9.63 g/m*3 12.8 C 0 km/h
2305 14-09-2010 05:11:06 12.9 C 9.81 g/m*3 12.9 C 0 km/h
2306 14-09-2010 05:23:06 12.9 C 9.81 g/m*3 12.9 C 0 km/h
2307 14-09-2010 05:35:06 13 C 9.87 g/m*3 13 C 0 km/h
2308 14-09-2010 05:47:06 13 C 9.87 g/m*3 13 C 0 km/h
2309 14-09-2010 05:59:06 13 C 9.87 g/m*3 13 C 0 km/h
2310 14-09-2010 06:11:06 13.3 C 10.05 g/m*3 13.3 C 0 km/h
2311 14-09-2010 06:23:06 13.5 C 9.83 g/m*3 13.5 C 0 km/h
2312 14-09-2010 06:35:06 13.8 C 9.06 g/m*3 13.8 C 0 km/h
2313 14-09-2010 06:47:06 14.5 C 8.83 g/m*3 14.5 C 0 km/h
2314 14-09-2010 06:59:07 14.4 C 8.53 g/m*3 14.4 C 0 km/h
2315 14-09-2010 07:11:07 14.4 C 8.53 g/m*3 14.4 C 0 km/h
2316 14-09-2010 07:23:07 14.4 C 8.65 g/m*3 14.4 C 0 km/h
2317 14-09-2010 07:35:04 14.3 C 8.85 g/m*3 14.3 C 0 km/h
2318 14-09-2010 07:47:02 13.6 C 9.18 g/m*3 13.6 C 0 km/h
2319 14-09-2010 07:59:02 13.6 C 9.42 g/m*3 13.6 C 0 km/h
2320 14-09-2010 08:11:01 13.7 C 9.47 g/m*3 13.7 C 0 km/h
2321 14-09-2010 08:23:02 13.7 C 9.47 g/m*3 13.7 C 0 km/h
2322 14-09-2010 08:35:02 14.1 C 9.34 g/m*3 14.1 C 0 km/h
2323 14-09-2010 08:47:02 14.4 C 9.15 g/m*3 14.4 C 0 km/h
2324 14-09-2010 08:59:02 14.6 C 9.13 g/m*3 14.6 C 0 km/h
2325 14-09-2010 09:11:01 14.7 C 9.07 g/m*3 14.7 C 0 km/h
Sensor: Nr:Datum:Temp:Abs-Feuchte:Windchill:Wind:
Aussen-T/F 2326 14-09-2010 09:23:02 14.8 C 9.12 g/m*3 14.8 C 0 km/h
2327 14-09-2010 09:35:02 15.1 C 9.03 g/m*3 15.1 C 0 km/h
2328 14-09-2010 09:47:01 15.6 C 9.04 g/m*3 15.6 C 0 km/h
2329 14-09-2010 09:59:01 15.6 C 9.04 g/m*3 15.6 C 0 km/h
2330 14-09-2010 10:11:02 15.6 C 9.04 g/m*3 15.6 C 0 km/h
2331 14-09-2010 10:23:01 15.7 C 9.1 g/m*3 15.7 C 0 km/h
2332 14-09-2010 10:35:01 16 C 8.99 g/m*3 16 C 0 km/h
2333 14-09-2010 10:47:01 16.4 C 8.93 g/m*3 16.4 C 0 km/h
2334 14-09-2010 10:59:01 16.8 C 9.29 g/m*3 16.8 C 0 km/h
2335 14-09-2010 11:11:02 17 C 8.97 g/m*3 17 C 0 km/h
2336 14-09-2010 11:23:01 17.1 C 9.03 g/m*3 17.1 C 0 km/h
2337 14-09-2010 11:35:01 17 C 9.12 g/m*3 17 C 0 km/h
2338 14-09-2010 11:47:01 16.7 C 9.24 g/m*3 16.7 C 0 km/h
2339 14-09-2010 11:59:01 17.5 C 9.39 g/m*3 17.5 C 0 km/h
2340 14-09-2010 12:11:02 17.8 C 9.26 g/m*3 17.8 C 0 km/h
2341 14-09-2010 12:23:02 18.2 C 9.01 g/m*3 18.2 C 0 km/h
2342 14-09-2010 12:35:01 18.5 C 9.18 g/m*3 18.5 C 0 km/h
2343 14-09-2010 12:47:02 18.8 C 9.18 g/m*3 18.8 C 0 km/h
2344 14-09-2010 12:59:02 18.9 C 9.23 g/m*3 18.9 C 0 km/h
2345 14-09-2010 13:11:01 19.6 C 9.28 g/m*3 19.6 C 0 km/h
2346 14-09-2010 13:23:01 19.7 C 9.34 g/m*3 19.7 C 0 km/h
2347 14-09-2010 13:35:01 20.2 C 9.44 g/m*3 20.2 C 0 km/h
2348 14-09-2010 13:47:02 20.4 C 9.02 g/m*3 20.4 C 0 km/h
2349 14-09-2010 13:59:02 20 C 8.99 g/m*3 20 C 0 km/h
2350 14-09-2010 14:11:02 19.7 C 8.83 g/m*3 19.7 C 0 km/h
Sensor: Nr:Datum:Temp:Abs-Feuchte:Windchill:Wind:
Aussen-T/F 2351 14-09-2010 14:23:02 19.7 C 9 g/m*3 19.7 C 0 km/h
2352 14-09-2010 14:35:02 19.8 C 8.71 g/m*3 19.8 C 0 km/h
2353 14-09-2010 14:47:01 19.6 C 8.78 g/m*3 19.6 C 0 km/h
2354 14-09-2010 14:59:01 19.5 C 8.89 g/m*3 19.5 C 0 km/h
2355 14-09-2010 15:11:02 20 C 8.81 g/m*3 20 C 0 km/h
2356 14-09-2010 15:23:01 20 C 8.64 g/m*3 20 C 0 km/h
2357 14-09-2010 15:35:02 20.4 C 8.67 g/m*3 20.4 C 0 km/h
2358 14-09-2010 15:47:01 20.7 C 8.46 g/m*3 20.7 C 0 km/h
2359 14-09-2010 15:59:01 20.9 C 8.56 g/m*3 20.9 C 0 km/h
2360 14-09-2010 16:11:02 20.8 C 8.15 g/m*3 20.8 C 0 km/h
2361 14-09-2010 16:23:01 20.9 C 8.2 g/m*3 20.9 C 0 km/h
2362 14-09-2010 16:35:02 20.6 C 7.7 g/m*3 20.6 C 0 km/h
2363 14-09-2010 16:47:01 20.6 C 7.7 g/m*3 20.6 C 0 km/h
2364 14-09-2010 16:59:01 20.5 C 7.65 g/m*3 20.5 C 0 km/h
2365 14-09-2010 17:11:02 20.5 C 7.47 g/m*3 20.5 C 0 km/h
2366 14-09-2010 17:23:01 20.4 C 7.43 g/m*3 20.4 C 0 km/h
2367 14-09-2010 17:35:01 20 C 7.26 g/m*3 20 C 0 km/h
2368 14-09-2010 17:47:01 20 C 7.43 g/m*3 20 C 0 km/h
2369 14-09-2010 17:59:01 19.8 C 7.69 g/m*3 19.8 C 0 km/h
2370 14-09-2010 18:11:01 19.6 C 7.77 g/m*3 19.6 C 0 km/h
2371 14-09-2010 18:23:02 19.4 C 7.84 g/m*3 19.4 C 0 km/h
2372 14-09-2010 18:35:01 19.3 C 7.8 g/m*3 19.3 C 0 km/h
2373 14-09-2010 18:47:02 19.3 C 7.8 g/m*3 19.3 C 0 km/h
2374 14-09-2010 18:59:02 19.1 C 7.87 g/m*3 19.1 C 0 km/h
2375 14-09-2010 19:11:01 19 C 7.82 g/m*3 19 C 0 km/h
Sensor: Nr:Datum:Temp:Abs-Feuchte:Windchill:Wind:
Aussen-T/F 2376 14-09-2010 19:23:01 18.9 C 7.78 g/m*3 18.9 C 0 km/h
2377 14-09-2010 19:35:01 18.7 C 7.68 g/m*3 18.7 C 0 km/h
2378 14-09-2010 19:47:02 18.7 C 7.68 g/m*3 18.7 C 0 km/h
2379 14-09-2010 19:59:03 18.7 C 7.68 g/m*3 18.7 C 0 km/h
2380 14-09-2010 20:11:01 18.7 C 7.68 g/m*3 18.7 C 0 km/h
2381 14-09-2010 20:23:02 18.6 C 7.64 g/m*3 18.6 C 0 km/h
2382 14-09-2010 20:35:02 18.7 C 7.68 g/m*3 18.7 C 0 km/h
2383 14-09-2010 20:47:02 18.5 C 7.75 g/m*3 18.5 C 0 km/h
2384 14-09-2010 20:59:02 18.5 C 7.75 g/m*3 18.5 C 0 km/h
2385 14-09-2010 21:11:03 18.5 C 7.75 g/m*3 18.5 C 0 km/h
2386 14-09-2010 21:23:02 18.5 C 7.75 g/m*3 18.5 C 0 km/h
2387 14-09-2010 21:35:02 18.6 C 7.96 g/m*3 18.6 C 0 km/h
2388 14-09-2010 21:47:01 18.5 C 7.75 g/m*3 18.5 C 0 km/h
2389 14-09-2010 21:59:01 18.6 C 7.64 g/m*3 18.6 C 0 km/h
2390 14-09-2010 22:12:03 18.6 C 7.8 g/m*3 18.6 C 0 km/h
2391 14-09-2010 22:24:03 18.5 C 7.75 g/m*3 18.5 C 0 km/h
2392 14-09-2010 22:36:03 18.4 C 7.86 g/m*3 18.4 C 0 km/h
2393 14-09-2010 22:48:03 18.5 C 7.91 g/m*3 18.5 C 0 km/h
2394 14-09-2010 23:00:03 18.5 C 7.91 g/m*3 18.5 C 0 km/h
2395 14-09-2010 23:12:03 18.4 C 7.86 g/m*3 18.4 C 0 km/h
2396 14-09-2010 23:24:03 18.2 C 7.77 g/m*3 18.2 C 0 km/h
2397 14-09-2010 23:36:04 18 C 7.99 g/m*3 18 C 0 km/h
2398 14-09-2010 23:48:04 18 C 7.99 g/m*3 18 C 0 km/h
2399 15-09-2010 00:00:04 18 C 7.99 g/m*3 18 C 0 km/h
2400 15-09-2010 00:12:04 18 C 7.83 g/m*3 18 C 0 km/h
Sensor: Nr:Datum:Temp:Abs-Feuchte:Windchill:Wind:
Aussen-T/F 2401 15-09-2010 00:24:04 18 C 7.83 g/m*3 18 C 0 km/h
2402 15-09-2010 00:36:04 18 C 7.83 g/m*3 18 C 0 km/h
2403 15-09-2010 00:48:04 18.1 C 7.88 g/m*3 18.1 C 0 km/h
2404 15-09-2010 01:00:04 18.1 C 7.73 g/m*3 18.1 C 0 km/h
2405 15-09-2010 01:12:04 18.1 C 7.73 g/m*3 18.1 C 0 km/h
2406 15-09-2010 01:24:04 18.2 C 7.62 g/m*3 18.2 C 0 km/h
2407 15-09-2010 01:36:04 18.3 C 7.66 g/m*3 18.3 C 0 km/h
2408 15-09-2010 01:48:04 18.2 C 7.62 g/m*3 18.2 C 0 km/h
2409 15-09-2010 02:00:04 18.3 C 7.66 g/m*3 18.3 C 0 km/h
2410 15-09-2010 02:12:04 18.4 C 7.55 g/m*3 18.4 C 0 km/h
2411 15-09-2010 02:24:04 18.4 C 7.55 g/m*3 18.4 C 0 km/h
2412 15-09-2010 02:36:05 18.3 C 7.66 g/m*3 18.3 C 0 km/h
2413 15-09-2010 02:48:05 18.2 C 7.77 g/m*3 18.2 C 0 km/h
2414 15-09-2010 03:00:05 18.2 C 7.93 g/m*3 18.2 C 0 km/h
2415 15-09-2010 03:12:05 18.1 C 8.03 g/m*3 18.1 C 0 km/h
2416 15-09-2010 03:24:05 18 C 8.29 g/m*3 18 C 0 km/h
2417 15-09-2010 03:36:05 18 C 8.45 g/m*3 18 C 0 km/h
2418 15-09-2010 03:48:05 18 C 8.45 g/m*3 18 C 0 km/h
2419 15-09-2010 04:00:05 17.9 C 8.7 g/m*3 17.9 C 0 km/h
2420 15-09-2010 04:12:05 17.9 C 9.01 g/m*3 17.9 C 0 km/h
2421 15-09-2010 04:24:05 17.7 C 9.05 g/m*3 17.7 C 0 km/h
2422 15-09-2010 04:36:05 17.6 C 9.3 g/m*3 17.6 C 0 km/h
2423 15-09-2010 04:48:05 17.4 C 9.48 g/m*3 17.4 C 0 km/h
2424 15-09-2010 05:00:05 17.4 C 9.48 g/m*3 17.4 C 0 km/h
2425 15-09-2010 05:12:05 16.9 C 10.07 g/m*3 16.9 C 0 km/h
Sensor: Nr:Datum:Temp:Abs-Feuchte:Windchill:Wind:
Aussen-T/F 2426 15-09-2010 05:24:05 14.4 C 9.27 g/m*3 14.4 C 0 km/h
2427 15-09-2010 05:36:05 13.3 C 9.7 g/m*3 13.3 C 0 km/h
2428 15-09-2010 05:48:05 13 C 9.87 g/m*3 13 C 0 km/h
2429 15-09-2010 06:00:05 12.9 C 10.03 g/m*3 12.9 C 0 km/h
2430 15-09-2010 06:12:05 12.8 C 10.08 g/m*3 12.8 C 0 km/h
2431 15-09-2010 06:24:05 12.7 C 10.02 g/m*3 12.7 C 0 km/h
2432 15-09-2010 06:36:05 12.7 C 10.13 g/m*3 12.7 C 0 km/h
2433 15-09-2010 06:48:05 12.8 C 10.19 g/m*3 12.8 C 0 km/h
2434 15-09-2010 07:00:06 12.8 C 10.3 g/m*3 12.8 C 0 km/h
2435 15-09-2010 07:12:06 12.7 C 10.24 g/m*3 12.7 C 0 km/h
2436 15-09-2010 07:24:06 12.7 C 10.24 g/m*3 12.7 C 0 km/h
2437 15-09-2010 07:36:03 12.8 C 10.3 g/m*3 12.8 C 0 km/h
2438 15-09-2010 07:48:02 12.7 C 10.35 g/m*3 12.7 C 0 km/h
2439 15-09-2010 08:00:02 12.6 C 10.29 g/m*3 12.6 C 0 km/h
2440 15-09-2010 08:12:02 12.7 C 10.35 g/m*3 12.7 C 0 km/h
2441 15-09-2010 08:24:02 12.7 C 10.35 g/m*3 12.7 C 0 km/h
2442 15-09-2010 08:36:01 12.8 C 10.42 g/m*3 12.8 C 0 km/h
2443 15-09-2010 08:48:02 12.7 C 10.35 g/m*3 12.7 C 0 km/h
2444 15-09-2010 09:00:02 12.5 C 10.22 g/m*3 12.5 C 0 km/h
2445 15-09-2010 09:12:01 12.7 C 10.35 g/m*3 12.7 C 0 km/h
2446 15-09-2010 09:24:01 12.7 C 10.24 g/m*3 12.7 C 0 km/h
2447 15-09-2010 09:36:02 13.1 C 10.38 g/m*3 13.1 C 0 km/h
2448 15-09-2010 09:48:02 13.6 C 10.59 g/m*3 13.6 C 0 km/h
2449 15-09-2010 10:00:02 14 C 10.49 g/m*3 14 C 0 km/h
2450 15-09-2010 10:12:02 14 C 10.01 g/m*3 14 C 0 km/h
Sensor: Nr:Datum:Temp:Abs-Feuchte:Windchill:Wind:
Aussen-T/F 2451 15-09-2010 10:24:02 14.1 C 9.95 g/m*3 14.1 C 0 km/h
2452 15-09-2010 10:36:02 14.1 C 9.71 g/m*3 14.1 C 0 km/h
2453 15-09-2010 10:48:02 14.1 C 9.59 g/m*3 14.1 C 0 km/h
2454 15-09-2010 11:00:02 14.2 C 9.52 g/m*3 14.2 C 0 km/h
2455 15-09-2010 11:12:02 14.6 C 9.01 g/m*3 14.6 C 0 km/h
2456 15-09-2010 11:24:02 15 C 8.72 g/m*3 15 C 0 km/h
2457 15-09-2010 11:36:02 15.6 C 8.51 g/m*3 15.6 C 0 km/h
2458 15-09-2010 11:48:01 15.7 C 8.43 g/m*3 15.7 C 0 km/h
2459 15-09-2010 12:00:01 16.2 C 7.31 g/m*3 16.2 C 0 km/h
2460 15-09-2010 12:12:01 16.4 C 7.4 g/m*3 16.4 C 0 km/h
2461 15-09-2010 12:24:01 17.2 C 7.18 g/m*3 17.2 C 0 km/h
2462 15-09-2010 12:36:01 16.6 C 7.06 g/m*3 16.6 C 0 km/h
2463 15-09-2010 12:48:02 16.1 C 6.17 g/m*3 16.1 C 0 km/h
2464 15-09-2010 13:00:02 16.1 C 6.44 g/m*3 16.1 C 0 km/h
2465 15-09-2010 13:12:02 16.4 C 6.7 g/m*3 16.4 C 0 km/h
2466 15-09-2010 13:24:02 17.4 C 6.52 g/m*3 17.4 C 0 km/h
2467 15-09-2010 13:36:02 17.9 C 5.95 g/m*3 17.9 C 0 km/h
2468 15-09-2010 13:48:02 18.4 C 5.82 g/m*3 18.4 C 0 km/h
2469 15-09-2010 14:00:02 18.5 C 5.7 g/m*3 18.5 C 0 km/h
2470 15-09-2010 14:12:02 18.1 C 5.87 g/m*3 18.1 C 0 km/h
2471 15-09-2010 14:24:02 18.5 C 5.54 g/m*3 18.5 C 0 km/h
2472 15-09-2010 14:36:02 18.3 C 5.47 g/m*3 18.3 C 0 km/h
2473 15-09-2010 14:48:02 18.5 C 5.7 g/m*3 18.5 C 0 km/h
2474 15-09-2010 15:00:03 19.5 C 5.87 g/m*3 19.5 C 0 km/h
2475 15-09-2010 15:12:01 19.6 C 5.4 g/m*3 19.6 C 0 km/h
Sensor: Nr:Datum:Temp:Abs-Feuchte:Windchill:Wind:
Aussen-T/F 2476 15-09-2010 15:24:01 19.3 C 5.64 g/m*3 19.3 C 0 km/h
2477 15-09-2010 15:36:02 19.2 C 5.94 g/m*3 19.2 C 0 km/h
2478 15-09-2010 15:48:02 20 C 5.88 g/m*3 20 C 0 km/h
2479 15-09-2010 16:00:02 19.6 C 5.91 g/m*3 19.6 C 0 km/h
2480 15-09-2010 16:12:02 19.6 C 5.91 g/m*3 19.6 C 0 km/h
2481 15-09-2010 16:24:02 19.3 C 5.97 g/m*3 19.3 C 0 km/h
2482 15-09-2010 16:36:02 19.6 C 6.08 g/m*3 19.6 C 0 km/h
2483 15-09-2010 16:48:02 19.5 C 6.04 g/m*3 19.5 C 0 km/h
2484 15-09-2010 17:00:02 20.4 C 5.84 g/m*3 20.4 C 0 km/h
2485 15-09-2010 17:12:02 19 C 5.7 g/m*3 19 C 0 km/h
2486 15-09-2010 17:24:02 19.4 C 6.01 g/m*3 19.4 C 0 km/h
2487 15-09-2010 17:36:02 19.9 C 5.84 g/m*3 19.9 C 0 km/h
2488 15-09-2010 17:48:02 19.7 C 5.6 g/m*3 19.7 C 0 km/h
2489 15-09-2010 18:00:02 18.7 C 5.44 g/m*3 18.7 C 0 km/h
2490 15-09-2010 18:12:02 18.2 C 5.28 g/m*3 18.2 C 0 km/h
2491 15-09-2010 18:24:03 17.5 C 5.22 g/m*3 17.5 C 0 km/h
2492 15-09-2010 18:36:02 17.7 C 5.28 g/m*3 17.7 C 0 km/h
2493 15-09-2010 18:48:02 17.1 C 5.39 g/m*3 17.1 C 0 km/h
2494 15-09-2010 19:00:02 16.9 C 5.61 g/m*3 16.9 C 0 km/h
2495 15-09-2010 19:12:02 16.7 C 5.4 g/m*3 16.7 C 0 km/h
2496 15-09-2010 19:24:02 16.6 C 5.65 g/m*3 16.6 C 0 km/h
2497 15-09-2010 19:36:02 16.4 C 5.72 g/m*3 16.4 C 0 km/h
2498 15-09-2010 19:48:02 16.4 C 5.86 g/m*3 16.4 C 0 km/h
2499 15-09-2010 20:00:02 16.2 C 6.07 g/m*3 16.2 C 0 km/h
2500 15-09-2010 20:12:02 16 C 6.27 g/m*3 16 C 0 km/h
Sensor: Nr:Datum:Temp:Abs-Feuchte:Windchill:Wind:
Aussen-T/F 2501 15-09-2010 20:24:02 15.8 C 6.46 g/m*3 15.8 C 0 km/h
2502 15-09-2010 20:36:01 15.7 C 6.15 g/m*3 15.7 C 0 km/h
2503 15-09-2010 20:48:02 15.5 C 6.34 g/m*3 15.5 C 0 km/h
2504 15-09-2010 21:00:03 15.4 C 6.31 g/m*3 15.4 C 0 km/h
2505 15-09-2010 21:12:01 15.2 C 6.49 g/m*3 15.2 C 0 km/h
2506 15-09-2010 21:24:01 15 C 6.41 g/m*3 15 C 0 km/h
2507 15-09-2010 21:37:02 15.1 C 6.32 g/m*3 15.1 C 0 km/h
2508 15-09-2010 21:49:02 15.2 C 6.36 g/m*3 15.2 C 0 km/h
2509 15-09-2010 22:01:02 15.1 C 6.32 g/m*3 15.1 C 0 km/h
2510 15-09-2010 22:13:02 15.1 C 6.06 g/m*3 15.1 C 0 km/h
2511 15-09-2010 22:25:02 14.9 C 5.86 g/m*3 14.9 C 0 km/h
2512 15-09-2010 22:37:02 14.8 C 5.83 g/m*3 14.8 C 0 km/h
2513 15-09-2010 22:49:02 14.9 C 5.74 g/m*3 14.9 C 0 km/h
2514 15-09-2010 23:01:02 15 C 5.51 g/m*3 15 C 0 km/h
2515 15-09-2010 23:13:02 15 C 5.51 g/m*3 15 C 0 km/h
2516 15-09-2010 23:25:02 14.9 C 5.74 g/m*3 14.9 C 0 km/h
2517 15-09-2010 23:37:02 14.8 C 5.7 g/m*3 14.8 C 0 km/h
2518 15-09-2010 23:49:02 14.6 C 5.76 g/m*3 14.6 C 0 km/h

Legende:
   Min
   Max


Maximal/Minimal-Werte vom 23.02.2003 - 30.09.2020

Sensor Min Max Avg
Temp
(Aussen-T/F)
-16.4 °C
20-12-2009  01:30:01
40.4 °C
25-07-2019  16:20:00
11.32 °C

Die Daten stammen von einer Davis Vantage Pro 2 Wetter-Station und werden unter Linux mit der Software wview2wettercgi und aufbereitet. Alle Angaben erfolgen ohne Gewähr für ihre Vollständigkeit oder Richtigkeit.
Kontakt: Rainer Krienke krienke@uni-koblenz.de . Meine Webseiten an der Uni Koblenz oder privat.
Version: $Revision: 0.78 $